[[{"header":{"parameterUnit":"m.s-1","parameterCategory":1,"la1":31.0,"la2":29.5877,"lo1":-88.7671,"lo2":-86.6584,"dy":0.0162,"dx":0.0185,"nx":115,"ny":88,"refTime":"2023-05-25T00:00:00:Z","depth":0,"parameterNumber":2,"parameterNumberName":"U-component_of_WINDS"},"data":[0.0,0.0,0.0,0.0,0.0,0.0,0.0,0.0,0.0,0.0,0.0,0.0,0.0,0.0,0.0,0.0,0.0,0.0,0.0,0.0,0.0,0.0,0.0,0.0,0.0,0.0,0.0,0.0,0.0,0.0,0.0,0.0,0.0,0.0,0.0,0.0,0.0,0.0,0.0,0.0,0.0,0.0,0.0,0.0,0.0,0.0,0.0,0.0,0.0,0.0,0.0,0.0,0.0,0.0,0.0,0.0,0.0,0.0,0.0,0.0,0.0,0.0,0.0,0.0,0.0,0.0,0.0,0.0,0.0,0.0,0.0,0.0,0.0,0.0,0.0,0.0,0.0,0.0,0.0,0.0,0.0,0.0,0.0,0.0,0.0,0.0,0.0,0.0,0.0,0.0,0.0,0.0,0.0,0.0,0.0,0.0,0.0,0.0,0.0,0.0,0.0,0.0,0.0,0.0,0.0,0.0,0.0,0.0,0.0,0.0,0.0,0.0,0.0,0.0,0.0,0.0,0.0,0.0,0.0,0.0,0.0,0.0,0.0,0.0,0.0,0.0,0.0,0.0,0.0,0.0,0.0,0.0,0.0,0.0,0.0,0.0,0.0,0.0,0.0,0.0,0.0,0.0,0.0,0.0,0.0,0.0,0.0,0.0,0.0,0.0,0.0,0.0,0.0,0.0,0.0,0.0,0.0,0.0,0.0,0.0,0.0,0.0,0.0,0.0,0.0,0.0,0.0,0.0,0.0,0.0,0.0,0.0,0.0,0.0,0.0,0.0,0.0,0.0,0.0,0.0,0.0,0.0,0.0,0.0,0.0,0.0,0.0,0.0,0.0,0.0,0.0,0.0,0.0,0.0,0.0,0.0,0.0,0.0,0.0,0.0,0.0,0.0,0.0,0.0,0.0,0.0,0.0,0.0,0.0,0.0,0.0,0.0,0.0,0.0,0.0,0.0,0.0,0.0,0.0,0.0,0.0,0.0,0.0,0.0,0.0,0.0,0.0,0.0,0.0,0.0,0.0,0.0,0.0,0.0,0.0,0.0,0.0,0.0,0.0,0.0,0.0,0.0,0.0,0.0,0.0,0.0,0.0,0.0,0.0,0.0,0.0,0.0,0.0,0.0,0.0,0.0,0.0,0.0,0.0,0.0,0.0,0.0,0.0,0.0,0.0,0.0,0.0,0.0,0.0,0.0,0.0,0.0,0.0,0.0,0.0,0.0,0.0,0.0,0.0,0.0,0.0,0.0,0.0,0.0,0.0,0.0,0.0,0.0,0.0,0.0,0.0,0.0,0.0,0.0,0.0,0.0,0.0,0.0,0.0,0.0,0.0,0.0,0.0,0.0,0.0,0.0,0.0,0.0,0.0,0.0,0.0,0.0,0.0,0.0,0.0,0.0,0.0,0.0,0.0,0.0,0.0,0.0,0.0,0.0,0.0,0.0,0.0,0.0,0.0,0.0,0.0,0.0,0.0,0.0,0.0,0.0,0.0,0.0,0.0,0.0,0.0,0.0,0.0,0.0,0.0,0.0,0.0,0.0,0.0,0.0,0.0,0.0,0.0,0.0,0.0,0.0,0.0,0.0,0.0,0.0,0.0,0.0,0.0,0.0,0.0,0.0,0.0,0.0,0.0,0.0,0.0,0.0,0.0,0.0,0.0,0.0,0.0,0.0,0.0,0.0,0.0,0.0,0.0,0.0,0.0,0.0,0.0,0.0,0.0,0.0,0.0,0.0,0.0,0.0,0.0,0.0,0.0,0.0,0.0,0.0,0.0,0.0,0.0,0.0,0.0,0.0,0.0,0.0,0.0,0.0,0.0,0.0,0.0,0.0,0.0,0.0,0.0,0.0,0.0,0.0,0.0,0.0,0.0,0.0,0.0,0.0,0.0,0.0,0.0,0.0,0.0,0.0,0.0,0.0,0.0,0.0,0.0,0.0,0.0,0.0,0.0,0.0,0.0,0.0,0.0,0.0,0.0,0.0,0.0,0.0,0.0,0.0,0.0,0.0,0.0,0.0,0.0,0.0,0.0,0.0,0.0,0.0,0.0,0.0,0.0,0.0,0.0,0.0,0.0,0.0,0.0,0.0,0.0,0.0,0.0,0.0,0.0,0.0,0.0,0.0,0.0,0.0,0.0,0.0,0.0,0.0,0.0,0.0,0.0,0.0,0.0,0.0,0.0,0.0,0.0,0.0,0.0,0.0,0.0,0.0,0.0,0.0,0.0,0.0,0.0,0.0,0.0,0.0,0.0,0.0,0.0,0.0,0.0,0.0,0.0,0.0,0.0,0.0,0.0,0.0,0.0,0.0,0.0,0.0,0.0,0.0,0.0,0.0,0.0,0.0,0.0,0.0,0.0,0.0,0.0,0.0,0.0,0.0,0.0,0.0,0.0,0.0,0.0,0.0,0.0,0.0,0.0,0.0,0.0,0.0,0.0,0.0,0.0,0.0,0.0,0.0,0.0,0.0,0.0,0.0,0.0,0.0,0.0,0.0,0.0,0.0,0.0,0.0,0.0,0.0,0.0,0.0,0.0,0.0,0.0,0.0,0.0,0.0,0.0,0.0,0.0,0.0,0.0,0.0,0.0,0.0,0.0,0.0,0.0,0.0,0.0,0.0,0.0,0.0,0.0,0.0,0.0,0.0,0.0,0.0,0.0,0.0,0.0,0.0,0.0,0.0,0.0,0.0,0.0,0.0,0.0,0.0,0.0,0.0,0.0,0.0,0.0,0.0,0.0,0.0,0.0,0.0,0.0,0.0,0.0,0.0,0.0,0.0,0.0,0.0,0.0,0.0,0.0,0.0,0.0,0.0,0.0,0.0,0.0,0.0,0.0,0.0,0.0,0.0,0.0,0.0,0.0,0.0,0.0,0.0,0.0,0.0,0.0,0.0,0.0,0.0,0.0,0.0,0.0,0.0,0.0,0.0,0.0,0.0,0.0,0.0,0.0,0.0,0.0,0.0,0.0,0.0,0.0,0.0,0.0,0.0,0.0,0.0,0.0,0.0,0.0,0.0,0.0,0.0,0.0,0.0,0.0,0.0,0.0,0.0,0.0,0.0,0.0,0.0,0.0,0.0,0.0,0.0,0.0,0.0,0.0,0.0,0.0,0.0,0.0,0.0,0.0,0.0,0.0,0.0,0.0,0.0,0.0,0.0,0.0,0.0,0.0,0.0,0.0,0.0,0.0,0.0,0.0,0.0,0.0,0.0,0.0,0.0,0.0,0.0,0.0,0.0,0.0,0.0,0.0,0.0,0.0,0.0,0.0,0.0,0.0,0.0,0.0,0.0,0.0,0.0,0.0,0.0,0.0,0.0,0.0,0.0,0.0,0.0,0.0,0.0,0.0,0.0,0.0,0.0,0.0,0.0,0.0,0.0,0.0,0.0,0.0,0.0,0.0,0.0,0.0,0.0,0.0,0.0,0.0,0.0,0.0,0.0,0.0,0.0,0.0,0.0,0.0,0.0,0.0,0.0,0.0,0.0,0.0,0.0,0.0,0.0,0.0,0.0,0.0,0.0,0.0,0.0,0.0,0.0,0.0,0.0,0.0,0.0,0.0,0.0,0.0,0.0,0.0,0.0,0.0,0.0,0.0,0.0,0.0,0.0,0.0,0.0,0.0,0.0,0.0,0.0,0.0,0.0,0.0,0.0,0.0,0.0,0.0,0.0,0.0,0.0,0.0,0.0,0.0,0.0,0.0,0.0,0.0,0.0,0.0,0.0,0.0,0.0,0.0,0.0,0.0,0.0,0.0,0.0,0.0,0.0,0.0,0.0,0.0,0.0,0.0,0.0,0.0,0.0,0.0,0.0,0.0,0.0,0.0,0.0,0.0,0.0,0.0,0.0,0.0,0.0,0.0,0.0,0.0,0.0,0.0,0.0,0.0,0.0,0.0,0.0,0.0,0.0,0.0,0.0,0.0,0.0,0.0,0.0,0.0,0.0,0.0,0.0,0.0,0.0,0.0,0.0,0.0,0.0,0.0,0.0,0.0,0.0,0.0,0.0,0.0,0.0,0.0,0.0,0.0,0.0,0.0,0.0,0.0,0.0,0.0,0.0,0.0,0.0,0.0,0.0,0.0,0.0,0.0,0.0,0.0,0.0,0.0,0.0,0.0,0.0,0.0,0.0,0.0,0.0,0.0,0.0,0.0,0.0,0.0,0.0,0.0,0.0,0.0,0.0,0.0,0.0,0.0,0.0,0.0,0.0,0.0,0.0,0.0,0.0,0.0,0.0,0.0,0.0,0.0,0.0,0.0,0.0,0.0,0.0,1.3192,0.0,0.0,0.0,0.0,0.0,0.0,0.0,0.0,0.0,0.0,0.0,0.0,0.0,0.0,0.0,0.0,0.0,0.0,0.0,0.0,0.0,0.0,0.0,0.0,0.0,0.0,0.0,0.0,0.0,0.0,0.0,0.0,0.0,0.0,0.0,0.0,0.0,0.0,0.0,0.0,0.0,0.0,0.0,0.0,0.0,0.0,0.0,0.0,0.0,0.0,0.0,0.0,0.0,0.0,0.0,0.0,0.0,0.0,0.0,0.0,0.0,0.0,0.0,0.0,0.0,0.0,0.0,0.0,0.0,0.0,0.0,0.0,0.0,0.0,0.0,0.0,0.0,0.0,0.0,0.0,0.0,0.0,0.0,0.0,0.0,0.0,0.0,0.0,0.0,0.0,0.0,0.0,0.0,0.0,0.0,0.0,0.0,0.0,0.0,0.0,0.0,0.0,0.0,0.0,0.0,0.0,0.0,0.0,0.0,0.0,1.2794,1.2942,1.3066,1.3088,1.3092,0.0,0.0,0.0,0.0,0.0,0.0,0.0,0.0,0.0,0.0,0.0,0.0,0.0,0.0,0.0,0.0,0.0,0.0,0.0,0.0,0.0,0.0,0.0,0.0,0.0,0.0,0.0,0.0,0.0,0.0,0.0,0.0,0.0,0.0,0.0,0.0,0.0,0.0,0.0,0.0,0.0,0.0,0.0,0.0,0.0,0.0,0.0,0.0,0.0,0.0,0.0,0.0,0.0,0.0,0.0,0.0,0.0,0.0,0.0,0.0,0.0,0.0,0.0,0.0,0.0,0.0,0.0,0.0,0.0,0.0,0.0,0.0,0.0,0.0,0.0,0.0,0.0,0.0,0.0,0.0,0.0,0.0,0.0,0.0,0.0,0.0,0.0,0.0,0.0,0.0,0.0,0.0,0.0,0.0,0.0,0.0,0.0,0.0,0.0,0.0,0.0,0.0,0.0,0.0,0.0,0.0,0.0,0.0,0.0,0.0,0.0,0.0,1.2942,1.2967,1.2974,0.0,0.0,0.0,0.0,0.0,0.0,0.0,0.0,0.0,0.0,0.0,0.0,0.0,0.0,0.0,0.0,0.0,0.0,0.0,0.0,0.0,0.0,0.0,0.0,0.0,0.0,0.0,0.0,0.0,0.0,0.0,0.0,0.0,0.0,0.0,0.0,0.0,0.0,0.0,0.0,0.0,0.0,0.0,0.0,0.0,0.0,0.0,0.0,0.0,0.0,0.0,0.0,0.0,0.0,0.0,0.0,0.0,0.0,0.0,0.0,0.0,0.0,0.0,0.0,0.0,0.0,0.0,0.0,0.0,0.0,0.0,0.0,0.0,0.0,0.0,0.0,0.0,0.0,0.0,0.0,0.0,0.0,0.0,0.0,0.0,0.0,0.0,0.0,0.0,0.0,0.0,0.0,0.0,0.0,0.0,0.0,0.0,0.0,0.0,0.0,0.0,0.0,0.0,0.0,0.0,0.0,0.0,0.0,0.0,0.0,1.2665,1.2813,1.2869,0.0,1.2899,0.0,0.0,0.0,0.0,0.0,0.0,0.0,0.0,0.0,0.0,0.0,0.0,0.0,0.0,0.0,0.0,0.0,0.0,0.0,0.0,0.0,0.0,0.0,0.0,0.0,0.0,0.0,0.0,0.0,0.0,0.0,0.0,0.0,0.0,0.0,0.0,0.0,0.0,0.0,0.0,0.0,0.0,0.0,0.0,0.0,0.0,0.0,0.0,0.0,0.0,0.0,0.0,0.0,0.0,0.0,0.0,0.0,0.0,0.0,0.0,0.0,0.0,0.0,0.0,0.0,0.0,0.0,0.0,0.0,0.0,0.0,0.0,0.0,0.0,0.0,0.0,0.0,0.0,0.0,0.0,0.0,0.0,0.0,0.0,0.0,0.0,0.0,0.0,0.0,0.0,0.0,0.0,0.0,0.0,0.0,0.0,0.0,0.0,0.0,0.0,0.0,0.0,0.0,0.0,0.0,0.0,0.0,0.0,0.0,0.0,1.2412,1.2506,1.2575,1.2603,0.0,0.0,0.0,0.0,0.0,0.0,0.0,0.0,0.0,0.0,0.0,0.0,0.0,0.0,0.0,0.0,0.0,0.0,0.0,0.0,0.0,0.0,0.0,0.0,0.0,0.0,0.0,0.0,0.0,0.0,0.0,0.0,0.0,0.0,0.0,0.0,0.0,0.0,0.0,0.0,0.0,0.0,0.0,0.0,0.0,0.0,0.0,0.0,0.0,0.0,0.0,0.0,0.0,0.0,0.0,0.0,0.0,0.0,0.0,0.0,0.0,0.0,0.0,0.0,0.0,0.0,0.0,0.0,0.0,0.0,0.0,0.0,0.0,0.0,0.0,0.0,0.0,0.0,0.0,0.0,0.0,0.0,0.0,0.0,0.0,0.0,0.0,0.0,0.0,0.0,0.0,0.0,0.0,0.0,0.0,0.0,0.0,0.0,0.0,0.0,0.0,0.0,0.0,0.0,0.0,0.0,0.0,0.0,0.0,0.0,1.2143,1.2241,1.2287,1.2356,1.24,1.2353,0.0,0.0,0.0,0.0,0.0,0.0,0.0,0.0,0.0,0.0,0.0,0.0,0.0,0.0,0.0,0.0,0.0,0.0,0.0,0.0,0.0,0.0,0.0,0.0,0.0,0.0,0.0,0.0,0.0,0.0,0.0,0.0,0.0,0.0,0.0,0.0,0.0,0.0,0.0,0.0,0.0,0.0,0.0,0.0,0.0,0.0,0.0,0.0,0.0,0.0,0.0,0.0,0.0,0.0,0.0,0.0,0.0,0.0,0.0,0.0,0.0,0.0,0.0,0.0,0.0,0.0,0.0,0.0,0.0,0.0,0.0,0.0,0.0,0.0,0.0,0.0,0.0,0.0,0.0,0.0,0.0,0.0,0.0,0.0,0.0,0.0,0.0,0.0,0.0,0.0,0.0,0.0,0.0,0.0,0.0,0.0,0.0,0.0,0.0,0.0,0.0,0.0,0.0,0.0,0.0,0.0,0.0,0.0,1.2012,1.2133,1.2236,1.2302,1.236,1.2375,0.0,0.0,0.0,0.0,0.0,0.0,0.0,0.0,0.0,0.0,0.0,0.0,0.0,0.0,0.0,0.0,0.0,0.0,0.0,0.0,0.0,0.0,0.0,0.0,0.0,0.0,0.0,0.0,0.0,0.0,0.0,0.0,0.0,0.0,0.0,0.0,0.0,0.0,0.0,0.0,0.0,0.0,0.0,0.0,0.0,0.0,0.0,0.0,0.0,0.0,0.0,0.0,0.0,0.0,0.0,0.0,0.0,0.0,0.0,0.0,0.0,0.0,0.0,0.0,0.0,0.0,0.0,0.0,0.0,0.0,0.0,0.0,0.0,0.0,0.0,0.0,0.0,0.0,0.0,0.0,0.0,0.0,0.0,0.0,0.0,0.0,0.0,0.0,0.0,0.0,0.0,0.0,0.0,0.0,0.0,0.0,0.0,0.0,0.0,0.0,0.0,0.0,0.0,0.0,0.0,0.0,0.0,0.0,0.0,1.2054,1.2159,1.2205,1.2226,1.2257,1.223,0.0,0.0,0.0,0.0,0.0,0.0,0.0,0.0,0.0,0.0,0.0,0.0,0.0,0.0,0.0,0.0,0.0,0.0,0.0,0.0,0.0,0.0,0.0,0.0,0.0,0.0,0.0,0.0,0.0,0.0,0.0,0.0,0.0,0.0,0.0,0.0,0.0,0.0,0.0,0.0,0.0,0.0,0.0,0.0,0.0,0.0,0.0,0.0,0.0,0.0,0.0,0.0,0.0,0.0,0.0,0.0,0.0,0.0,0.0,0.0,0.0,0.0,0.0,0.0,0.0,0.0,0.0,0.0,0.0,0.0,0.0,0.0,0.0,0.0,0.0,0.0,0.0,0.0,0.0,0.0,0.0,0.0,0.0,0.0,0.0,0.0,0.0,0.0,0.0,0.0,0.0,0.0,0.0,0.0,0.0,0.0,0.0,0.0,0.0,0.0,0.0,0.0,0.0,0.0,0.0,0.0,0.0,0.0,0.0,1.2195,0.0,1.2312,1.2343,1.2324,1.2257,0.0,0.0,0.0,0.0,0.0,0.0,0.0,0.0,0.0,0.0,0.0,0.0,0.0,0.0,0.0,0.0,0.0,0.0,0.0,0.0,0.0,0.0,0.0,0.0,0.0,0.0,0.0,0.0,0.0,0.0,0.0,0.0,0.0,0.0,0.0,0.0,0.0,0.0,0.0,0.0,0.0,0.0,0.0,0.0,0.0,0.0,0.0,0.0,0.0,0.0,0.0,0.0,0.0,0.0,0.0,0.0,0.0,0.0,0.0,0.0,0.0,0.0,0.0,0.0,0.0,0.0,0.0,0.0,0.0,0.0,0.0,0.0,0.0,0.0,0.0,0.0,0.0,0.0,0.0,0.0,0.0,0.0,0.0,0.0,0.0,0.0,0.0,0.0,0.0,0.0,0.0,0.0,0.0,0.0,0.0,0.0,0.0,0.0,0.0,0.0,0.0,0.0,0.0,0.0,0.0,0.0,0.0,0.0,1.2138,1.2399,1.253,1.2604,1.2609,1.2534,1.2415,0.0,0.0,0.0,0.0,0.0,0.0,0.0,0.0,0.0,0.0,0.0,0.0,0.0,0.0,0.0,0.0,0.0,0.0,0.0,0.0,0.0,0.0,0.0,0.0,0.0,0.0,0.0,0.0,0.0,0.0,0.0,0.0,0.0,0.0,0.0,0.0,0.0,0.0,0.0,0.0,0.0,0.0,0.0,0.0,0.0,0.0,0.0,0.0,0.0,0.0,0.0,0.0,0.0,0.0,0.0,0.0,0.0,0.0,0.0,0.0,0.0,0.0,0.0,0.0,0.0,0.0,0.0,0.0,0.0,0.0,0.0,0.0,0.0,0.0,0.0,0.0,0.0,0.0,0.0,0.0,0.0,0.0,0.0,0.0,0.0,0.0,0.0,0.0,0.0,0.0,0.0,0.0,0.0,0.0,0.0,0.0,0.0,0.0,0.0,0.0,0.0,0.0,0.0,0.0,0.0,0.0,0.0,0.0,0.0,1.2604,1.2738,1.2811,1.2789,1.2655,1.2463,0.0,0.0,0.0,0.0,0.0,0.0,0.0,0.0,0.0,0.0,0.0,0.0,0.0,0.0,0.0,0.0,0.0,0.0,0.0,0.0,0.0,0.0,0.0,0.0,0.0,0.0,0.0,0.0,0.0,0.0,0.0,0.0,0.0,0.0,0.0,0.0,0.0,0.0,0.0,0.0,0.0,0.0,0.0,0.0,0.0,0.0,0.0,0.0,0.0,0.0,0.0,0.0,0.0,0.0,0.0,0.0,0.0,0.0,0.0,0.0,0.0,0.0,0.0,0.0,0.0,0.0,0.0,0.0,0.0,0.0,0.0,0.0,0.0,0.0,0.0,0.0,0.0,0.0,0.0,0.0,0.0,0.0,0.0,0.0,0.0,0.0,0.0,0.0,0.0,0.0,0.0,0.0,0.0,0.0,0.0,0.0,0.0,0.0,0.0,0.0,0.0,0.0,0.0,0.0,0.0,0.0,0.0,0.0,0.0,1.3375,1.3361,1.3388,1.3336,1.3173,1.2819,1.226,0.0,0.0,0.0,0.0,0.0,0.0,0.0,0.0,0.0,0.0,0.0,0.0,0.0,0.0,0.0,0.0,0.0,0.0,0.0,0.0,0.0,0.0,0.0,0.0,0.0,0.0,0.0,0.0,0.0,0.0,0.0,0.0,0.0,0.0,0.0,0.0,0.0,0.0,0.0,0.0,0.0,0.0,0.0,0.0,0.0,0.0,0.0,0.0,0.0,0.0,0.0,0.0,0.0,0.0,0.0,0.0,0.0,0.0,0.0,0.0,0.0,0.0,0.0,0.0,0.0,0.0,0.0,0.0,0.0,0.0,0.0,0.0,0.0,0.0,0.0,0.0,0.0,0.0,0.0,0.0,0.0,0.0,0.0,0.0,0.0,0.0,0.0,0.0,0.0,0.0,0.0,0.0,0.0,0.0,0.0,0.0,0.0,0.0,0.0,0.0,0.0,0.0,0.0,0.0,0.0,0.0,0.0,0.0,1.4642,1.4536,1.4383,1.4192,1.3996,1.341,0.0,0.0,0.0,0.0,0.0,0.0,0.0,0.0,0.0,0.0,0.0,0.0,0.0,0.0,0.0,0.0,0.0,0.0,0.0,0.0,0.0,0.0,0.0,0.0,0.0,0.0,0.0,0.0,0.0,0.0,0.0,0.0,0.0,0.0,0.0,0.0,0.0,0.0,0.0,0.0,0.0,0.0,0.0,0.0,0.0,0.0,0.0,0.0,0.0,0.0,0.0,0.0,0.0,0.0,0.0,0.0,0.0,0.0,0.0,0.0,0.0,0.0,0.0,0.0,0.0,0.0,0.0,0.0,0.0,0.0,0.0,0.0,0.0,0.0,0.0,0.0,0.0,0.0,0.0,0.0,0.0,0.0,0.0,0.0,0.0,0.0,0.0,0.0,0.0,0.0,0.0,0.0,0.0,0.0,0.0,0.0,0.0,0.0,0.0,0.0,0.0,0.0,0.0,0.0,0.0,0.0,0.0,0.0,0.0,1.6667,1.7317,1.6868,1.5181,1.4331,1.3697,0.0,0.0,0.0,0.0,0.0,0.0,0.0,0.0,0.0,0.0,0.0,0.0,0.0,0.0,0.0,0.0,0.0,0.0,0.0,0.0,0.0,0.0,0.0,0.0,0.0,0.0,0.0,0.0,0.0,0.0,0.0,0.0,0.0,0.0,0.0,0.0,0.0,0.0,0.0,0.0,0.0,0.0,0.0,0.0,0.0,0.0,0.0,0.0,0.0,0.0,0.0,0.0,0.0,0.0,0.0,0.0,0.0,0.0,0.0,0.0,0.0,0.0,0.0,0.0,0.0,0.0,0.0,0.0,0.0,0.0,0.0,0.0,0.0,0.0,0.0,0.0,0.0,0.0,0.0,0.0,0.0,0.0,0.0,0.0,0.0,0.0,0.0,0.0,0.0,0.0,0.0,0.0,0.0,0.0,0.0,0.0,0.0,0.0,0.0,0.0,0.0,0.0,0.0,0.0,0.0,0.0,0.0,0.0,1.7123,1.9433,1.925,1.8557,1.7406,1.6088,1.4969,0.0,0.0,0.0,0.0,0.0,0.0,0.0,0.0,0.0,0.0,0.0,0.0,0.0,0.0,0.0,0.0,0.0,0.0,0.0,0.0,0.0,0.0,0.0,0.0,0.0,0.0,0.0,0.0,0.0,0.0,0.0,0.0,0.0,0.0,0.0,0.0,0.0,0.0,0.0,0.0,0.0,0.0,0.0,0.0,0.0,0.0,0.0,0.0,0.0,0.0,0.0,0.0,0.0,0.0,0.0,0.0,0.0,0.0,0.0,0.0,0.0,0.0,0.0,0.0,0.0,0.0,0.0,0.0,0.0,0.0,0.0,0.0,0.0,0.0,0.0,0.0,0.0,0.0,0.0,0.0,0.0,0.0,0.0,0.0,0.0,0.0,0.0,0.0,0.0,0.0,0.0,0.0,0.0,0.0,0.0,0.0,0.0,0.0,0.0,0.0,0.0,0.0,0.0,0.0,0.0,0.0,0.0,0.0,1.8975,2.2055,2.0516,1.9782,2.0008,1.8285,1.6592,0.0,0.0,0.0,0.0,0.0,0.0,0.0,0.0,0.0,0.0,0.0,0.0,0.0,0.0,0.0,0.0,0.0,0.0,0.0,0.0,0.0,0.0,0.0,0.0,0.0,0.0,0.0,0.0,0.0,0.0,0.0,0.0,0.0,0.0,0.0,0.0,0.0,0.0,0.0,0.0,0.0,0.0,0.0,0.0,0.0,0.0,0.0,0.0,0.0,0.0,0.0,0.0,0.0,0.0,0.0,0.0,0.0,0.0,0.0,0.0,0.0,0.0,0.0,0.0,0.0,0.0,0.0,0.0,0.0,0.0,0.0,0.0,0.0,0.0,0.0,0.0,0.0,0.0,0.0,0.0,0.0,0.0,0.0,0.0,0.0,0.0,0.0,0.0,0.0,0.0,0.0,0.0,0.0,0.0,0.0,0.0,0.0,0.0,0.0,0.0,0.0,0.0,0.0,0.0,0.0,0.0,0.0,0.0,1.9223,2.1211,2.1189,2.101,2.0774,1.8238,1.6524,0.0,0.0,0.0,0.0,0.0,0.0,0.0,0.0,0.0,0.0,0.0,0.0,0.0,0.0,0.0,0.0,0.0,0.0,0.0,0.0,0.0,0.0,0.0,0.0,0.0,0.0,0.0,0.0,0.0,0.0,0.0,0.0,0.0,0.0,0.0,0.0,0.0,0.0,0.0,0.0,0.0,0.0,0.0,0.0,0.0,0.0,0.0,0.0,1.6445,0.0,0.0,0.0,0.0,0.0,0.0,0.0,0.0,0.0,0.0,0.0,0.0,0.0,0.0,0.0,0.0,0.0,0.0,0.0,0.0,0.0,0.0,0.0,0.0,0.0,0.0,0.0,0.0,0.0,0.0,0.0,0.0,0.0,0.0,0.0,0.0,0.0,0.0,0.0,0.0,0.0,0.0,0.0,0.0,0.0,0.0,0.0,0.0,0.0,0.0,0.0,0.0,0.0,0.0,0.0,0.0,0.0,0.0,0.0,1.9684,2.0936,2.119,2.1222,2.0927,1.8874,1.7441,0.0,0.0,0.0,0.0,0.0,0.0,0.0,0.0,0.0,0.0,0.0,0.0,0.0,0.0,0.0,0.0,0.0,0.0,0.0,0.0,0.0,0.0,0.0,0.0,0.0,0.0,0.0,0.0,0.0,0.0,0.0,0.0,0.0,0.0,0.0,0.0,0.0,0.0,0.0,0.0,0.0,0.0,0.0,0.0,0.0,0.0,0.0,0.0,0.0,0.0,0.0,0.0,0.0,0.0,0.0,0.0,0.0,0.0,0.0,0.0,0.0,0.0,0.0,0.0,0.0,0.0,0.0,0.0,0.0,0.0,0.0,0.0,0.0,0.0,0.0,0.0,0.0,0.0,0.0,0.0,0.0,0.0,0.0,0.0,0.0,0.0,0.0,0.0,0.0,0.0,0.0,0.0,0.0,0.0,0.0,0.0,0.0,0.0,0.0,0.0,0.0,0.0,0.0,0.0,0.0,0.0,0.0,1.8573,2.003,2.096,2.0955,2.0846,2.0781,1.955,1.8474,1.7624,0.0,0.0,0.0,0.0,0.0,0.0,0.0,0.0,0.0,0.0,0.0,0.0,0.0,0.0,0.0,0.0,0.0,0.0,0.0,0.0,0.0,0.0,0.0,0.0,0.0,0.0,0.0,0.0,0.0,0.0,0.0,0.0,0.0,0.0,0.0,0.0,0.0,0.0,1.7761,1.731,0.0,0.0,0.0,0.0,0.0,0.0,0.0,0.0,1.8683,0.0,0.0,0.0,0.0,0.0,0.0,0.0,0.0,0.0,0.0,0.0,0.0,0.0,0.0,0.0,0.0,0.0,0.0,0.0,0.0,0.0,0.0,0.0,0.0,0.0,0.0,0.0,0.0,0.0,0.0,0.0,0.0,0.0,0.0,0.0,0.0,0.0,0.0,0.0,0.0,0.0,0.0,0.0,0.0,0.0,0.0,0.0,0.0,0.0,0.0,0.0,0.0,0.0,0.0,0.0,0.0,1.6608,1.8219,1.9653,2.0942,2.0607,2.0249,1.9914,1.9099,1.835,1.7695,0.0,0.0,0.0,0.0,0.0,0.0,0.0,0.0,0.0,0.0,0.0,0.0,0.0,0.0,0.0,0.0,0.0,0.0,0.0,0.0,0.0,0.0,0.0,0.0,0.0,0.0,0.0,0.0,0.0,0.0,0.0,0.0,0.0,0.0,0.0,0.0,0.0,0.0,0.0,1.7835,1.7796,0.0,0.0,0.0,0.0,0.0,0.0,0.0,0.0,1.9359,0.0,0.0,0.0,0.0,0.0,0.0,0.0,0.0,0.0,0.0,0.0,0.0,0.0,0.0,0.0,0.0,0.0,0.0,0.0,0.0,0.0,0.0,0.0,0.0,0.0,0.0,0.0,0.0,0.0,0.0,0.0,0.0,0.0,0.0,0.0,0.0,0.0,0.0,0.0,0.0,0.0,0.0,0.0,0.0,0.0,0.0,0.0,0.0,0.0,0.0,0.0,0.0,0.0,0.0,0.0,1.6642,1.8808,2.0105,2.0337,2.0541,2.0366,1.9711,1.8981,1.8272,0.0,0.0,0.0,0.0,0.0,0.0,0.0,0.0,0.0,0.0,0.0,0.0,0.0,0.0,0.0,0.0,0.0,0.0,0.0,0.0,0.0,0.0,0.0,0.0,0.0,0.0,0.0,0.0,0.0,0.0,0.0,0.0,0.0,0.0,0.0,0.0,0.0,0.0,0.0,0.0,1.7966,1.833,1.9208,0.0,0.0,0.0,0.0,0.0,0.0,1.9987,2.0511,0.0,0.0,0.0,0.0,0.0,0.0,0.0,0.0,0.0,0.0,0.0,0.0,0.0,0.0,0.0,0.0,0.0,0.0,0.0,0.0,0.0,0.0,0.0,0.0,0.0,0.0,0.0,0.0,0.0,0.0,0.0,0.0,0.0,0.0,0.0,0.0,0.0,0.0,0.0,0.0,0.0,0.0,0.0,0.0,0.0,0.0,0.0,0.0,0.0,0.0,0.0,0.0,0.0,0.0,0.0,1.7102,1.9829,2.1108,2.0735,2.1177,2.1042,2.0267,1.9284,1.8428,0.0,0.0,0.0,0.0,0.0,0.0,0.0,0.0,0.0,0.0,0.0,0.0,0.0,0.0,0.0,0.0,0.0,0.0,0.0,0.0,0.0,0.0,0.0,0.0,0.0,0.0,0.0,0.0,0.0,0.0,0.0,0.0,0.0,0.0,0.0,0.0,0.0,0.0,0.0,0.0,0.0,1.9097,2.0618,1.9654,0.0,0.0,0.0,0.0,1.9817,2.104,0.0,0.0,0.0,0.0,0.0,0.0,0.0,0.0,0.0,0.0,0.0,0.0,0.0,0.0,0.0,0.0,0.0,0.0,0.0,0.0,0.0,0.0,0.0,0.0,0.0,0.0,0.0,0.0,0.0,0.0,0.0,0.0,0.0,0.0,0.0,0.0,0.0,0.0,0.0,0.0,0.0,0.0,0.0,0.0,0.0,0.0,0.0,0.0,0.0,0.0,0.0,0.0,0.0,0.0,0.0,0.0,1.8979,2.1164,2.285,2.3869,2.33,2.2679,2.2059,2.0344,1.9076,0.0,0.0,0.0,0.0,0.0,0.0,0.0,0.0,0.0,0.0,0.0,0.0,0.0,0.0,0.0,0.0,0.0,0.0,0.0,0.0,0.0,0.0,0.0,0.0,0.0,0.0,0.0,0.0,0.0,0.0,0.0,0.0,0.0,0.0,0.0,0.0,0.0,0.0,0.0,0.0,0.0,2.0643,2.1621,2.1538,2.139,0.0,0.0,2.1623,2.1526,2.2316,0.0,0.0,0.0,0.0,0.0,0.0,0.0,0.0,0.0,0.0,0.0,0.0,0.0,0.0,0.0,0.0,0.0,0.0,0.0,0.0,0.0,0.0,0.0,0.0,0.0,0.0,0.0,0.0,0.0,0.0,0.0,0.0,0.0,0.0,0.0,0.0,0.0,0.0,0.0,0.0,0.0,0.0,0.0,0.0,0.0,0.0,0.0,0.0,0.0,0.0,0.0,0.0,0.0,0.0,0.0,2.0446,2.15,2.2889,2.3897,2.4398,2.3883,2.3345,2.2873,2.1079,1.9797,0.0,0.0,0.0,0.0,0.0,0.0,0.0,0.0,0.0,0.0,0.0,0.0,0.0,0.0,0.0,0.0,0.0,0.0,0.0,0.0,0.0,0.0,0.0,0.0,0.0,0.0,0.0,0.0,0.0,0.0,0.0,0.0,0.0,0.0,0.0,0.0,0.0,0.0,0.0,0.0,0.0,0.0,2.2461,2.2146,0.0,0.0,0.0,2.2377,2.1869,0.0,0.0,0.0,0.0,0.0,0.0,0.0,0.0,0.0,0.0,0.0,0.0,0.0,0.0,0.0,0.0,0.0,0.0,0.0,0.0,0.0,0.0,0.0,0.0,0.0,0.0,0.0,0.0,0.0,0.0,0.0,0.0,0.0,0.0,0.0,0.0,0.0,0.0,0.0,0.0,0.0,0.0,0.0,0.0,0.0,0.0,0.0,0.0,0.0,0.0,0.0,0.0,0.0,0.0,0.0,0.0,0.0,2.3573,2.4669,2.5133,2.4963,2.473,2.438,2.3867,2.234,0.0,0.0,0.0,0.0,0.0,0.0,0.0,0.0,0.0,0.0,0.0,0.0,0.0,0.0,0.0,0.0,0.0,0.0,0.0,0.0,0.0,0.0,0.0,0.0,0.0,0.0,0.0,1.5888,0.0,0.0,0.0,0.0,0.0,0.0,0.0,0.0,0.0,0.0,0.0,0.0,0.0,0.0,2.1719,2.2988,2.2752,2.2689,0.0,0.0,2.3185,2.2542,2.3725,2.4217,0.0,0.0,0.0,0.0,0.0,0.0,0.0,0.0,0.0,0.0,0.0,0.0,0.0,0.0,0.0,0.0,0.0,0.0,0.0,0.0,0.0,0.0,0.0,0.0,0.0,0.0,0.0,0.0,0.0,0.0,0.0,0.0,0.0,0.0,0.0,0.0,0.0,0.0,0.0,0.0,0.0,0.0,0.0,0.0,0.0,0.0,0.0,0.0,0.0,0.0,0.0,0.0,0.0,0.0,0.0,2.47,2.6279,2.6879,2.6556,2.6522,2.6285,2.5796,2.4547,2.3108,0.0,0.0,0.0,0.0,0.0,0.0,0.0,0.0,0.0,0.0,0.0,0.0,0.0,0.0,0.0,0.0,0.0,0.0,0.0,0.0,0.0,0.0,0.0,0.0,0.0,0.0,0.0,0.0,0.0,0.0,0.0,0.0,0.0,0.0,0.0,0.0,0.0,0.0,0.0,0.0,0.0,2.3027,2.3105,2.3749,2.4253,0.0,0.0,2.4288,2.4238,2.4973,2.527,2.4284,0.0,0.0,0.0,0.0,0.0,0.0,0.0,0.0,0.0,0.0,0.0,0.0,0.0,0.0,0.0,0.0,0.0,0.0,0.0,0.0,0.0,0.0,0.0,0.0,0.0,0.0,0.0,0.0,0.0,0.0,0.0,0.0,0.0,0.0,0.0,0.0,0.0,0.0,0.0,0.0,0.0,0.0,0.0,0.0,0.0,0.0,0.0,0.0,0.0,0.0,0.0,0.0,0.0,2.3712,2.5028,2.6545,2.7241,2.7051,2.6841,2.6624,2.6436,2.538,2.4048,0.0,0.0,0.0,0.0,0.0,0.0,0.0,0.0,0.0,0.0,0.0,0.0,0.0,0.0,0.0,0.0,0.0,0.0,0.0,0.0,0.0,0.0,0.0,0.0,0.0,0.0,0.0,0.0,2.0042,2.0562,2.0542,0.0,0.0,0.0,0.0,0.0,0.0,0.0,0.0,0.0,0.0,2.3359,2.3828,2.4179,0.0,0.0,2.4419,2.4415,2.442,2.5127,2.5395,2.4495,2.4053,0.0,0.0,0.0,0.0,0.0,0.0,0.0,0.0,0.0,0.0,0.0,0.0,0.0,0.0,0.0,0.0,0.0,0.0,0.0,0.0,0.0,0.0,0.0,0.0,0.0,0.0,0.0,0.0,0.0,0.0,0.0,0.0,0.0,0.0,0.0,0.0,0.0,0.0,0.0,0.0,0.0,0.0,0.0,0.0,0.0,0.0,0.0,0.0,0.0,0.0,0.0,0.0,2.4016,2.4906,2.6696,2.746,2.7134,2.6985,2.6808,2.6674,2.6051,2.5029,0.0,0.0,0.0,0.0,0.0,0.0,0.0,0.0,0.0,0.0,0.0,0.0,0.0,0.0,0.0,0.0,0.0,0.0,0.0,0.0,0.0,0.0,0.0,0.0,0.0,0.0,0.0,0.0,2.1408,2.1801,2.157,0.0,0.0,0.0,0.0,0.0,0.0,0.0,0.0,0.0,0.0,2.375,2.4334,2.4628,2.4783,2.4791,2.4791,2.479,2.4779,2.5304,2.5477,2.4856,0.0,0.0,0.0,0.0,0.0,0.0,0.0,0.0,0.0,0.0,0.0,0.0,0.0,0.0,0.0,0.0,0.0,0.0,0.0,0.0,0.0,0.0,0.0,0.0,0.0,0.0,0.0,0.0,0.0,0.0,1.9649,0.0,0.0,0.0,0.0,0.0,0.0,0.0,0.0,0.0,0.0,0.0,0.0,0.0,0.0,0.0,0.0,0.0,0.0,0.0,0.0,0.0,0.0,2.5102,2.4375,2.7004,2.7842,2.6809,2.7116,2.7083,2.6725,2.6674,2.6202,2.5246,0.0,0.0,0.0,0.0,0.0,0.0,0.0,0.0,0.0,0.0,0.0,0.0,0.0,0.0,0.0,0.0,0.0,0.0,0.0,0.0,0.0,0.0,0.0,0.0,0.0,0.0,2.1498,2.229,2.2417,0.0,0.0,0.0,0.0,0.0,0.0,0.0,0.0,0.0,0.0,2.334,2.4354,2.442,2.5129,2.564,2.567,2.5648,2.5668,2.5666,2.5684,2.5663,0.0,0.0,0.0,0.0,0.0,0.0,0.0,0.0,0.0,0.0,0.0,0.0,0.0,0.0,0.0,0.0,0.0,0.0,0.0,0.0,0.0,0.0,0.0,0.0,0.0,0.0,0.0,2.3274,2.2882,0.0,0.0,0.0,0.0,0.0,0.0,0.0,0.0,0.0,0.0,0.0,2.6217,2.5652,0.0,0.0,0.0,0.0,0.0,0.0,0.0,0.0,0.0,0.0,0.0,0.0,2.507,2.5073,2.723,2.8362,2.8223,2.7617,2.7241,2.7115,2.6841,2.6286,2.5397,0.0,0.0,0.0,0.0,0.0,0.0,0.0,0.0,0.0,0.0,0.0,0.0,0.0,0.0,0.0,0.0,0.0,0.0,0.0,0.0,0.0,0.0,0.0,0.0,0.0,2.2771,0.0,0.0,0.0,0.0,0.0,0.0,0.0,0.0,0.0,0.0,0.0,2.2324,2.3418,2.3555,2.3944,2.5104,2.5514,2.5886,0.0,0.0,0.0,0.0,0.0,0.0,0.0,0.0,0.0,0.0,0.0,0.0,0.0,0.0,2.4436,2.326,2.3778,2.435,2.4311,0.0,0.0,0.0,0.0,0.0,0.0,0.0,0.0,0.0,0.0,0.0,0.0,0.0,0.0,2.5102,0.0,2.4194,0.0,0.0,0.0,0.0,0.0,0.0,0.0,0.0,2.7837,2.8687,2.8976,2.8389,2.8154,0.0,2.7722,2.6559,0.0,0.0,0.0,0.0,0.0,0.0,0.0,0.0,2.6007,2.6561,2.8456,2.958,2.9828,2.9005,2.8426,2.8097,2.7569,2.7097,2.6708,2.5527,2.4536,0.0,0.0,0.0,0.0,0.0,0.0,0.0,0.0,0.0,0.0,0.0,0.0,0.0,0.0,0.0,0.0,0.0,0.0,0.0,0.0,0.0,0.0,0.0,2.3852,0.0,0.0,0.0,0.0,0.0,0.0,0.0,0.0,0.0,2.1862,2.2358,2.3182,2.4256,2.4433,2.4765,2.5572,0.0,0.0,0.0,0.0,0.0,0.0,0.0,2.6142,2.6139,2.6408,2.6603,2.6555,2.6537,2.6543,2.6595,0.0,0.0,2.433,2.4464,2.4849,2.4799,2.5249,2.563,2.563,2.5634,2.5643,0.0,0.0,0.0,0.0,0.0,0.0,0.0,0.0,2.8272,2.7459,0.0,2.6646,0.0,0.0,0.0,0.0,0.0,2.7566,0.0,0.0,3.1584,3.2443,3.1642,3.1565,3.1623,3.1571,3.0456,3.0048,3.0138,2.8373,0.0,0.0,0.0,0.0,0.0,0.0,2.7901,2.8834,3.0503,3.1422,3.1465,3.1074,3.0487,2.9603,2.8867,2.8662,2.9039,2.7569,2.6765,2.6774,2.4076,0.0,0.0,0.0,0.0,0.0,0.0,0.0,0.0,0.0,0.0,0.0,0.0,0.0,0.0,0.0,0.0,0.0,0.0,0.0,0.0,2.3694,0.0,0.0,0.0,0.0,0.0,0.0,0.0,0.0,0.0,0.0,2.2234,2.3365,2.4417,2.4436,0.0,0.0,0.0,0.0,2.6724,2.6,2.5813,2.5831,2.5879,2.6529,2.7039,2.7036,0.0,0.0,2.828,2.8277,2.8223,2.8294,2.8215,2.7762,2.609,2.5798,2.5815,2.5806,2.5876,2.583,2.5791,2.5954,2.5922,3.1551,0.0,0.0,0.0,0.0,3.1284,3.0922,3.0948,3.0686,3.0412,3.0119,2.9524,0.0,0.0,0.0,0.0,0.0,0.0,3.0634,3.0828,3.2204,3.2724,3.2519,3.2539,3.2519,3.2539,3.2799,3.2976,3.3037,3.3105,3.1207,2.7511,0.0,0.0,0.0,0.0,2.898,3.002,3.0931,3.1591,3.1981,3.1275,3.065,3.0123,2.9867,2.9823,2.9965,2.9503,2.8763,2.7753,2.681,0.0,0.0,0.0,0.0,0.0,0.0,0.0,0.0,0.0,0.0,0.0,0.0,0.0,0.0,0.0,0.0,0.0,0.0,0.0,2.4664,2.4972,2.4807,0.0,0.0,0.0,0.0,0.0,0.0,0.0,0.0,0.0,2.4656,2.4459,2.4633,0.0,0.0,2.5517,2.649,2.6841,2.7349,2.8327,2.7962,0.0,2.8391,2.8168,2.7936,2.793,2.8142,2.8286,2.83,2.83,2.8299,2.8296,2.8291,2.8135,2.7694,2.7558,2.7539,2.7557,2.7557,2.7556,2.7556,2.7557,2.7559,3.4726,3.279,3.2814,3.3336,3.4093,3.3164,3.2737,3.2686,3.2352,3.2167,3.209,3.1597,3.0868,2.9953,2.9396,0.0,0.0,0.0,3.2618,3.31,3.3613,3.389,3.393,3.3949,3.393,3.3955,3.4361,3.4611,3.4718,3.4755,3.3375,3.0587,0.0,0.0,2.8842,2.9517,3.0314,3.1276,3.1975,3.2522,3.2826,3.2173,3.1776,3.1683,3.1248,3.1034,3.1201,3.0901,3.0348,2.9448,2.8691,2.7669,0.0,0.0,0.0,0.0,0.0,0.0,0.0,0.0,0.0,0.0,0.0,2.4013,2.3624,0.0,0.0,0.0,2.5056,2.5111,2.5515,2.5538,0.0,0.0,0.0,0.0,0.0,0.0,0.0,2.469,2.5869,2.6737,2.6727,2.6281,2.6145,2.6665,2.6568,2.6724,2.7407,0.0,2.8276,2.8979,2.865,2.8474,2.8994,2.8947,2.8908,2.9291,2.9312,2.9332,2.9336,2.9336,2.9336,2.9316,2.9334,2.9313,2.9316,2.9336,2.9082,2.8437,2.8281,2.8281,2.8281,2.8281,2.8281,3.5963,3.5955,3.5964,3.5985,3.5877,3.4544,3.4159,3.4332,3.3493,3.3128,3.3108,3.3109,3.2628,3.1799,3.1742,0.0,3.3058,3.3786,3.4597,3.5488,3.5507,3.5507,3.5507,3.5488,3.5507,3.5474,3.5239,3.5273,3.5422,3.4385,3.3936,3.4078,3.2988,3.1863,3.0812,3.1223,3.1861,3.2651,3.3403,3.3807,3.3807,3.3437,3.3419,3.3743,3.2714,3.2317,3.2657,3.1982,3.1564,3.1447,3.0148,2.9198,2.8717,0.0,0.0,0.0,0.0,0.0,0.0,0.0,0.0,0.0,0.0,0.0,0.0,0.0,0.0,0.0,2.7121,0.0,2.587,2.5868,0.0,0.0,0.0,2.5819,2.589,2.6692,2.7189,2.7114,0.0,0.0,2.839,2.8397,2.8417,2.8486,2.909,2.9244,2.8502,2.9059,2.9336,2.875,2.8555,2.8516,2.8789,2.9273,2.9934,3.0605,3.0918,3.0801,3.0801,3.082,3.0859,3.0801,3.0898,3.0859,3.0898,3.0781,3.041,2.8867,2.8574,2.8555,2.8633,2.8633,2.8672,3.5623,3.5639,3.5879,3.6013,3.5973,3.5628,3.5437,3.5334,3.507,3.4955,3.4974,3.4911,3.4762,3.4543,3.4529,3.4644,3.487,3.5062,3.5268,3.5488,3.5507,3.5507,3.5507,3.5507,3.5507,3.5493,3.5451,3.5432,3.5474,3.5201,3.5091,3.5105,3.4639,3.3882,3.2902,3.2748,3.3146,3.4164,3.3938,3.3807,3.3788,3.3707,3.3689,3.3807,3.3533,3.3432,3.3478,3.3331,3.293,3.2364,3.2543,3.1741,2.9787,2.8488,0.0,0.0,0.0,0.0,0.0,0.0,0.0,0.0,0.0,2.5555,2.5035,0.0,2.6344,0.0,2.7826,2.8307,2.758,2.8102,0.0,0.0,2.7663,2.7669,2.7691,2.8455,2.873,2.8047,2.8764,2.9296,2.9277,2.9297,2.9551,3.0156,2.9294,2.8763,2.9207,2.9443,2.9781,3.0137,3.0215,3.0293,3.0234,3.0449,3.0625,3.0859,3.0918,3.0918,3.0918,3.0918,3.0918,3.0918,3.0918,3.0918,3.0918,3.0918,3.0801,3.0371,3.0273,3.0293,3.0273,3.0273,3.0273,3.7723,3.7747,3.7927,3.8043,3.8037,3.6618,3.5927,3.5783,3.5687,3.5628,3.5584,3.5526,3.5507,3.5507,3.5507,3.5507,3.5507,3.5507,3.5507,3.5507,3.5507,3.5507,3.5507,3.5507,3.5507,3.5507,3.5507,3.5507,3.5507,3.5507,3.5507,3.5493,3.5354,3.5009,3.4451,3.4017,3.4036,3.4467,3.4302,3.4208,3.4208,3.4208,3.3998,3.361,3.3582,3.3368,3.2948,3.293,3.2711,3.2293,3.3239,3.2717,3.0386,3.024,2.9259,0.0,0.0,0.0,0.0,0.0,0.0,0.0,0.0,0.0,0.0,0.0,2.6893,2.6986,2.8326,2.8897,2.8158,2.8555,2.8845,2.8879,2.8884,2.9012,2.941,2.9898,2.9995,2.9527,2.9882,3.0176,3.0176,3.0176,3.0332,3.084,3.0078,2.9628,3.0055,3.0191,3.0368,3.082,3.0918,3.0918,3.0918,3.0918,3.0918,3.0918,3.0918,3.0918,3.0918,3.0918,3.0918,3.0918,3.0918,3.0918,3.0918,3.0918,3.0918,3.0918,3.0918,3.0918,3.0918,3.0918,3.0918,4.0492,4.0496,4.0496,4.0597,4.0535,3.7769,3.6442,3.6209,3.6092,3.5959,3.5815,3.5853,3.5815,3.5738,3.5795,3.5834,3.5834,3.5699,3.5628,3.5647,3.5532,3.5507,3.5507,3.5507,3.5507,3.5507,3.5507,3.5507,3.5507,3.5507,3.5507,3.5507,3.5507,3.5493,3.5432,3.5016,3.4634,3.4269,3.4572,3.4714,3.4674,3.4579,3.4143,3.3342,3.3185,3.2753,3.196,3.1858,3.1815,3.1883,3.2927,3.2727,3.0993,3.1517,3.0895,0.0,2.7769,0.0,0.0,0.0,0.0,0.0,0.0,0.0,0.0,2.7565,2.772,2.7942,2.872,2.8985,2.8449,2.8424,2.8793,2.9663,2.9765,3.0072,3.0801,3.0918,3.0918,3.0918,3.0918,3.0918,3.0879,3.0918,3.0918,3.0918,3.084,3.0762,3.0879,3.0859,3.0859,3.0918,3.0918,3.0918,3.0918,3.0918,3.0918,3.0918,3.0918,3.0918,3.0918,3.0918,3.0918,3.0918,3.0918,3.0918,3.0918,3.0918,3.0918,3.0918,3.0918,3.0918,3.0918,3.0918,3.0918,4.0504,4.0504,4.0504,4.053,4.0511,3.9908,3.8999,3.7925,3.7906,3.7598,3.7101,3.7516,3.7406,3.693,3.7334,3.7526,3.7488,3.6796,3.6469,3.6449,3.5815,3.5507,3.5507,3.5507,3.5507,3.5507,3.5507,3.5507,3.5507,3.5507,3.5507,3.5507,3.5507,3.5403,3.5207,0.0,0.0,0.0,3.4832,3.4851,3.4614,3.3911,3.3475,3.3285,3.2605,0.0,3.1991,3.1977,3.196,3.1965,3.2108,0.0,0.0,0.0,0.0,0.0,0.0,0.0,0.0,0.0,0.0,0.0,2.9285,2.8688,2.7468,2.7535,2.803,2.8787,2.9079,2.9467,3.007,3.0185,3.0327,3.0604,3.0644,3.0722,3.0898,3.0918,3.0918,3.0918,3.0918,3.0918,3.0918,3.0918,3.0918,3.0918,3.0918,3.0918,3.0918,3.0918,3.0918,3.0918,3.0918,3.0918,3.0918,3.0918,3.0918,3.0918,3.0918,3.0918,3.0918,3.0918,3.0918,3.0918,3.0918,3.0918,3.0918,3.0918,3.0918,3.0918,3.0918,3.0918,3.0918,3.0918,3.0918,4.0489,0.0,4.0489,4.0489,0.0,4.0489,4.014,3.9485,3.8717,3.8049,3.7474,3.8006,3.8194,3.8137,3.8142,3.8142,3.8123,3.768,3.7483,3.7459,3.7041,3.6829,3.6848,3.6757,3.6738,3.6757,3.6796,3.6829,3.6848,3.6881,3.6895,3.6876,3.6895,3.682,3.6673,3.682,3.63,3.5124,3.5187,3.5171,3.5051,3.4598,3.4163,3.371,3.3257,0.0,0.0,0.0,0.0,0.0,0.0,0.0,0.0,0.0,0.0,3.2481,3.1988,3.1705,3.1615,3.1254,3.1197,3.1539,3.1385,3.056,2.8865,2.9309,2.9682,2.9733,2.9771,2.9982,3.0498,3.0601,3.0687,3.0781,3.0879,3.0918,3.0918,3.0918,3.0918,3.0918,3.0918,3.0918,3.0918,3.0918,3.0918,3.0918,3.0918,3.0918,3.0918,3.0918,3.0918,3.0918,3.0918,3.0918,3.0918,3.0918,3.0898,3.0918,3.0918,3.0918,3.0918,3.0918,3.0918,3.0918,3.0918,3.0918,3.0918,3.0918,3.0918,3.0918,3.0918,3.0918,3.0918,3.0918,3.0918,4.0507,4.0507,4.0502,4.0499,4.0499,4.0508,4.0585,4.0607,0.0,0.0,0.0,3.8561,3.9007,3.9437,3.8968,3.8755,3.8736,3.8601,3.8518,3.8505,3.8318,3.8207,3.8195,3.8118,3.8046,3.8065,3.8176,3.8207,3.8218,3.826,3.8272,3.8252,3.8252,3.8233,3.8233,3.8252,3.7486,3.6021,3.5824,3.5776,3.5757,3.5474,3.4932,3.4184,3.3983,3.3566,3.2775,3.2684,3.2656,3.2593,3.1253,3.1194,3.2797,3.4538,3.4783,3.3268,3.3115,3.335,3.3895,3.3306,3.3194,3.3732,3.3371,3.2409,3.0757,3.1411,3.1614,3.0891,3.0852,3.0871,3.0948,3.0857,3.0872,3.0918,3.0918,3.0918,3.0918,3.0918,3.0918,3.0918,3.0918,3.0918,3.0918,3.0918,3.0884,3.0879,3.0859,3.087,3.0834,3.084,3.0859,3.084,3.084,3.084,3.084,3.084,3.0836,3.084,3.0859,3.0859,3.0859,3.0879,3.0898,3.0918,3.0918,3.0918,3.0918,3.0918,3.0918,3.0918,3.0918,3.0918,3.0918,3.0918,3.0918,4.0479,4.0501,4.05,4.0501,4.0501,4.0502,4.0585,4.0669,4.0519,4.0526,4.0676,4.0503,4.062,4.0884,4.0604,4.044,4.0382,3.9712,3.9401,3.9371,3.863,3.8287,3.8272,3.8272,3.8257,3.8257,3.8291,3.8239,3.8207,3.8217,3.816,3.8081,3.8044,3.8062,3.8063,3.8042,3.7906,3.7652,3.7094,3.6785,3.6747,3.5321,3.4496,3.4347,3.3662,3.3182,3.2962,3.2976,3.2881,3.2799,3.3025,3.3393,3.3868,3.4928,3.5379,3.5105,3.5081,3.5124,3.5206,3.5124,3.511,3.5187,3.5129,3.4299,3.2477,3.2563,3.266,3.2545,3.2468,3.2583,3.2608,3.2058,3.1748,3.1758,3.1269,3.0918,3.0996,3.1016,3.1016,3.1035,3.0918,3.0976,3.1055,3.1034,3.0975,3.0811,3.0798,3.072,3.0665,3.0676,3.0699,3.0658,3.0653,3.0633,3.0653,3.0653,3.0672,3.0653,3.0721,3.0742,3.0723,3.0801,3.0879,3.0898,3.0898,3.0898,3.0898,3.0918,3.0898,3.0879,3.0879,3.0898,3.0898,3.0898,3.0918,3.9702,3.994,3.9671,3.9724,4.0011,4.0002,4.0139,4.0362,4.0404,4.0642,4.0955,4.0849,4.0857,4.0972,4.0851,4.0799,4.078,4.0409,4.0252,4.0233,3.9805,3.9584,3.9587,3.9519,3.9487,3.9507,3.9565,3.9579,3.957,3.9597,3.9565,3.9527,3.9537,3.9518,3.9518,3.9518,3.9537,3.9555,3.824,3.7559,3.752,3.6767,3.6125,3.5652,3.523,3.4831,3.4429,3.4409,3.438,3.4364,3.4548,3.476,3.4913,3.5292,3.5498,3.5507,3.5507,3.5507,3.5507,3.5545,3.5545,3.5507,3.5526,3.5191,3.4261,3.3838,3.3403,3.2968,3.2891,3.2942,3.3051,3.2781,3.2645,3.27,3.2416,3.2266,3.2266,3.2266,3.2246,3.2266,3.2266,3.2246,3.2207,3.221,3.1931,3.1478,3.1023,3.067,3.0598,3.0586,3.0609,3.0617,3.0616,3.0616,3.0597,3.0616,3.0616,3.0616,3.0622,3.0637,3.063,3.0707,3.0726,3.0726,3.0746,3.0746,3.0746,3.0723,3.0726,3.0726,3.0726,3.0757,3.0781,3.084,3.0898,3.8567,3.933,3.8902,3.8977,3.9411,3.9538,3.9735,3.9982,3.9983,4.0234,4.0569,4.0726,4.0777,4.0791,4.0801,4.0801,4.0801,4.0801,4.0801,4.0791,4.0727,4.0731,4.0719,4.0608,4.0574,4.0551,4.0608,4.0618,4.0596,4.0577,4.0553,4.055,4.053,4.055,4.053,4.053,4.0588,4.0564,3.9141,3.8419,3.8584,3.8272,3.773,3.7125,3.7047,3.6689,3.5966,3.5903,3.5827,3.5688,3.5585,3.5553,3.5617,3.5565,3.5545,3.5545,3.5545,3.5545,3.5526,3.5565,3.5565,3.5507,3.5565,3.5565,3.5468,3.4922,3.4249,3.3641,3.3583,3.3622,3.3712,3.3596,3.3539,3.3581,3.3458,3.3301,3.3379,3.3379,3.3375,3.338,3.3389,3.3309,3.3304,3.3288,3.2928,3.2213,3.1535,3.1133,3.1064,3.0929,3.0794,3.0775,3.0679,3.0556,3.0544,3.0537,3.0556,3.0564,3.0556,3.0559,3.0568,3.0586,3.0625,3.0625,3.0625,3.0625,3.0625,3.0625,3.0625,3.0625,3.0625,3.0619,3.0664,3.0762,3.0859,3.7039,3.8635,3.8627,3.8732,3.8809,3.9344,3.9557,3.9622,3.9645,3.9781,3.9984,4.0496,4.0658,4.0723,4.0742,4.0761,4.0761,4.0795,4.0761,4.0761,4.0795,4.0791,4.0733,4.0761,4.0761,4.0714,4.0499,4.0292,4.0175,3.9974,3.983,3.9705,3.9709,3.9709,3.9709,3.969,3.9785,3.9996,3.9627,3.9795,4.0314,3.9008,3.8224,3.8147,3.8141,3.7726,3.6809,3.6774,3.6426,3.57,3.5619,3.564,3.5682,3.5694,3.568,3.5674,3.5674,3.5641,3.5603,3.5526,3.5526,3.5507,3.5565,3.5584,3.5597,3.5578,3.5507,3.5276,3.5295,3.5264,3.5411,3.4859,3.4468,3.4465,3.3946,3.3379,3.3496,3.3379,3.3367,3.3304,3.3503,3.3307,3.3422,3.3323,3.3146,3.2891,3.2545,3.234,3.2288,3.1892,3.1469,3.1385,3.0975,3.0494,3.0436,3.0417,3.0436,3.0448,3.0487,3.0491,3.0497,3.0505,3.059,3.0439,3.0532,3.0502,3.0543,3.0609,3.0571,3.0505,3.0516,3.0588,3.0614,3.0642,3.0715,3.6101,3.6863,3.6847,3.7255,3.7794,3.8077,3.8266,3.8405,3.8435,3.857,3.8831,3.9071,3.9418,3.9888,4.0022,4.0099,4.0099,4.0099,4.008,4.008,4.0099,4.008,4.008,4.0099,4.0099,4.0059,3.9647,3.9439,3.9327,3.8997,3.8757,3.8729,3.8711,3.8711,3.8692,3.8711,3.9036,3.9695,3.9063,3.8678,3.8676,3.8912,3.8823,3.8366,3.8489,3.8228,3.7483,3.7522,3.724,3.6514,3.6391,3.613,3.5657,3.5644,3.5635,3.5635,3.5669,3.5684,3.5655,3.5699,3.5699,3.5622,3.5699,3.5759,3.565,3.5689,3.5725,3.5753,3.5701,3.5706,3.5772,3.5526,3.5377,3.536,3.5125,3.491,3.4882,3.4866,3.4826,3.4739,3.4704,3.4674,3.4523,3.398,3.3513,3.3242,3.2947,3.2722,3.2499,3.2275,3.1928,3.134,3.089,3.0648,3.0452,3.0398,3.0398,3.0398,3.0417,3.0424,3.0253,3.0221,3.0207,3.0122,3.0104,3.0104,3.0032,3.0075,3.0068,3.0113,3.0305,3.0386,3.0521,3.0578,3.0632,3.4705,3.4994,3.504,3.5479,3.6226,3.6531,3.6847,3.7184,3.7184,3.7431,3.7816,3.7645,3.788,3.8451,3.8936,3.9183,3.9202,3.9183,3.9183,3.9183,3.9183,3.9183,3.9183,3.9202,3.927,3.9279,3.8767,3.8324,3.8041,3.7504,3.7336,3.7492,3.7388,3.737,3.7525,3.7388,3.7821,3.8735,3.7839,3.6928,3.651,3.7626,3.8321,3.8284,3.8596,3.844,3.7732,3.7982,3.7867,3.7233,3.6947,3.6539,3.6043,3.5767,3.5625,3.5639,3.5639,3.5666,3.5666,3.5747,3.5747,3.5659,3.5766,3.5782,3.5696,3.5735,3.5803,3.5861,3.5807,3.5812,3.5891,3.5921,3.595,3.5982,3.5974,3.5931,3.5831,3.5836,3.5714,3.5609,3.5386,3.5507,3.5254,3.459,3.3978,3.3771,3.3411,3.3047,3.2827,3.2824,3.2462,3.1675,3.1261,3.0667,3.0319,3.0174,3.0202,3.0202,3.0174,3.0114,2.9958,2.9924,2.9916,2.9882,2.9742,2.9713,2.9799,2.9769,2.9696,2.9746,2.9886,3.0092,3.0182,3.0311,3.033,3.2463,3.3607,3.3697,3.3724,3.3867,3.4807,3.5574,3.6069,3.6128,3.6554,3.6991,3.6462,3.6191,3.6339,3.7458,3.8102,3.815,3.8071,3.8071,3.8071,3.812,3.815,3.8168,3.8168,3.8394,3.8649,3.7837,3.7059,3.6237,3.5591,3.5566,3.6093,3.5591,3.5591,3.5994,3.5591,3.5958,3.6965,3.5968,3.4813,3.4066,3.4831,3.6255,3.7716,3.8511,3.832,3.7769,3.8041,3.808,3.7686,3.6935,3.6606,3.6812,3.6145,3.5727,3.5691,3.5656,3.5619,3.5614,3.5584,3.5545,3.5546,3.5624,3.5624,3.5644,3.5779,3.5846,3.5888,3.5868,3.5877,3.5935,3.5933,3.5942,3.5911,3.59,3.5828,3.571,3.5681,3.5541,3.5308,3.5223,3.5096,3.4812,3.4734,3.4543,3.4463,3.4504,3.4389,3.4081,3.3689,3.3178,3.2726,3.1804,3.0639,2.9921,2.9744,2.9746,2.9674,2.9636,2.9676,2.9712,2.9712,2.9668,2.9647,2.9531,2.9514,2.9626,2.9683,2.9662,2.9661,2.9678,2.9801,2.9918,2.9782,2.9834,3.1805,3.2251,3.2243,3.225,3.2394,3.3616,3.4267,3.4459,3.4523,3.4634,3.4838,3.4618,3.4523,3.4537,3.4987,3.5565,3.6125,3.6164,3.6164,3.6164,3.6164,3.6164,3.6164,3.6204,3.6554,3.6998,3.6069,3.5138,3.4537,3.4267,3.4267,3.4427,3.4267,3.4267,3.4411,3.4267,3.4415,3.4775,3.4317,3.3551,3.2498,3.3479,3.4526,3.5246,3.6637,3.7452,3.7578,3.8258,3.8305,3.7654,3.7602,3.7528,3.7295,3.6784,3.6228,3.5767,3.5695,3.5658,3.5669,3.564,3.5629,3.5629,3.5648,3.5638,3.5685,3.5728,3.5782,3.5771,3.5767,3.5788,3.5793,3.5807,3.5805,3.5793,3.577,3.5647,3.5451,3.5385,3.5261,3.4965,3.4888,3.4732,3.4464,3.4379,3.4311,3.4141,3.4061,3.3926,3.3729,3.3364,3.2908,3.2202,3.1556,3.0694,2.9377,2.9283,2.9269,2.9072,2.8971,2.8864,2.8861,2.8835,2.8784,2.8915,2.8944,2.9052,2.9097,2.9181,2.9235,2.9378,2.9398,2.938,2.9678,2.9439,2.9514,3.0852,3.0029,3.0493,3.066,3.083,3.1677,3.2252,3.2385,3.2439,3.2547,3.2707,3.2823,3.2855,3.2855,3.2902,3.3264,3.3974,3.4358,3.4625,3.4625,3.4625,3.4609,3.4625,3.4625,3.4908,3.5148,3.407,3.3316,3.3271,3.3024,3.3077,3.3287,3.3077,3.3061,3.3182,3.3024,3.2933,3.2917,3.2917,3.2291,3.1297,3.2222,3.2886,3.3098,3.448,3.5854,3.6827,3.7754,3.82,3.793,3.7905,3.774,3.7385,3.6878,3.6345,3.5832,3.5525,3.5392,3.5372,3.5372,3.5353,3.5372,3.5353,3.5372,3.5392,3.54,3.5432,3.5514,3.5543,3.5546,3.554,3.5507,3.5514,3.5521,3.5534,3.5414,3.5077,3.504,3.4887,3.4591,3.4461,3.4307,3.4099,3.3956,3.3795,3.3634,3.3431,3.3164,3.2991,3.2827,3.2585,3.1824,3.1519,3.0867,2.9844,2.9368,2.8779,2.8517,2.8397,2.8229,2.8144,2.8084,2.8066,2.8185,2.829,2.841,2.8525,2.8644,2.8755,2.8906,2.88,2.8717,2.8883,2.9015,2.9015,2.9519,2.7103,2.828,2.876,2.8726,2.9039,2.9439,2.9995,2.9981,3.0353,3.1006,3.1111,3.1083,3.1273,3.1289,3.1407,3.1747,3.277,3.3296,3.3415,3.3431,3.3431,3.328,3.3348,3.333,3.3295,3.2088,3.1849,3.2281,3.1751,3.1751,3.2256,3.1751,3.1736,3.2461,3.1751,3.1452,3.1524,3.1524,3.0881,3.0098,3.0896,3.1392,3.1387,3.2292,3.3574,3.5234,3.6452,3.7363,3.7954,3.7484,3.7109,3.7033,3.6521,3.5977,3.583,3.5225,3.4809,3.4753,3.4773,3.4793,3.4793,3.4753,3.4812,3.4832,3.4869,3.4969,3.5139,3.52,3.5189,3.5188,3.5143,3.5136,3.5188,3.5188,3.5059,3.4791,3.4693,3.4551,3.4218,3.3968,3.3815,3.3689,3.3458,3.3225,3.3118,3.2822,3.2548,3.2466,3.2415,3.2433,3.219,3.1532,3.0681,3.0058,2.9451,2.8631,2.7971,2.7858,2.7723,2.7677,2.7637,2.7572,2.7664,2.777,2.7893,2.8147,2.8228,2.8075,2.8157,2.8039,2.8066,2.8129,2.8224,2.8218,2.7464,2.6394,2.5487,2.5246,2.5394,2.6514,2.7511,2.817,2.7666,2.8193,2.9184,2.8257,2.8425,2.933,2.9066,2.9143,2.9799,3.0288,3.0749,3.1245,3.1302,3.1056,3.0675,3.1071,3.1028,3.0358,2.9567,2.9478,2.9986,2.9922,2.9922,3.0029,2.9922,2.986,3.0136,2.9875,2.996,3.0254,2.9988,2.9378,2.8747,2.9359,2.9735,2.9907,3.0967,3.2041,3.26,3.427,3.5547,3.6319,3.6372,3.663,3.6979,3.708,3.671,3.597,3.5692,3.5241,3.4769,3.4674,3.4634,3.4674,3.4674,3.4694,3.4694,3.4695,3.4756,3.485,3.4851,3.4849,3.4869,3.4831,3.4793,3.4831,3.4831,3.4691,3.4334,3.4208,3.3935,3.3579,3.3429,3.3273,3.3014,3.2763,3.2713,3.2631,3.2264,3.1986,3.1951,3.1679,3.1397,3.1043,3.0605,3.0319,2.9587,2.8786,2.7981,2.7369,2.7195,2.7,2.7031,2.7049,2.6982,2.7031,2.7135,2.731,2.7607,2.7643,2.743,2.746,2.7531,2.7484,2.7425,2.7412,2.737,2.4956,2.4167,2.2925,2.2428,2.2612,2.433,2.5477,2.5903,2.5395,2.5834,2.6553,2.607,2.6261,2.7209,2.709,2.7367,2.7891,2.7643,2.7774,2.842,2.9538,2.9442,2.9093,2.9519,2.9093,2.7876,2.6895,2.6922,2.7864,2.7956,2.7956,2.7956,2.7891,2.7943,2.7891,2.7969,2.8101,2.8338,2.8074,2.7603,2.7157,2.7578,2.7723,2.7709,2.9031,2.9808,3.0016,3.1477,3.3174,3.4708,3.5651,3.6302,3.671,3.683,3.6541,3.5707,3.5151,3.4689,3.4012,3.3808,3.3883,3.3895,3.4046,3.4134,3.4162,3.4242,3.4375,3.4508,3.4383,3.4278,3.4278,3.4106,3.3993,3.3864,3.412,3.4048,3.3713,3.3579,3.339,3.3105,3.2934,3.2777,3.2583,3.2316,3.2144,3.1934,3.1517,3.106,3.096,3.0673,3.0318,3.0081,3.0009,2.9561,2.8925,2.8132,2.7281,2.6805,2.648,2.6214,2.6073,2.6073,2.6073,2.6057,2.6158,2.6193,2.6404,2.6539,2.6455,2.6687,2.6768,2.6505,2.6285,2.6421,2.6438,2.2304,2.0665,2.0477,2.0414,2.0602,2.2347,2.3239,2.3345,2.3345,2.3492,2.3845,2.4186,2.4578,2.4919,2.5428,2.5735,2.5803,2.5338,2.5095,2.5721,2.7181,2.8231,2.8322,2.8317,2.7496,2.5983,2.4466,2.4558,2.5952,2.5965,2.6008,2.5965,2.5977,2.594,2.5965,2.594,2.6045,2.6189,2.6058,2.5566,2.4813,2.5566,2.5647,2.5013,2.6518,2.7511,2.7857,2.8941,3.085,3.3717,3.511,3.5828,3.5943,3.5913,3.5632,3.4977,3.4128,3.3573,3.2879,3.278,3.2727,3.2782,3.3067,3.3186,3.3263,3.3533,3.375,3.3914,3.371,3.3533,3.346,3.3257,3.2895,3.2642,3.3158,3.3216,3.2677,3.2934,3.2903,3.2583,3.2451,3.2384,3.223,3.1844,3.1425,3.0915,3.0542,3.0159,2.9859,2.9745,2.9496,2.9361,2.9361,2.9039,2.8434,2.7701,2.6904,2.6264,2.5835,2.5425,2.5303,2.533,2.5416,2.5379,2.5214,2.5198,2.5395,2.5644,2.5644,2.5538,2.5459,2.5205,2.5319,2.5533,2.5753,2.1074,2.0466,1.8871,1.8177,1.8369,1.9656,2.0623,2.1207,2.1354,2.2113,2.2988,2.2232,2.2488,2.3677,2.3279,2.3475,2.3765,2.38,2.3834,2.3906,2.447,2.5341,2.577,2.5761,2.5207,2.4103,2.3232,2.3255,2.4126,2.4209,2.4209,2.4221,2.4126,2.4137,2.4149,2.4137,2.4469,2.479,2.4362,2.3781,2.3268,2.3731,2.4089,2.4039,2.4873,2.5834,2.6659,2.8159,2.9883,3.191,3.383,3.4769,3.4827,3.5263,3.5263,3.4792,3.453,3.4076,3.3333,3.2734,3.2481,3.25,3.2601,3.2681,3.2683,3.2764,3.2901,3.2943,3.2816,3.2769,3.2769,3.2624,3.2398,3.2144,3.2345,3.261,3.2533,3.2583,3.2517,3.2092,3.2021,3.1679,3.1133,3.0818,3.0476,2.9999,2.9713,2.954,2.9225,2.9164,2.9042,2.8826,2.8685,2.84,2.7992,2.7267,2.6517,2.5833,2.5196,2.4551,2.4605,2.4789,2.4946,2.5086,2.4595,2.4436,2.4918,2.5303,2.5012,2.444,2.4697,2.4736,2.4776,2.4996,2.5189,2.0622,2.0426,1.8249,1.675,1.6253,1.762,1.8603,1.9052,1.9158,1.9778,2.0449,1.9778,1.9866,2.0738,2.0294,2.0294,2.0814,2.0891,2.0814,2.0804,2.0871,2.1912,2.325,2.3812,2.3475,2.2349,2.1847,2.1933,2.2242,2.2274,2.2264,2.2167,2.1855,2.1866,2.2253,2.179,2.2046,2.2486,2.2056,2.1359,2.0871,2.1283,2.1532,2.191,2.2815,2.4068,2.5217,2.6878,2.8766,3.0675,3.2235,3.315,3.3623,3.4121,3.4267,3.3912,3.3609,3.31,3.2655,3.2001,3.1743,3.1934,3.2073,3.2213,3.2239,3.236,3.2512,3.2533,3.2109,3.2004,3.2092,3.1862,3.1497,3.121,3.1181,3.1408,3.1861,3.2092,3.1844,3.1439,3.115,3.0914,3.0021,2.9951,2.9645,2.9225,2.9073,2.8873,2.8638,2.867,2.8512,2.8143,2.7815,2.7449,2.7047,2.6373,2.5579,2.4927,2.4112,2.352,2.3466,2.3753,2.3953,2.4009,2.3816,2.3762,2.4109,2.4164,2.3661,2.3447,2.3971,2.4194,2.4168,2.4138,2.4384,2.0105,1.9769,1.7775,1.5828,1.4674,1.6215,1.7172,1.7172,1.7496,1.7577,1.7649,1.7415,1.773,1.7342,1.7963,1.7496,1.7568,1.7963,1.773,1.7802,1.8035,1.9113,2.1171,2.2085,2.1788,2.0624,2.0304,2.0285,2.045,2.0459,2.0226,2.0051,1.9344,1.9432,1.9963,1.9423,1.9571,2.0445,1.9781,1.8744,1.8435,1.8912,1.9571,1.9875,2.1415,2.2624,2.3647,2.5141,2.7056,2.9579,3.0617,3.1687,3.2391,3.2585,3.278,3.2606,3.2224,3.1727,3.1298,3.0833,3.0465,3.0903,3.1353,3.1583,3.1531,3.1742,3.1968,3.1765,3.1266,3.1065,3.1198,3.0697,3.0385,3.0234,2.9816,3.0021,3.0764,3.1321,3.1193,3.0402,3.0251,2.9935,2.954,2.9271,2.9088,2.8543,2.8352,2.8158,2.7864,2.7665,2.75,2.7195,2.6849,2.6428,2.5962,2.5441,2.4637,2.3788,2.2873,2.2255,2.1957,2.2161,2.2507,2.2637,2.2793,2.2775,2.2799,2.2637,2.2363,2.2455,2.2922,2.3128,2.3216,2.3172,2.3317,1.705,1.5419,1.5003,1.4496,1.4303,1.5442,1.6026,1.6108,1.6935,1.7098,1.7261,1.7261,1.718,1.718,1.7098,1.7342,1.7098,1.7098,1.7342,1.7342,1.7342,1.7496,1.8461,1.9234,1.9473,1.8957,1.778,1.7957,1.8841,1.863,1.806,1.806,1.798,1.7819,1.798,1.7989,1.8663,1.9885,1.8663,1.6815,1.6056,1.7654,1.8886,1.9134,2.083,2.1917,2.2431,2.3427,2.4728,2.6504,2.9092,3.0701,3.0867,3.1414,3.186,3.2098,3.176,3.1406,3.1241,3.0324,2.9652,2.9886,3.0344,3.0416,2.9989,3.0521,3.0525,3.0192,2.9859,2.987,2.9956,2.9772,2.9629,2.954,2.9451,2.939,2.9701,2.9919,2.9903,2.9701,2.9585,2.9361,2.8779,2.8685,2.8415,2.7944,2.7645,2.7444,2.7137,2.6774,2.6602,2.6361,2.5932,2.5605,2.5384,2.4792,2.3946,2.2977,2.1995,2.118,2.0893,2.0792,2.1178,2.1595,2.1938,2.1896,2.1941,2.1805,2.1649,2.1805,2.1899,2.2146,2.2331,2.2271,2.2409,1.5126,1.409,1.4088,1.4122,1.4212,1.4692,1.4977,1.5061,1.5553,1.5794,1.5801,1.5801,1.5801,1.5801,1.5801,1.5801,1.5801,1.5794,1.6041,1.6281,1.6124,1.6034,1.6363,1.65,1.691,1.7721,1.696,1.7057,1.7713,1.7577,1.7423,1.718,1.6764,1.6927,1.7098,1.6764,1.7196,1.791,1.7311,1.5688,1.4875,1.6164,1.823,1.885,2.002,2.0771,2.1356,2.2309,2.2984,2.4071,2.6188,2.8253,2.9066,2.9794,3.0462,3.0748,3.0714,3.0416,3.0149,2.9879,2.9478,2.9361,2.971,2.9655,2.9502,2.9716,2.9701,2.9437,2.9202,2.9012,2.895,2.8996,2.8996,2.8919,2.8732,2.8591,2.8638,2.9042,2.9271,2.9088,2.8966,2.8638,2.8319,2.8125,2.7715,2.7225,2.7071,2.6811,2.6254,2.5946,2.5892,2.5605,2.5161,2.4867,2.47,2.4176,2.3328,2.2369,2.1335,2.0614,2.0101,1.9985,1.9991,2.0435,2.0961,2.1256,2.1272,2.1099,2.0988,2.1197,2.1307,2.1438,2.1615,2.1791,2.1946,1.4088,1.4088,1.3724,1.3724,1.4088,1.3913,1.399,1.4166,1.4088,1.4328,1.4173,1.4088,1.4412,1.4166,1.425,1.4173,1.4166,1.425,1.4901,1.5304,1.4734,1.4894,1.5144,1.4992,1.5242,1.6601,1.6032,1.6293,1.674,1.6675,1.6093,1.6437,1.5606,1.553,1.6198,1.5951,1.547,1.5492,1.5492,1.4866,1.4099,1.5101,1.6846,1.8284,1.8713,1.9164,1.9946,2.0781,2.1504,2.1572,2.252,2.4284,2.6198,2.7986,2.8712,2.8821,2.9057,2.9088,2.899,2.8936,2.8969,2.9013,2.9225,2.9163,2.9113,2.9122,2.9108,2.8914,2.8624,2.8383,2.8367,2.8367,2.8383,2.8286,2.791,2.7625,2.766,2.8432,2.8685,2.8511,2.8319,2.8076,2.7695,2.7393,2.693,2.6549,2.639,2.6108,2.5563,2.5161,2.505,2.4768,2.4266,2.3787,2.3559,2.3742,2.289,2.1642,2.0616,2.0105,1.9456,1.9048,1.9016,1.9554,2.0016,2.0169,2.0169,1.994,1.9991,2.0383,2.0633,2.072,2.0988,2.1363,2.1411,1.4088,1.3906,1.1997,1.2269,1.3724,1.3027,1.3118,1.3997,1.3913,1.4082,1.4004,1.4082,1.3913,1.3997,1.4088,1.4088,1.3737,1.3913,1.4082,1.4321,1.3997,1.4328,1.3977,1.4068,1.4237,1.4496,1.4455,1.4851,1.5177,1.426,1.4008,1.421,1.3516,1.36,1.43,1.4321,1.3691,1.3243,1.3691,1.3444,1.325,1.4434,1.6108,1.7471,1.7618,1.7804,1.8108,1.8953,1.9531,1.9618,2.0536,2.1717,2.3304,2.5443,2.6803,2.7643,2.8075,2.8168,2.7722,2.7693,2.7453,2.7373,2.7902,2.8209,2.8136,2.8261,2.8201,2.8016,2.7861,2.776,2.776,2.7645,2.771,2.766,2.7494,2.7255,2.6967,2.7327,2.7815,2.758,2.753,2.7479,2.7019,2.6602,2.6229,2.5892,2.5618,2.5231,2.4667,2.4337,2.4221,2.3813,2.3352,2.2798,2.2359,2.2737,2.2478,2.1092,2.0085,1.9645,1.8977,1.8204,1.8139,1.8468,1.856,1.8584,1.8543,1.8703,1.8915,1.9282,1.9606,1.9927,1.9991,2.0054,2.0281,1.4115,1.3874,1.1566,1.0484,1.059,1.1268,1.1735,1.2254,1.226,1.2254,1.2254,1.2254,1.2254,1.226,1.226,1.226,1.2516,1.3737,1.3385,1.2778,1.3392,1.3307,1.2693,1.2857,1.3118,1.3033,1.2687,1.2936,1.3672,1.2316,1.1906,1.1992,1.1643,1.1729,1.2169,1.2254,1.1901,1.1455,1.1901,1.2328,1.214,1.4028,1.5296,1.6144,1.6522,1.675,1.7351,1.7674,1.8452,1.91,2.0079,2.0771,2.1573,2.2669,2.4366,2.5946,2.7105,2.7373,2.683,2.6851,2.6905,2.6127,2.6614,2.6724,2.6608,2.6667,2.699,2.7071,2.7034,2.7034,2.7049,2.6759,2.6481,2.6481,2.6481,2.6336,2.6108,2.6336,2.6428,2.6587,2.6759,2.6587,2.6147,2.5783,2.5508,2.5231,2.4894,2.4394,2.3839,2.361,2.3454,2.3075,2.2592,2.199,2.1553,2.1717,2.1682,2.0415,1.9576,1.9144,1.8556,1.7804,1.7143,1.7027,1.7016,1.7444,1.7688,1.8058,1.8112,1.8124,1.8489,1.8756,1.865,1.8756,1.9073,1.4097,1.388,1.1075,0.8828,0.7602,0.907,1.0168,1.0524,1.0702,1.0697,1.0611,1.0697,1.0697,1.0611,1.0697,1.0697,1.0783,1.2693,1.2169,1.1472,1.2345,1.226,1.1391,1.1386,1.1986,1.1815,1.0961,1.1042,1.2066,1.0956,1.0524,1.0697,1.0524,1.0438,1.0697,1.0961,1.0524,1.0351,1.0611,1.1209,1.2242,1.3203,1.4237,1.522,1.5351,1.574,1.6281,1.6841,1.7335,1.8353,1.95,2.0464,2.0362,2.0495,2.1807,2.4123,2.5914,2.6057,2.5894,2.6047,2.5991,2.5285,2.5328,2.5438,2.5477,2.5711,2.5772,2.6111,2.6283,2.6283,2.6229,2.5797,2.5563,2.5494,2.5508,2.5412,2.5342,2.5342,2.5273,2.5494,2.5837,2.5673,2.5287,2.5063,2.4838,2.4337,2.4047,2.393,2.3412,2.2962,2.2698,2.2335,2.188,2.1215,2.0846,2.0782,2.0504,1.9609,1.9041,1.871,1.8135,1.7405,1.6927,1.6577,1.6787,1.7222,1.7394,1.7379,1.7368,1.7413,1.7523,1.7688,1.8015,1.807,1.8221,1.409,1.3719,0.9383,0.7295,0.7177,0.749,0.8748,1.0433,1.0351,1.0611,1.0265,1.0438,1.0351,1.0351,1.0438,1.0524,1.0611,1.0961,1.0961,1.0346,1.0956,1.1047,1.0524,1.0692,1.0778,1.0605,0.9666,1.0438,1.1037,0.9923,0.9579,1.0009,0.9488,0.9492,1.0,1.0005,1.0096,0.9405,1.0009,1.1042,1.1986,1.2413,1.3281,1.3984,1.4355,1.453,1.4985,1.5543,1.6079,1.6505,1.8974,1.9866,1.9519,2.0129,2.1064,2.2221,2.3245,2.3862,2.3917,2.4389,2.4754,2.4439,2.4754,2.526,2.5162,2.5111,2.5195,2.5481,2.5508,2.5522,2.5522,2.5412,2.5342,2.5231,2.5063,2.4781,2.4624,2.4553,2.4483,2.4266,2.461,2.461,2.4394,2.4337,2.4176,2.3662,2.3258,2.3198,2.3053,2.2614,2.1725,2.1311,2.098,2.0386,1.9879,1.9814,1.9562,1.8777,1.8598,1.8335,1.795,1.7441,1.7061,1.6829,1.7,1.685,1.6673,1.6649,1.6644,1.6867,1.7173,1.7431,1.7644,1.7611,1.75,1.0912,1.1821,0.8511,0.7071,0.7078,0.7102,0.7643,0.844,0.8619,0.8615,0.8619,0.8615,0.8615,0.879,0.9226,0.9231,0.9052,0.9918,0.9744,0.9309,0.9744,0.9831,0.8965,0.9314,0.9662,0.9314,0.8711,0.8707,0.9396,0.8965,0.8273,0.8532,0.8185,0.8013,0.879,0.8703,0.8356,0.8273,0.8973,0.984,1.0611,1.1558,1.2589,1.3112,1.3737,1.4088,1.4243,1.4489,1.5118,1.5577,1.6897,1.7702,1.8843,1.9967,2.084,2.1145,2.1603,2.223,2.2889,2.2995,2.3143,2.3207,2.3482,2.3531,2.3936,2.4125,2.4341,2.4721,2.4781,2.4781,2.4624,2.4323,2.4163,2.4163,2.4323,2.4163,2.3872,2.3872,2.3754,2.3531,2.3365,2.3531,2.3708,2.3577,2.359,2.3424,2.3053,2.2919,2.2738,2.2457,2.1335,2.0051,1.9846,1.9562,1.9044,1.8721,1.8787,1.8327,1.8327,1.8088,1.7935,1.7578,1.7305,1.7139,1.7244,1.6888,1.624,1.6286,1.6638,1.6778,1.6869,1.7092,1.7222,1.7106,1.7049,0.8128,0.956,0.7815,0.7109,0.7139,0.7139,0.7139,0.7139,0.7228,0.7139,0.7139,0.7228,0.7228,0.7316,0.8017,0.8013,0.7312,0.8965,0.8532,0.8273,0.8444,0.8532,0.8013,0.8101,0.8448,0.8452,0.7749,0.7837,0.7925,0.7665,0.7228,0.7139,0.7401,0.7228,0.7139,0.7312,0.7312,0.7404,0.8017,0.8627,0.9323,1.0869,1.1809,1.2589,1.3379,1.4088,1.4088,1.4166,1.4649,1.4909,1.4817,1.5756,1.7627,1.9549,2.0248,2.0479,2.0615,2.1187,2.1741,2.1889,2.1867,2.1897,2.1893,2.2077,2.2763,2.2797,2.3072,2.3943,2.4002,2.4002,2.3884,2.3471,2.3412,2.3365,2.3305,2.3185,2.3125,2.3292,2.3412,2.3305,2.3125,2.2932,2.2992,2.2871,2.2884,2.3065,2.2932,2.264,2.2176,2.1682,2.0632,1.9201,1.9013,1.8854,1.8529,1.8134,1.8008,1.8008,1.8008,1.7988,1.792,1.7891,1.7744,1.7627,1.7519,1.7393,1.7061,1.6894,1.6719,1.674,1.6765,1.677,1.6747,1.6694,1.6772,0.7143,0.7316,0.7224,0.7136,0.7139,0.7139,0.7139,0.7139,0.7139,0.7139,0.7139,0.7139,0.7139,0.7139,0.7316,0.7316,0.7139,0.7224,0.7312,0.7312,0.7224,0.7489,0.7228,0.7312,0.7401,0.7401,0.7139,0.7228,0.7228,0.7401,0.7139,0.7139,0.7139,0.7139,0.7139,0.7139,0.7139,0.7139,0.7404,0.7929,0.8798,1.0009,1.1037,1.2157,1.3209,1.4082,1.4082,1.3906,1.4088,1.4375,1.4237,1.4601,1.6574,1.8391,1.9084,1.9347,1.9913,2.0478,2.0727,2.0845,2.0952,2.103,2.1009,2.106,2.1854,2.1961,2.2321,2.2932,2.3053,2.3173,2.3185,2.3125,2.3065,2.2884,2.2763,2.2823,2.2823,2.2884,2.3005,2.3065,2.2944,2.2628,2.2249,2.2125,2.2125,2.2249,2.2039,2.1756,2.0728,2.0156,1.9454,1.8586,1.8327,1.8202,1.8134,1.8008,1.8008,1.8008,1.8008,1.8008,1.7988,1.7978,1.7959,1.792,1.7793,1.7852,1.7822,1.7432,1.709,1.6772,1.6724,1.7012,1.7061,1.708,1.6957,0.7139,0.7139,0.7139,0.7139,0.7139,0.7139,0.7139,0.7139,0.7139,0.7139,0.7139,0.7139,0.7139,0.7139,0.7139,0.7139,0.7139,0.7139,0.7139,0.7139,0.7139,0.7139,0.7139,0.7139,0.7139,0.7139,0.7139,0.7139,0.7139,0.7139,0.7139,0.7139,0.7139,0.7139,0.7139,0.7139,0.7139,0.7139,0.7139,0.7404,0.7841,0.8886,0.9753,1.0183,1.13,1.231,1.2796,1.2923,1.3372,1.3822,1.4004,1.465,1.5274,1.6605,1.7327,1.7997,1.9027,1.952,1.9759,1.9932,2.0216,2.0228,2.0117,2.0191,2.091,2.07,2.0816,2.1365,2.2125,2.231,2.2384,2.275,2.2957,2.258,2.2384,2.2384,2.2384,2.2384,2.2506,2.2494,2.2372,2.2187,2.1815,2.1428,2.1428,2.1416,2.1152,2.0737,1.9727,1.9089,1.8649,1.8337,1.8076,1.8008,1.8008,1.8008,1.8008,1.8008,1.8008,1.8008,1.8008,1.8008,1.7988,1.8008,1.8008,1.7969,1.7871,1.7705,1.751,1.7353,1.7402,1.7578,1.7549,1.7432,1.7373,0.7139,0.7139,0.7139,0.7139,0.7139,0.7139,0.7139,0.7139,0.7139,0.7139,0.7139,0.7139,0.7139,0.7139,0.7139,0.7139,0.7139,0.7139,0.7139,0.7139,0.7139,0.7139,0.7139,0.7139,0.7139,0.7139,0.7139,0.7139,0.7139,0.7139,0.7139,0.7139,0.7139,0.7139,0.7139,0.7139,0.7139,0.7139,0.7139,0.7139,0.7316,0.8281,0.8978,0.9235,1.0269,1.1026,1.1605,1.1798,1.2157,1.2875,1.3496,1.4166,1.4525,1.4885,1.5531,1.6643,1.7819,1.8559,1.9085,1.9354,1.9624,1.9512,1.9168,1.9407,1.9759,1.9681,1.9954,2.0655,2.1239,2.1491,2.1553,2.1865,2.199,2.1553,2.1491,2.1491,2.1491,2.1553,2.1741,2.1928,2.1678,2.1353,2.0655,2.0204,2.0204,2.0257,2.0257,1.9868,1.9069,1.8583,1.8479,1.8202,1.8008,1.8008,1.8008,1.8008,1.8008,1.8008,1.8008,1.8008,1.8008,1.8008,1.8008,1.8008,1.8008,1.8008,1.7939,1.7832,1.7881,1.7939,1.793,1.7852,1.7852,1.7744,1.7812,0.7139,0.7139,0.7139,0.7139,0.7139,0.7139,0.7139,0.7139,0.7139,0.7139,0.7139,0.7139,0.7139,0.7139,0.7139,0.7139,0.7139,0.7139,0.7139,0.7139,0.7139,0.7139,0.7139,0.7139,0.7139,0.7139,0.7139,0.7139,0.7139,0.7139,0.7139,0.7139,0.7139,0.7139,0.7139,0.7139,0.7139,0.7139,0.7139,0.7139,0.7316,0.8105,0.854,0.8886,0.9492,1.0077,1.0529,1.0605,1.088,1.144,1.2924,1.3417,1.3002,1.4796,1.5545,1.5779,1.6764,1.7819,1.8903,1.9146,1.9073,1.8931,1.8755,1.8718,1.9193,1.9266,1.9318,1.9901,2.0462,2.059,2.0655,2.0719,2.0846,2.0655,2.0655,2.0643,2.0632,2.0655,2.0846,2.121,2.0805,2.0333,1.9431,1.8854,1.8911,1.9034,1.9233,1.8977,1.8395,1.8202,1.8202,1.8134,1.8008,1.8008,1.8008,1.8008,1.8008,1.8008,1.8008,1.8008,1.8008,1.8008,1.8008,1.8018,1.8008,1.8008,1.8008,1.7988,1.8008,1.8008,1.8008,1.7969,1.7998,1.8008,1.8008,0.7139,0.7139,0.7139,0.7139,0.7139,0.7139,0.7139,0.7139,0.7139,0.7139,0.7139,0.7139,0.7139,0.7139,0.7143,0.7143,0.7139,0.7139,0.7139,0.7139,0.7139,0.7139,0.7139,0.7139,0.7139,0.7139,0.7139,0.7139,0.7139,0.7139,0.7139,0.7139,0.7139,0.7139,0.7139,0.7139,0.7139,0.7139,0.7139,0.7139,0.7143,0.7492,0.7753,0.7749,0.8273,0.8807,0.9358,0.9423,0.9694,1.0343,1.2003,1.2437,1.2413,1.4132,1.4748,1.4894,1.5711,1.709,1.8285,1.8914,1.8854,1.8739,1.8672,1.8429,1.8514,1.8474,1.8647,1.8942,1.9497,1.9628,1.9759,2.0333,2.0462,1.9879,1.9738,1.9771,1.976,1.9738,1.989,2.0303,2.026,1.9462,1.8654,1.8462,1.8395,1.8395,1.8654,1.8586,1.8134,1.8076,1.8076,1.8076,1.8008,1.8008,1.8018,1.8086,1.8105,1.8115,1.8066,1.8008,1.8008,1.8086,1.7988,1.7927,1.7959,1.8008,1.7929,1.7918,1.7988,1.8008,1.7881,1.7881,1.8008,1.8008,1.8008,0.7153,0.7153,0.7153,0.7156,0.7156,0.7146,0.7139,0.7139,0.7139,0.7143,0.7149,0.7153,0.7153,0.7153,0.7153,0.7146,0.7143,0.7139,0.7139,0.7139,0.7139,0.7139,0.7139,0.7139,0.7139,0.7139,0.7139,0.7139,0.7139,0.7139,0.7139,0.7139,0.7139,0.7139,0.7139,0.7139,0.7139,0.7139,0.7139,0.7139,0.7139,0.7228,0.7139,0.7228,0.7316,0.7503,0.8044,0.84,0.8656,0.956,1.0574,1.1364,1.2072,1.3033,1.3913,1.4412,1.522,1.6437,1.7243,1.8056,1.8053,1.8143,1.8389,1.8368,1.8096,1.8105,1.8095,1.8269,1.8596,1.8787,1.9044,1.9694,1.9562,1.8911,1.89,1.8926,1.8936,1.8977,1.8988,1.9404,1.9414,1.8627,1.8202,1.8134,1.8134,1.8076,1.8076,1.8027,1.8047,1.8057,1.8076,1.8076,1.8076,1.8086,1.8144,1.8232,1.8242,1.8232,1.8271,1.832,1.8267,1.8337,1.8113,1.7797,1.7456,1.727,1.7685,1.7858,1.7773,1.7631,1.7449,1.7567,1.7949,1.793,1.7862,0.7088,0.7088,0.7088,0.7091,0.7098,0.6887,0.6871,0.7054,0.7143,0.7068,0.7088,0.69,0.6263,0.6539,0.6811,0.7074,0.7153,0.7146,0.7146,0.7146,0.7149,0.7146,0.7146,0.7143,0.7143,0.7139,0.7139,0.7139,0.7139,0.7139,0.7139,0.7139,0.7139,0.7139,0.7139,0.7139,0.7139,0.7139,0.7139,0.7139,0.7139,0.7139,0.7139,0.7139,0.7143,0.7231,0.7411,0.7408,0.7408,0.8109,0.9309,1.0178,1.1305,1.2778,1.3561,1.4328,1.5144,1.5545,1.6101,1.6855,1.715,1.7278,1.7862,1.805,1.8086,1.793,1.8008,1.8008,1.8202,1.8134,1.8269,1.8337,1.8327,1.8202,1.8202,1.8192,1.8192,1.8202,1.8202,1.8289,1.8357,1.8076,1.8076,1.8008,1.8057,1.8057,1.8096,1.8203,1.8213,1.8193,1.8203,1.8213,1.8213,1.8193,1.8291,1.8535,1.8603,1.8672,1.8857,1.8955,1.8822,1.8585,1.8284,1.7723,1.6721,1.6747,1.7815,1.784,1.7316,1.7251,1.7303,1.7237,1.7555,1.7598,1.7638,0.7098,0.7098,0.7098,0.7098,0.6828,0.5272,0.5539,0.6996,0.7088,0.7091,0.7005,0.5277,0.4196,0.2315,0.5458,0.6637,0.6999,0.7088,0.7088,0.6992,0.6713,0.6986,0.7071,0.7149,0.7143,0.7143,0.7143,0.7143,0.7139,0.7139,0.7143,0.7139,0.7139,0.7139,0.7139,0.7139,0.7139,0.7139,0.7139,0.7139,0.7139,0.7139,0.7139,0.7139,0.7139,0.7139,0.7139,0.7139,0.7139,0.7489,0.8623,0.941,0.9579,1.1563,1.3027,1.4004,1.4489,1.481,1.5538,1.5944,1.6215,1.6493,1.7054,1.7203,1.7379,1.7618,1.789,1.7959,1.8018,1.8008,1.8008,1.8008,1.8008,1.8008,1.8008,1.8008,1.8008,1.8008,1.8008,1.8008,1.8008,1.8008,1.8008,1.8096,1.8135,1.8135,1.8213,1.8369,1.8457,1.8457,1.8467,1.8486,1.8564,1.8623,1.8809,1.9043,1.9072,1.9141,1.9336,1.9443,1.9248,1.895,1.8467,1.7685,1.6691,1.7281,1.8654,1.8183,1.716,1.7374,1.7423,1.7251,1.7092,1.7073,1.7338,0.7118,0.6844,0.5018,0.4297,0.4208,0.3851,0.4486,0.557,0.5741,0.6103,0.6844,0.5744,0.3127,0.0803,0.2949,0.4565,0.5552,0.546,0.546,0.5458,0.5727,0.6364,0.6716,0.6982,0.7068,0.7068,0.7068,0.7068,0.7061,0.7061,0.7153,0.7139,0.7139,0.7139,0.7139,0.7139,0.7139,0.7139,0.7139,0.7139,0.7139,0.7139,0.7139,0.7139,0.7139,0.7139,0.7139,0.7139,0.7139,0.7234,0.8292,0.8911,0.9331,1.1042,1.2857,1.3822,1.4166,1.4412,1.4901,1.4977,1.5337,1.5642,1.5982,1.6426,1.6826,1.7243,1.7671,1.788,1.7979,1.8008,1.8008,1.8008,1.8008,1.8008,1.8008,1.8008,1.8008,1.8008,1.8008,1.8008,1.8008,1.8008,1.8057,1.8164,1.8291,1.8408,1.8603,1.8828,1.8896,1.8896,1.8896,1.8906,1.9023,1.9141,1.9336,1.9482,1.9521,1.9619,1.9853,1.9902,1.9756,1.9212,1.8531,1.7569,1.6554,1.7381,1.8154,1.7743,1.7072,1.7149,1.6843,1.6288,1.6054,1.6297,1.6685,0.6496,0.6039,-0.0,-0.0,0.0358,0.2336,0.3241,0.3331,0.3314,0.448,0.5944,0.6311,0.3588,-0.0,-0.0,-0.0,0.2862,0.3309,0.3309,-0.0,0.3303,0.4022,0.5282,0.6634,0.6539,0.6903,0.6996,0.6808,0.6719,0.69,0.7074,0.7146,0.7149,0.7153,0.7153,0.7153,0.7153,0.7068,0.7149,0.7146,0.7143,0.7139,0.7139,0.7139,0.7139,0.7139,0.7139,0.7139,0.7139,0.7507,0.7955,0.8576,0.9602,1.0529,1.2169,1.3379,1.3646,1.399,1.4243,1.4412,1.4328,1.4539,1.4639,1.5526,1.6146,1.6915,1.741,1.8006,1.8164,1.8037,1.8008,1.8008,1.8008,1.8008,1.8008,1.8008,1.8008,1.8008,1.8008,1.8047,1.8174,1.8184,1.8281,1.8418,1.8682,1.8779,1.9004,1.9277,1.9375,1.9375,1.9355,1.9365,1.9561,1.9687,1.9717,1.9853,1.9941,2.0098,2.0273,2.0342,2.0195,1.9425,1.855,1.7635,1.6714,1.6693,1.6957,1.6755,1.6499,1.6095,1.5668,1.499,1.5017,1.552,1.6063,0.1706,0.1616,0.0449,-0.0,-0.0,0.0629,-0.0,0.0899,0.0898,-0.0,-0.0,-0.0,-0.0,-0.0,-0.0,-0.0,-0.0,-0.0,-0.0,-0.0,-0.0,-0.0,-0.0,0.3933,0.5282,0.6643,0.6917,0.5824,0.4917,0.573,0.7002,0.6999,0.6903,0.6719,0.6719,0.6719,0.6808,0.7084,0.6713,0.6884,0.7143,0.7143,0.7139,0.7139,0.7139,0.7139,0.7139,0.7139,0.7139,0.7234,0.7323,0.8025,0.889,0.9492,1.0783,1.2248,1.2766,1.3118,1.373,1.3913,1.3906,1.4082,1.4379,1.4796,1.5518,1.6413,1.7207,1.7807,1.8123,1.7988,1.7959,1.7959,1.8008,1.8008,1.8018,1.8018,1.8027,1.8066,1.8057,1.8203,1.835,1.8457,1.8564,1.8769,1.9023,1.9287,1.9551,1.9785,1.9893,1.9922,1.9863,1.9912,2.0146,2.0254,2.0205,2.0166,2.0234,2.0226,2.0275,2.044,2.0489,1.8976,1.7542,1.7519,1.7111,1.6718,1.6366,1.6277,1.5963,1.542,1.5138,1.472,1.4837,1.5315,1.5725,-0.0,-0.0,-0.0,-0.0,-0.0,-0.0,-0.0,-0.0,-0.0,-0.0,-0.0,-0.0,-0.0,-0.0,-0.0,-0.0,-0.0,-0.0,-0.0,-0.0,-0.0,-0.0,-0.0,-0.0,0.4302,0.593,0.4297,0.304,-0.0,0.2948,0.3935,0.5285,0.5555,0.5555,0.5555,0.5555,0.61,0.7009,0.6275,0.6263,0.6792,0.7146,0.7143,0.7139,0.7139,0.7139,0.7139,0.7139,0.7139,0.7139,0.7143,0.7845,0.8632,0.9065,0.9927,1.0956,1.1643,1.2072,1.2948,1.3385,1.3555,1.3822,1.4082,1.4573,1.5309,1.617,1.6271,1.6807,1.6794,1.6634,1.7189,1.7372,1.7646,1.7784,1.7979,1.8076,1.834,1.8584,1.8643,1.8769,1.8877,1.8906,1.9043,1.9287,1.9512,1.9648,1.9941,2.0156,2.0283,2.0312,2.0293,2.0312,2.0459,2.0537,2.0439,2.042,2.0469,2.0459,2.0157,1.9511,1.8903,1.7596,1.6596,1.6773,1.6668,1.6078,1.5794,1.5711,1.5387,1.4823,1.4754,1.4671,1.4817,1.5068,1.5531,-0.0,-0.0,-0.0,-0.0,-0.0,-0.0,-0.0,-0.0,-0.0,-0.0,-0.0,-0.0,-0.0,-0.0,-0.0,-0.0,-0.0,-0.0,-0.0,-0.0,-0.0,-0.0,-0.0,-0.0,-0.0,0.332,0.2151,-0.0,-0.0,-0.0,0.1789,0.2948,-0.0,0.3126,-0.0,0.3486,0.4119,0.5746,0.5925,0.5463,0.6171,0.7156,0.7143,0.7139,0.7139,0.7139,0.7139,0.7139,0.7139,0.7139,0.7139,0.758,0.8105,0.8452,0.9144,1.0005,1.0351,1.1042,1.1815,1.2419,1.2942,1.347,1.3906,1.4461,1.5194,1.5427,1.5487,1.5545,1.5511,1.5905,1.6468,1.7036,1.7367,1.7779,1.7916,1.8182,1.863,1.8961,1.9141,1.9268,1.9316,1.9336,1.9521,1.9766,1.9941,2.0068,2.0205,2.042,2.0547,2.0488,2.0439,2.0449,2.0518,2.0566,2.0576,2.0245,2.0167,1.9766,1.9353,1.839,1.7502,1.6732,1.6349,1.6532,1.6296,1.5484,1.5228,1.522,1.4734,1.4328,1.4412,1.4489,1.4657,1.4901,1.5387,-0.0,-0.0,-0.0,-0.0,-0.0,-0.0,-0.0,-0.0,-0.0,-0.0,-0.0,-0.0,-0.0,-0.0,-0.0,-0.0,-0.0,-0.0,-0.0,-0.0,-0.0,-0.0,-0.0,-0.0,-0.0,-0.0,-0.0,-0.0,-0.0,-0.0,-0.0,-0.0,-0.0,-0.0,-0.0,-0.0,0.2603,0.4316,0.4761,0.4212,0.6014,0.6815,0.7058,0.7139,0.7139,0.7139,0.7139,0.7139,0.7139,0.7139,0.7139,0.7316,0.7492,0.7753,0.8273,0.8882,0.9231,0.9836,1.0605,1.1563,1.2351,1.2857,1.3379,1.4166,1.4531,1.4525,1.4639,1.482,1.4989,1.5626,1.6246,1.6867,1.7342,1.7734,1.7998,1.8398,1.8826,1.9014,1.9174,1.9383,1.9584,1.9717,1.9834,2.0078,2.0236,2.0313,2.0391,2.0566,2.0323,2.0411,2.0566,2.0489,2.0489,2.0576,2.0566,1.9687,1.9362,1.9036,1.847,1.7415,1.6708,1.6338,1.6126,1.5936,1.5401,1.458,1.4489,1.4727,1.4489,1.4166,1.4166,1.425,1.4412,1.4817,1.5304]},{"header":{"parameterUnit":"m.s-1","parameterCategory":1,"la1":31.0,"la2":29.5877,"lo1":-88.7671,"lo2":-86.6584,"dy":0.0162,"dx":0.0185,"nx":115,"ny":88,"refTime":"2023-05-25T00:00:00:Z","depth":0,"parameterNumber":3,"parameterNumberName":"V-component_of_WINDS"},"data":[0.0,0.0,0.0,0.0,0.0,0.0,0.0,0.0,0.0,0.0,0.0,0.0,0.0,0.0,0.0,0.0,0.0,0.0,0.0,0.0,0.0,0.0,0.0,0.0,0.0,0.0,0.0,0.0,0.0,0.0,0.0,0.0,0.0,0.0,0.0,0.0,0.0,0.0,0.0,0.0,0.0,0.0,0.0,0.0,0.0,0.0,0.0,0.0,0.0,0.0,0.0,0.0,0.0,0.0,0.0,0.0,0.0,0.0,0.0,0.0,0.0,0.0,0.0,0.0,0.0,0.0,0.0,0.0,0.0,0.0,0.0,0.0,0.0,0.0,0.0,0.0,0.0,0.0,0.0,0.0,0.0,0.0,0.0,0.0,0.0,0.0,0.0,0.0,0.0,0.0,0.0,0.0,0.0,0.0,0.0,0.0,0.0,0.0,0.0,0.0,0.0,0.0,0.0,0.0,0.0,0.0,0.0,0.0,0.0,0.0,0.0,0.0,0.0,0.0,0.0,0.0,0.0,0.0,0.0,0.0,0.0,0.0,0.0,0.0,0.0,0.0,0.0,0.0,0.0,0.0,0.0,0.0,0.0,0.0,0.0,0.0,0.0,0.0,0.0,0.0,0.0,0.0,0.0,0.0,0.0,0.0,0.0,0.0,0.0,0.0,0.0,0.0,0.0,0.0,0.0,0.0,0.0,0.0,0.0,0.0,0.0,0.0,0.0,0.0,0.0,0.0,0.0,0.0,0.0,0.0,0.0,0.0,0.0,0.0,0.0,0.0,0.0,0.0,0.0,0.0,0.0,0.0,0.0,0.0,0.0,0.0,0.0,0.0,0.0,0.0,0.0,0.0,0.0,0.0,0.0,0.0,0.0,0.0,0.0,0.0,0.0,0.0,0.0,0.0,0.0,0.0,0.0,0.0,0.0,0.0,0.0,0.0,0.0,0.0,0.0,0.0,0.0,0.0,0.0,0.0,0.0,0.0,0.0,0.0,0.0,0.0,0.0,0.0,0.0,0.0,0.0,0.0,0.0,0.0,0.0,0.0,0.0,0.0,0.0,0.0,0.0,0.0,0.0,0.0,0.0,0.0,0.0,0.0,0.0,0.0,0.0,0.0,0.0,0.0,0.0,0.0,0.0,0.0,0.0,0.0,0.0,0.0,0.0,0.0,0.0,0.0,0.0,0.0,0.0,0.0,0.0,0.0,0.0,0.0,0.0,0.0,0.0,0.0,0.0,0.0,0.0,0.0,0.0,0.0,0.0,0.0,0.0,0.0,0.0,0.0,0.0,0.0,0.0,0.0,0.0,0.0,0.0,0.0,0.0,0.0,0.0,0.0,0.0,0.0,0.0,0.0,0.0,0.0,0.0,0.0,0.0,0.0,0.0,0.0,0.0,0.0,0.0,0.0,0.0,0.0,0.0,0.0,0.0,0.0,0.0,0.0,0.0,0.0,0.0,0.0,0.0,0.0,0.0,0.0,0.0,0.0,0.0,0.0,0.0,0.0,0.0,0.0,0.0,0.0,0.0,0.0,0.0,0.0,0.0,0.0,0.0,0.0,0.0,0.0,0.0,0.0,0.0,0.0,0.0,0.0,0.0,0.0,0.0,0.0,0.0,0.0,0.0,0.0,0.0,0.0,0.0,0.0,0.0,0.0,0.0,0.0,0.0,0.0,0.0,0.0,0.0,0.0,0.0,0.0,0.0,0.0,0.0,0.0,0.0,0.0,0.0,0.0,0.0,0.0,0.0,0.0,0.0,0.0,0.0,0.0,0.0,0.0,0.0,0.0,0.0,0.0,0.0,0.0,0.0,0.0,0.0,0.0,0.0,0.0,0.0,0.0,0.0,0.0,0.0,0.0,0.0,0.0,0.0,0.0,0.0,0.0,0.0,0.0,0.0,0.0,0.0,0.0,0.0,0.0,0.0,0.0,0.0,0.0,0.0,0.0,0.0,0.0,0.0,0.0,0.0,0.0,0.0,0.0,0.0,0.0,0.0,0.0,0.0,0.0,0.0,0.0,0.0,0.0,0.0,0.0,0.0,0.0,0.0,0.0,0.0,0.0,0.0,0.0,0.0,0.0,0.0,0.0,0.0,0.0,0.0,0.0,0.0,0.0,0.0,0.0,0.0,0.0,0.0,0.0,0.0,0.0,0.0,0.0,0.0,0.0,0.0,0.0,0.0,0.0,0.0,0.0,0.0,0.0,0.0,0.0,0.0,0.0,0.0,0.0,0.0,0.0,0.0,0.0,0.0,0.0,0.0,0.0,0.0,0.0,0.0,0.0,0.0,0.0,0.0,0.0,0.0,0.0,0.0,0.0,0.0,0.0,0.0,0.0,0.0,0.0,0.0,0.0,0.0,0.0,0.0,0.0,0.0,0.0,0.0,0.0,0.0,0.0,0.0,0.0,0.0,0.0,0.0,0.0,0.0,0.0,0.0,0.0,0.0,0.0,0.0,0.0,0.0,0.0,0.0,0.0,0.0,0.0,0.0,0.0,0.0,0.0,0.0,0.0,0.0,0.0,0.0,0.0,0.0,0.0,0.0,0.0,0.0,0.0,0.0,0.0,0.0,0.0,0.0,0.0,0.0,0.0,0.0,0.0,0.0,0.0,0.0,0.0,0.0,0.0,0.0,0.0,0.0,0.0,0.0,0.0,0.0,0.0,0.0,0.0,0.0,0.0,0.0,0.0,0.0,0.0,0.0,0.0,0.0,0.0,0.0,0.0,0.0,0.0,0.0,0.0,0.0,0.0,0.0,0.0,0.0,0.0,0.0,0.0,0.0,0.0,0.0,0.0,0.0,0.0,0.0,0.0,0.0,0.0,0.0,0.0,0.0,0.0,0.0,0.0,0.0,0.0,0.0,0.0,0.0,0.0,0.0,0.0,0.0,0.0,0.0,0.0,0.0,0.0,0.0,0.0,0.0,0.0,0.0,0.0,0.0,0.0,0.0,0.0,0.0,0.0,0.0,0.0,0.0,0.0,0.0,0.0,0.0,0.0,0.0,0.0,0.0,0.0,0.0,0.0,0.0,0.0,0.0,0.0,0.0,0.0,0.0,0.0,0.0,0.0,0.0,0.0,0.0,0.0,0.0,0.0,0.0,0.0,0.0,0.0,0.0,0.0,0.0,0.0,0.0,0.0,0.0,0.0,0.0,0.0,0.0,0.0,0.0,0.0,0.0,0.0,0.0,0.0,0.0,0.0,0.0,0.0,0.0,0.0,0.0,0.0,0.0,0.0,0.0,0.0,0.0,0.0,0.0,0.0,0.0,0.0,0.0,0.0,0.0,0.0,0.0,0.0,0.0,0.0,0.0,0.0,0.0,0.0,0.0,0.0,0.0,0.0,0.0,0.0,0.0,0.0,0.0,0.0,0.0,0.0,0.0,0.0,0.0,0.0,0.0,0.0,0.0,0.0,0.0,0.0,0.0,0.0,0.0,0.0,0.0,0.0,0.0,0.0,0.0,0.0,0.0,0.0,0.0,0.0,0.0,0.0,0.0,0.0,0.0,0.0,0.0,0.0,0.0,0.0,0.0,0.0,0.0,0.0,0.0,0.0,0.0,0.0,0.0,0.0,0.0,0.0,0.0,0.0,0.0,0.0,0.0,0.0,0.0,0.0,0.0,0.0,0.0,0.0,0.0,0.0,0.0,0.0,0.0,0.0,0.0,0.0,0.0,0.0,0.0,0.0,0.0,0.0,0.0,0.0,0.0,0.0,0.0,0.0,0.0,0.0,0.0,0.0,0.0,0.0,0.0,0.0,0.0,0.0,0.0,0.0,0.0,0.0,0.0,0.0,0.0,0.0,0.0,0.0,0.0,0.0,0.0,0.0,0.0,0.0,0.0,0.0,0.0,0.0,0.0,0.0,0.0,0.0,0.0,0.0,0.0,0.0,0.0,0.0,0.0,0.0,0.0,0.0,0.0,0.0,0.0,0.0,0.0,0.0,0.0,0.0,0.0,0.0,0.0,0.0,0.0,0.0,0.0,0.0,0.0,0.0,0.0,0.0,0.0,0.0,0.0,0.0,0.0,0.0,0.0,0.0,0.0,0.0,0.0,0.0,0.0,0.0,0.0,0.0,0.0,0.0,0.0,0.0,0.0,0.0,0.0,0.0,0.0,0.0,0.0,0.0,0.0,0.0,0.0,0.0,0.0,0.0,0.0,0.0,0.0,0.0,0.0,0.0,0.0,0.0,0.0,0.0,0.0,0.0,0.0,0.0,0.0,0.0,0.0,0.0,0.0,0.0,0.0,0.0,0.0,0.0,0.0,0.0,0.7966,0.0,0.0,0.0,0.0,0.0,0.0,0.0,0.0,0.0,0.0,0.0,0.0,0.0,0.0,0.0,0.0,0.0,0.0,0.0,0.0,0.0,0.0,0.0,0.0,0.0,0.0,0.0,0.0,0.0,0.0,0.0,0.0,0.0,0.0,0.0,0.0,0.0,0.0,0.0,0.0,0.0,0.0,0.0,0.0,0.0,0.0,0.0,0.0,0.0,0.0,0.0,0.0,0.0,0.0,0.0,0.0,0.0,0.0,0.0,0.0,0.0,0.0,0.0,0.0,0.0,0.0,0.0,0.0,0.0,0.0,0.0,0.0,0.0,0.0,0.0,0.0,0.0,0.0,0.0,0.0,0.0,0.0,0.0,0.0,0.0,0.0,0.0,0.0,0.0,0.0,0.0,0.0,0.0,0.0,0.0,0.0,0.0,0.0,0.0,0.0,0.0,0.0,0.0,0.0,0.0,0.0,0.0,0.0,0.0,0.0,0.8589,0.8365,0.8244,0.806,0.7828,0.0,0.0,0.0,0.0,0.0,0.0,0.0,0.0,0.0,0.0,0.0,0.0,0.0,0.0,0.0,0.0,0.0,0.0,0.0,0.0,0.0,0.0,0.0,0.0,0.0,0.0,0.0,0.0,0.0,0.0,0.0,0.0,0.0,0.0,0.0,0.0,0.0,0.0,0.0,0.0,0.0,0.0,0.0,0.0,0.0,0.0,0.0,0.0,0.0,0.0,0.0,0.0,0.0,0.0,0.0,0.0,0.0,0.0,0.0,0.0,0.0,0.0,0.0,0.0,0.0,0.0,0.0,0.0,0.0,0.0,0.0,0.0,0.0,0.0,0.0,0.0,0.0,0.0,0.0,0.0,0.0,0.0,0.0,0.0,0.0,0.0,0.0,0.0,0.0,0.0,0.0,0.0,0.0,0.0,0.0,0.0,0.0,0.0,0.0,0.0,0.0,0.0,0.0,0.0,0.0,0.0,0.0,0.0,0.0,0.0,0.0,0.0,0.8365,0.8181,0.7873,0.0,0.0,0.0,0.0,0.0,0.0,0.0,0.0,0.0,0.0,0.0,0.0,0.0,0.0,0.0,0.0,0.0,0.0,0.0,0.0,0.0,0.0,0.0,0.0,0.0,0.0,0.0,0.0,0.0,0.0,0.0,0.0,0.0,0.0,0.0,0.0,0.0,0.0,0.0,0.0,0.0,0.0,0.0,0.0,0.0,0.0,0.0,0.0,0.0,0.0,0.0,0.0,0.0,0.0,0.0,0.0,0.0,0.0,0.0,0.0,0.0,0.0,0.0,0.0,0.0,0.0,0.0,0.0,0.0,0.0,0.0,0.0,0.0,0.0,0.0,0.0,0.0,0.0,0.0,0.0,0.0,0.0,0.0,0.0,0.0,0.0,0.0,0.0,0.0,0.0,0.0,0.0,0.0,0.0,0.0,0.0,0.0,0.0,0.0,0.0,0.0,0.0,0.0,0.0,0.0,0.0,0.0,0.0,0.0,0.0,0.8745,0.8561,0.8477,0.0,0.8178,0.0,0.0,0.0,0.0,0.0,0.0,0.0,0.0,0.0,0.0,0.0,0.0,0.0,0.0,0.0,0.0,0.0,0.0,0.0,0.0,0.0,0.0,0.0,0.0,0.0,0.0,0.0,0.0,0.0,0.0,0.0,0.0,0.0,0.0,0.0,0.0,0.0,0.0,0.0,0.0,0.0,0.0,0.0,0.0,0.0,0.0,0.0,0.0,0.0,0.0,0.0,0.0,0.0,0.0,0.0,0.0,0.0,0.0,0.0,0.0,0.0,0.0,0.0,0.0,0.0,0.0,0.0,0.0,0.0,0.0,0.0,0.0,0.0,0.0,0.0,0.0,0.0,0.0,0.0,0.0,0.0,0.0,0.0,0.0,0.0,0.0,0.0,0.0,0.0,0.0,0.0,0.0,0.0,0.0,0.0,0.0,0.0,0.0,0.0,0.0,0.0,0.0,0.0,0.0,0.0,0.0,0.0,0.0,0.0,0.0,0.9101,0.9003,0.8805,0.8662,0.0,0.0,0.0,0.0,0.0,0.0,0.0,0.0,0.0,0.0,0.0,0.0,0.0,0.0,0.0,0.0,0.0,0.0,0.0,0.0,0.0,0.0,0.0,0.0,0.0,0.0,0.0,0.0,0.0,0.0,0.0,0.0,0.0,0.0,0.0,0.0,0.0,0.0,0.0,0.0,0.0,0.0,0.0,0.0,0.0,0.0,0.0,0.0,0.0,0.0,0.0,0.0,0.0,0.0,0.0,0.0,0.0,0.0,0.0,0.0,0.0,0.0,0.0,0.0,0.0,0.0,0.0,0.0,0.0,0.0,0.0,0.0,0.0,0.0,0.0,0.0,0.0,0.0,0.0,0.0,0.0,0.0,0.0,0.0,0.0,0.0,0.0,0.0,0.0,0.0,0.0,0.0,0.0,0.0,0.0,0.0,0.0,0.0,0.0,0.0,0.0,0.0,0.0,0.0,0.0,0.0,0.0,0.0,0.0,0.0,0.9487,0.9393,0.9301,0.9143,0.905,0.9016,0.0,0.0,0.0,0.0,0.0,0.0,0.0,0.0,0.0,0.0,0.0,0.0,0.0,0.0,0.0,0.0,0.0,0.0,0.0,0.0,0.0,0.0,0.0,0.0,0.0,0.0,0.0,0.0,0.0,0.0,0.0,0.0,0.0,0.0,0.0,0.0,0.0,0.0,0.0,0.0,0.0,0.0,0.0,0.0,0.0,0.0,0.0,0.0,0.0,0.0,0.0,0.0,0.0,0.0,0.0,0.0,0.0,0.0,0.0,0.0,0.0,0.0,0.0,0.0,0.0,0.0,0.0,0.0,0.0,0.0,0.0,0.0,0.0,0.0,0.0,0.0,0.0,0.0,0.0,0.0,0.0,0.0,0.0,0.0,0.0,0.0,0.0,0.0,0.0,0.0,0.0,0.0,0.0,0.0,0.0,0.0,0.0,0.0,0.0,0.0,0.0,0.0,0.0,0.0,0.0,0.0,0.0,0.0,0.9684,0.9564,0.9432,0.9313,0.9399,0.941,0.0,0.0,0.0,0.0,0.0,0.0,0.0,0.0,0.0,0.0,0.0,0.0,0.0,0.0,0.0,0.0,0.0,0.0,0.0,0.0,0.0,0.0,0.0,0.0,0.0,0.0,0.0,0.0,0.0,0.0,0.0,0.0,0.0,0.0,0.0,0.0,0.0,0.0,0.0,0.0,0.0,0.0,0.0,0.0,0.0,0.0,0.0,0.0,0.0,0.0,0.0,0.0,0.0,0.0,0.0,0.0,0.0,0.0,0.0,0.0,0.0,0.0,0.0,0.0,0.0,0.0,0.0,0.0,0.0,0.0,0.0,0.0,0.0,0.0,0.0,0.0,0.0,0.0,0.0,0.0,0.0,0.0,0.0,0.0,0.0,0.0,0.0,0.0,0.0,0.0,0.0,0.0,0.0,0.0,0.0,0.0,0.0,0.0,0.0,0.0,0.0,0.0,0.0,0.0,0.0,0.0,0.0,0.0,0.0,0.9632,0.9499,0.9408,0.9381,0.9533,0.9598,0.0,0.0,0.0,0.0,0.0,0.0,0.0,0.0,0.0,0.0,0.0,0.0,0.0,0.0,0.0,0.0,0.0,0.0,0.0,0.0,0.0,0.0,0.0,0.0,0.0,0.0,0.0,0.0,0.0,0.0,0.0,0.0,0.0,0.0,0.0,0.0,0.0,0.0,0.0,0.0,0.0,0.0,0.0,0.0,0.0,0.0,0.0,0.0,0.0,0.0,0.0,0.0,0.0,0.0,0.0,0.0,0.0,0.0,0.0,0.0,0.0,0.0,0.0,0.0,0.0,0.0,0.0,0.0,0.0,0.0,0.0,0.0,0.0,0.0,0.0,0.0,0.0,0.0,0.0,0.0,0.0,0.0,0.0,0.0,0.0,0.0,0.0,0.0,0.0,0.0,0.0,0.0,0.0,0.0,0.0,0.0,0.0,0.0,0.0,0.0,0.0,0.0,0.0,0.0,0.0,0.0,0.0,0.0,0.0,0.9485,0.0,0.9235,0.9259,0.9414,0.9533,0.0,0.0,0.0,0.0,0.0,0.0,0.0,0.0,0.0,0.0,0.0,0.0,0.0,0.0,0.0,0.0,0.0,0.0,0.0,0.0,0.0,0.0,0.0,0.0,0.0,0.0,0.0,0.0,0.0,0.0,0.0,0.0,0.0,0.0,0.0,0.0,0.0,0.0,0.0,0.0,0.0,0.0,0.0,0.0,0.0,0.0,0.0,0.0,0.0,0.0,0.0,0.0,0.0,0.0,0.0,0.0,0.0,0.0,0.0,0.0,0.0,0.0,0.0,0.0,0.0,0.0,0.0,0.0,0.0,0.0,0.0,0.0,0.0,0.0,0.0,0.0,0.0,0.0,0.0,0.0,0.0,0.0,0.0,0.0,0.0,0.0,0.0,0.0,0.0,0.0,0.0,0.0,0.0,0.0,0.0,0.0,0.0,0.0,0.0,0.0,0.0,0.0,0.0,0.0,0.0,0.0,0.0,0.0,0.9526,0.9217,0.8937,0.8866,0.8994,0.9065,0.9228,0.0,0.0,0.0,0.0,0.0,0.0,0.0,0.0,0.0,0.0,0.0,0.0,0.0,0.0,0.0,0.0,0.0,0.0,0.0,0.0,0.0,0.0,0.0,0.0,0.0,0.0,0.0,0.0,0.0,0.0,0.0,0.0,0.0,0.0,0.0,0.0,0.0,0.0,0.0,0.0,0.0,0.0,0.0,0.0,0.0,0.0,0.0,0.0,0.0,0.0,0.0,0.0,0.0,0.0,0.0,0.0,0.0,0.0,0.0,0.0,0.0,0.0,0.0,0.0,0.0,0.0,0.0,0.0,0.0,0.0,0.0,0.0,0.0,0.0,0.0,0.0,0.0,0.0,0.0,0.0,0.0,0.0,0.0,0.0,0.0,0.0,0.0,0.0,0.0,0.0,0.0,0.0,0.0,0.0,0.0,0.0,0.0,0.0,0.0,0.0,0.0,0.0,0.0,0.0,0.0,0.0,0.0,0.0,0.0,0.8866,0.8673,0.86,0.8667,0.8861,0.9097,0.0,0.0,0.0,0.0,0.0,0.0,0.0,0.0,0.0,0.0,0.0,0.0,0.0,0.0,0.0,0.0,0.0,0.0,0.0,0.0,0.0,0.0,0.0,0.0,0.0,0.0,0.0,0.0,0.0,0.0,0.0,0.0,0.0,0.0,0.0,0.0,0.0,0.0,0.0,0.0,0.0,0.0,0.0,0.0,0.0,0.0,0.0,0.0,0.0,0.0,0.0,0.0,0.0,0.0,0.0,0.0,0.0,0.0,0.0,0.0,0.0,0.0,0.0,0.0,0.0,0.0,0.0,0.0,0.0,0.0,0.0,0.0,0.0,0.0,0.0,0.0,0.0,0.0,0.0,0.0,0.0,0.0,0.0,0.0,0.0,0.0,0.0,0.0,0.0,0.0,0.0,0.0,0.0,0.0,0.0,0.0,0.0,0.0,0.0,0.0,0.0,0.0,0.0,0.0,0.0,0.0,0.0,0.0,0.0,0.9021,0.876,0.8611,0.8619,0.8761,0.8934,0.9239,0.0,0.0,0.0,0.0,0.0,0.0,0.0,0.0,0.0,0.0,0.0,0.0,0.0,0.0,0.0,0.0,0.0,0.0,0.0,0.0,0.0,0.0,0.0,0.0,0.0,0.0,0.0,0.0,0.0,0.0,0.0,0.0,0.0,0.0,0.0,0.0,0.0,0.0,0.0,0.0,0.0,0.0,0.0,0.0,0.0,0.0,0.0,0.0,0.0,0.0,0.0,0.0,0.0,0.0,0.0,0.0,0.0,0.0,0.0,0.0,0.0,0.0,0.0,0.0,0.0,0.0,0.0,0.0,0.0,0.0,0.0,0.0,0.0,0.0,0.0,0.0,0.0,0.0,0.0,0.0,0.0,0.0,0.0,0.0,0.0,0.0,0.0,0.0,0.0,0.0,0.0,0.0,0.0,0.0,0.0,0.0,0.0,0.0,0.0,0.0,0.0,0.0,0.0,0.0,0.0,0.0,0.0,0.0,0.9691,0.9171,0.89,0.8911,0.8746,0.8792,0.0,0.0,0.0,0.0,0.0,0.0,0.0,0.0,0.0,0.0,0.0,0.0,0.0,0.0,0.0,0.0,0.0,0.0,0.0,0.0,0.0,0.0,0.0,0.0,0.0,0.0,0.0,0.0,0.0,0.0,0.0,0.0,0.0,0.0,0.0,0.0,0.0,0.0,0.0,0.0,0.0,0.0,0.0,0.0,0.0,0.0,0.0,0.0,0.0,0.0,0.0,0.0,0.0,0.0,0.0,0.0,0.0,0.0,0.0,0.0,0.0,0.0,0.0,0.0,0.0,0.0,0.0,0.0,0.0,0.0,0.0,0.0,0.0,0.0,0.0,0.0,0.0,0.0,0.0,0.0,0.0,0.0,0.0,0.0,0.0,0.0,0.0,0.0,0.0,0.0,0.0,0.0,0.0,0.0,0.0,0.0,0.0,0.0,0.0,0.0,0.0,0.0,0.0,0.0,0.0,0.0,0.0,0.0,0.0,1.0516,1.02,0.969,0.9167,0.913,0.9066,0.0,0.0,0.0,0.0,0.0,0.0,0.0,0.0,0.0,0.0,0.0,0.0,0.0,0.0,0.0,0.0,0.0,0.0,0.0,0.0,0.0,0.0,0.0,0.0,0.0,0.0,0.0,0.0,0.0,0.0,0.0,0.0,0.0,0.0,0.0,0.0,0.0,0.0,0.0,0.0,0.0,0.0,0.0,0.0,0.0,0.0,0.0,0.0,0.0,0.0,0.0,0.0,0.0,0.0,0.0,0.0,0.0,0.0,0.0,0.0,0.0,0.0,0.0,0.0,0.0,0.0,0.0,0.0,0.0,0.0,0.0,0.0,0.0,0.0,0.0,0.0,0.0,0.0,0.0,0.0,0.0,0.0,0.0,0.0,0.0,0.0,0.0,0.0,0.0,0.0,0.0,0.0,0.0,0.0,0.0,0.0,0.0,0.0,0.0,0.0,0.0,0.0,0.0,0.0,0.0,0.0,0.0,0.0,1.0596,1.1107,1.0836,1.0553,1.0202,1.0004,0.9582,0.0,0.0,0.0,0.0,0.0,0.0,0.0,0.0,0.0,0.0,0.0,0.0,0.0,0.0,0.0,0.0,0.0,0.0,0.0,0.0,0.0,0.0,0.0,0.0,0.0,0.0,0.0,0.0,0.0,0.0,0.0,0.0,0.0,0.0,0.0,0.0,0.0,0.0,0.0,0.0,0.0,0.0,0.0,0.0,0.0,0.0,0.0,0.0,0.0,0.0,0.0,0.0,0.0,0.0,0.0,0.0,0.0,0.0,0.0,0.0,0.0,0.0,0.0,0.0,0.0,0.0,0.0,0.0,0.0,0.0,0.0,0.0,0.0,0.0,0.0,0.0,0.0,0.0,0.0,0.0,0.0,0.0,0.0,0.0,0.0,0.0,0.0,0.0,0.0,0.0,0.0,0.0,0.0,0.0,0.0,0.0,0.0,0.0,0.0,0.0,0.0,0.0,0.0,0.0,0.0,0.0,0.0,0.0,1.1233,1.1604,1.1372,1.1479,1.1904,1.1205,1.0267,0.0,0.0,0.0,0.0,0.0,0.0,0.0,0.0,0.0,0.0,0.0,0.0,0.0,0.0,0.0,0.0,0.0,0.0,0.0,0.0,0.0,0.0,0.0,0.0,0.0,0.0,0.0,0.0,0.0,0.0,0.0,0.0,0.0,0.0,0.0,0.0,0.0,0.0,0.0,0.0,0.0,0.0,0.0,0.0,0.0,0.0,0.0,0.0,0.0,0.0,0.0,0.0,0.0,0.0,0.0,0.0,0.0,0.0,0.0,0.0,0.0,0.0,0.0,0.0,0.0,0.0,0.0,0.0,0.0,0.0,0.0,0.0,0.0,0.0,0.0,0.0,0.0,0.0,0.0,0.0,0.0,0.0,0.0,0.0,0.0,0.0,0.0,0.0,0.0,0.0,0.0,0.0,0.0,0.0,0.0,0.0,0.0,0.0,0.0,0.0,0.0,0.0,0.0,0.0,0.0,0.0,0.0,0.0,1.1954,1.2935,1.2669,1.3001,1.4013,1.236,1.1198,0.0,0.0,0.0,0.0,0.0,0.0,0.0,0.0,0.0,0.0,0.0,0.0,0.0,0.0,0.0,0.0,0.0,0.0,0.0,0.0,0.0,0.0,0.0,0.0,0.0,0.0,0.0,0.0,0.0,0.0,0.0,0.0,0.0,0.0,0.0,0.0,0.0,0.0,0.0,0.0,0.0,0.0,0.0,0.0,0.0,0.0,0.0,0.0,0.2129,0.0,0.0,0.0,0.0,0.0,0.0,0.0,0.0,0.0,0.0,0.0,0.0,0.0,0.0,0.0,0.0,0.0,0.0,0.0,0.0,0.0,0.0,0.0,0.0,0.0,0.0,0.0,0.0,0.0,0.0,0.0,0.0,0.0,0.0,0.0,0.0,0.0,0.0,0.0,0.0,0.0,0.0,0.0,0.0,0.0,0.0,0.0,0.0,0.0,0.0,0.0,0.0,0.0,0.0,0.0,0.0,0.0,0.0,0.0,1.2359,1.3338,1.363,1.4046,1.4653,1.4223,1.3203,0.0,0.0,0.0,0.0,0.0,0.0,0.0,0.0,0.0,0.0,0.0,0.0,0.0,0.0,0.0,0.0,0.0,0.0,0.0,0.0,0.0,0.0,0.0,0.0,0.0,0.0,0.0,0.0,0.0,0.0,0.0,0.0,0.0,0.0,0.0,0.0,0.0,0.0,0.0,0.0,0.0,0.0,0.0,0.0,0.0,0.0,0.0,0.0,0.0,0.0,0.0,0.0,0.0,0.0,0.0,0.0,0.0,0.0,0.0,0.0,0.0,0.0,0.0,0.0,0.0,0.0,0.0,0.0,0.0,0.0,0.0,0.0,0.0,0.0,0.0,0.0,0.0,0.0,0.0,0.0,0.0,0.0,0.0,0.0,0.0,0.0,0.0,0.0,0.0,0.0,0.0,0.0,0.0,0.0,0.0,0.0,0.0,0.0,0.0,0.0,0.0,0.0,0.0,0.0,0.0,0.0,0.0,1.2351,1.2761,1.3482,1.4268,1.4801,1.496,1.5831,1.5296,1.322,0.0,0.0,0.0,0.0,0.0,0.0,0.0,0.0,0.0,0.0,0.0,0.0,0.0,0.0,0.0,0.0,0.0,0.0,0.0,0.0,0.0,0.0,0.0,0.0,0.0,0.0,0.0,0.0,0.0,0.0,0.0,0.0,0.0,0.0,0.0,0.0,0.0,0.0,0.1984,0.1362,0.0,0.0,0.0,0.0,0.0,0.0,0.0,0.0,0.217,0.0,0.0,0.0,0.0,0.0,0.0,0.0,0.0,0.0,0.0,0.0,0.0,0.0,0.0,0.0,0.0,0.0,0.0,0.0,0.0,0.0,0.0,0.0,0.0,0.0,0.0,0.0,0.0,0.0,0.0,0.0,0.0,0.0,0.0,0.0,0.0,0.0,0.0,0.0,0.0,0.0,0.0,0.0,0.0,0.0,0.0,0.0,0.0,0.0,0.0,0.0,0.0,0.0,0.0,0.0,0.0,1.2686,1.2935,1.3507,1.446,1.4631,1.5189,1.6126,1.5674,1.5535,1.5724,0.0,0.0,0.0,0.0,0.0,0.0,0.0,0.0,0.0,0.0,0.0,0.0,0.0,0.0,0.0,0.0,0.0,0.0,0.0,0.0,0.0,0.0,0.0,0.0,0.0,0.0,0.0,0.0,0.0,0.0,0.0,0.0,0.0,0.0,0.0,0.0,0.0,0.0,0.0,0.113,0.0777,0.0,0.0,0.0,0.0,0.0,0.0,0.0,0.0,0.1907,0.0,0.0,0.0,0.0,0.0,0.0,0.0,0.0,0.0,0.0,0.0,0.0,0.0,0.0,0.0,0.0,0.0,0.0,0.0,0.0,0.0,0.0,0.0,0.0,0.0,0.0,0.0,0.0,0.0,0.0,0.0,0.0,0.0,0.0,0.0,0.0,0.0,0.0,0.0,0.0,0.0,0.0,0.0,0.0,0.0,0.0,0.0,0.0,0.0,0.0,0.0,0.0,0.0,0.0,0.0,1.277,1.2806,1.3433,1.464,1.4924,1.5487,1.6466,1.5786,1.5537,0.0,0.0,0.0,0.0,0.0,0.0,0.0,0.0,0.0,0.0,0.0,0.0,0.0,0.0,0.0,0.0,0.0,0.0,0.0,0.0,0.0,0.0,0.0,0.0,0.0,0.0,0.0,0.0,0.0,0.0,0.0,0.0,0.0,0.0,0.0,0.0,0.0,0.0,0.0,0.0,0.0902,0.06,0.0629,0.0,0.0,0.0,0.0,0.0,0.0,0.1441,0.1749,0.0,0.0,0.0,0.0,0.0,0.0,0.0,0.0,0.0,0.0,0.0,0.0,0.0,0.0,0.0,0.0,0.0,0.0,0.0,0.0,0.0,0.0,0.0,0.0,0.0,0.0,0.0,0.0,0.0,0.0,0.0,0.0,0.0,0.0,0.0,0.0,0.0,0.0,0.0,0.0,0.0,0.0,0.0,0.0,0.0,0.0,0.0,0.0,0.0,0.0,0.0,0.0,0.0,0.0,0.0,1.3004,1.3001,1.3577,1.4722,1.5245,1.5856,1.6559,1.5756,1.5259,0.0,0.0,0.0,0.0,0.0,0.0,0.0,0.0,0.0,0.0,0.0,0.0,0.0,0.0,0.0,0.0,0.0,0.0,0.0,0.0,0.0,0.0,0.0,0.0,0.0,0.0,0.0,0.0,0.0,0.0,0.0,0.0,0.0,0.0,0.0,0.0,0.0,0.0,0.0,0.0,0.0,0.0417,0.054,0.0729,0.0,0.0,0.0,0.0,0.1039,0.1195,0.0,0.0,0.0,0.0,0.0,0.0,0.0,0.0,0.0,0.0,0.0,0.0,0.0,0.0,0.0,0.0,0.0,0.0,0.0,0.0,0.0,0.0,0.0,0.0,0.0,0.0,0.0,0.0,0.0,0.0,0.0,0.0,0.0,0.0,0.0,0.0,0.0,0.0,0.0,0.0,0.0,0.0,0.0,0.0,0.0,0.0,0.0,0.0,0.0,0.0,0.0,0.0,0.0,0.0,0.0,0.0,1.3852,1.4343,1.4768,1.506,1.5716,1.6402,1.7003,1.5192,1.4506,0.0,0.0,0.0,0.0,0.0,0.0,0.0,0.0,0.0,0.0,0.0,0.0,0.0,0.0,0.0,0.0,0.0,0.0,0.0,0.0,0.0,0.0,0.0,0.0,0.0,0.0,0.0,0.0,0.0,0.0,0.0,0.0,0.0,0.0,0.0,0.0,0.0,0.0,0.0,0.0,0.0,0.027,0.0094,0.047,0.084,0.0,0.0,0.1559,0.0846,0.1121,0.0,0.0,0.0,0.0,0.0,0.0,0.0,0.0,0.0,0.0,0.0,0.0,0.0,0.0,0.0,0.0,0.0,0.0,0.0,0.0,0.0,0.0,0.0,0.0,0.0,0.0,0.0,0.0,0.0,0.0,0.0,0.0,0.0,0.0,0.0,0.0,0.0,0.0,0.0,0.0,0.0,0.0,0.0,0.0,0.0,0.0,0.0,0.0,0.0,0.0,0.0,0.0,0.0,0.0,0.0,1.3341,1.3763,1.4233,1.4644,1.5098,1.5436,1.5895,1.6466,1.5315,1.4716,0.0,0.0,0.0,0.0,0.0,0.0,0.0,0.0,0.0,0.0,0.0,0.0,0.0,0.0,0.0,0.0,0.0,0.0,0.0,0.0,0.0,0.0,0.0,0.0,0.0,0.0,0.0,0.0,0.0,0.0,0.0,0.0,0.0,0.0,0.0,0.0,0.0,0.0,0.0,0.0,0.0,0.0,0.0,0.029,0.0,0.0,0.0,0.1418,0.105,0.0,0.0,0.0,0.0,0.0,0.0,0.0,0.0,0.0,0.0,0.0,0.0,0.0,0.0,0.0,0.0,0.0,0.0,0.0,0.0,0.0,0.0,0.0,0.0,0.0,0.0,0.0,0.0,0.0,0.0,0.0,0.0,0.0,0.0,0.0,0.0,0.0,0.0,0.0,0.0,0.0,0.0,0.0,0.0,0.0,0.0,0.0,0.0,0.0,0.0,0.0,0.0,0.0,0.0,0.0,0.0,0.0,1.3817,1.4028,1.4437,1.5148,1.5154,1.5457,1.6099,1.5426,0.0,0.0,0.0,0.0,0.0,0.0,0.0,0.0,0.0,0.0,0.0,0.0,0.0,0.0,0.0,0.0,0.0,0.0,0.0,0.0,0.0,0.0,0.0,0.0,0.0,0.0,0.0,0.2801,0.0,0.0,0.0,0.0,0.0,0.0,0.0,0.0,0.0,0.0,0.0,0.0,0.0,0.0,0.0,0.0,0.0248,0.0545,0.0,0.0,0.1317,0.128,0.0518,0.0317,0.0,0.0,0.0,0.0,0.0,0.0,0.0,0.0,0.0,0.0,0.0,0.0,0.0,0.0,0.0,0.0,0.0,0.0,0.0,0.0,0.0,0.0,0.0,0.0,0.0,0.0,0.0,0.0,0.0,0.0,0.0,0.0,0.0,0.0,0.0,0.0,0.0,0.0,0.0,0.0,0.0,0.0,0.0,0.0,0.0,0.0,0.0,0.0,0.0,0.0,0.0,0.0,0.0,0.0,0.0,1.4405,1.4268,1.4594,1.5332,1.539,1.5716,1.6434,1.5339,1.5513,0.0,0.0,0.0,0.0,0.0,0.0,0.0,0.0,0.0,0.0,0.0,0.0,0.0,0.0,0.0,0.0,0.0,0.0,0.0,0.0,0.0,0.0,0.0,0.0,0.0,0.0,0.0,0.0,0.0,0.0,0.0,0.0,0.0,0.0,0.0,0.0,0.0,0.0,0.0,0.0,0.0,0.0,0.0,0.0207,0.0476,0.0,0.0,0.1167,0.1376,0.0599,0.0386,0.1592,0.0,0.0,0.0,0.0,0.0,0.0,0.0,0.0,0.0,0.0,0.0,0.0,0.0,0.0,0.0,0.0,0.0,0.0,0.0,0.0,0.0,0.0,0.0,0.0,0.0,0.0,0.0,0.0,0.0,0.0,0.0,0.0,0.0,0.0,0.0,0.0,0.0,0.0,0.0,0.0,0.0,0.0,0.0,0.0,0.0,0.0,0.0,0.0,0.0,0.0,0.0,0.0,0.0,1.2608,1.3378,1.3892,1.4332,1.4688,1.5108,1.5526,1.5806,1.5401,1.5468,0.0,0.0,0.0,0.0,0.0,0.0,0.0,0.0,0.0,0.0,0.0,0.0,0.0,0.0,0.0,0.0,0.0,0.0,0.0,0.0,0.0,0.0,0.0,0.0,0.0,0.0,0.0,0.0,0.3534,0.3626,0.3622,0.0,0.0,0.0,0.0,0.0,0.0,0.0,0.0,0.0,0.0,0.0,0.0,0.0106,0.0,0.0,0.0853,0.0959,0.128,0.1207,0.1331,0.1928,0.2475,0.0,0.0,0.0,0.0,0.0,0.0,0.0,0.0,0.0,0.0,0.0,0.0,0.0,0.0,0.0,0.0,0.0,0.0,0.0,0.0,0.0,0.0,0.0,0.0,0.0,0.0,0.0,0.0,0.0,0.0,0.0,0.0,0.0,0.0,0.0,0.0,0.0,0.0,0.0,0.0,0.0,0.0,0.0,0.0,0.0,0.0,0.0,0.0,0.0,0.0,0.0,0.0,1.1974,1.2553,1.3165,1.3691,1.42,1.4728,1.5167,1.54,1.5422,1.5413,0.0,0.0,0.0,0.0,0.0,0.0,0.0,0.0,0.0,0.0,0.0,0.0,0.0,0.0,0.0,0.0,0.0,0.0,0.0,0.0,0.0,0.0,0.0,0.0,0.0,0.0,0.0,0.0,0.3775,0.3795,0.3755,0.0,0.0,0.0,0.0,0.0,0.0,0.0,0.0,0.0,0.0,0.0052,0.0265,0.0215,0.0324,0.0812,0.0812,0.0866,0.1136,0.1548,0.1893,0.2284,0.0,0.0,0.0,0.0,0.0,0.0,0.0,0.0,0.0,0.0,0.0,0.0,0.0,0.0,0.0,0.0,0.0,0.0,0.0,0.0,0.0,0.0,0.0,0.0,0.0,0.0,0.0,0.0,0.0,0.0,0.6007,0.0,0.0,0.0,0.0,0.0,0.0,0.0,0.0,0.0,0.0,0.0,0.0,0.0,0.0,0.0,0.0,0.0,0.0,0.0,0.0,0.0,0.0,1.1839,1.2087,1.1953,1.2615,1.4105,1.4191,1.4628,1.5352,1.54,1.5434,1.5395,0.0,0.0,0.0,0.0,0.0,0.0,0.0,0.0,0.0,0.0,0.0,0.0,0.0,0.0,0.0,0.0,0.0,0.0,0.0,0.0,0.0,0.0,0.0,0.0,0.0,0.0,0.3598,0.383,0.3902,0.0,0.0,0.0,0.0,0.0,0.0,0.0,0.0,0.0,0.0,0.0,0.0213,0.0799,0.0603,0.0503,0.084,0.0896,0.0896,0.0952,0.1402,0.202,0.0,0.0,0.0,0.0,0.0,0.0,0.0,0.0,0.0,0.0,0.0,0.0,0.0,0.0,0.0,0.0,0.0,0.0,0.0,0.0,0.0,0.0,0.0,0.0,0.0,0.0,0.0,0.5107,0.5335,0.0,0.0,0.0,0.0,0.0,0.0,0.0,0.0,0.0,0.0,0.0,0.6173,0.6099,0.0,0.0,0.0,0.0,0.0,0.0,0.0,0.0,0.0,0.0,0.0,0.0,1.0966,1.1295,1.1629,1.2112,1.2862,1.3769,1.4332,1.4569,1.5108,1.5407,1.5411,0.0,0.0,0.0,0.0,0.0,0.0,0.0,0.0,0.0,0.0,0.0,0.0,0.0,0.0,0.0,0.0,0.0,0.0,0.0,0.0,0.0,0.0,0.0,0.0,0.0,0.3556,0.0,0.0,0.0,0.0,0.0,0.0,0.0,0.0,0.0,0.0,0.0,0.0,0.0,0.0,0.0209,0.0822,0.0835,0.0791,0.0,0.0,0.0,0.0,0.0,0.0,0.0,0.0,0.0,0.0,0.0,0.0,0.0,0.0,0.1334,0.1677,0.1819,0.2023,0.2448,0.0,0.0,0.0,0.0,0.0,0.0,0.0,0.0,0.0,0.0,0.0,0.0,0.0,0.0,0.505,0.0,0.5198,0.0,0.0,0.0,0.0,0.0,0.0,0.0,0.0,0.6363,0.6229,0.6093,0.6034,0.592,0.0,0.6337,0.6745,0.0,0.0,0.0,0.0,0.0,0.0,0.0,0.0,1.0706,1.1002,1.1425,1.1876,1.2355,1.3218,1.3941,1.4549,1.5125,1.5409,1.542,1.4887,1.4453,0.0,0.0,0.0,0.0,0.0,0.0,0.0,0.0,0.0,0.0,0.0,0.0,0.0,0.0,0.0,0.0,0.0,0.0,0.0,0.0,0.0,0.0,0.0,0.3458,0.0,0.0,0.0,0.0,0.0,0.0,0.0,0.0,0.0,0.0763,0.0488,0.0303,0.0318,0.0107,0.0216,0.0837,0.0,0.0,0.0,0.0,0.0,0.0,0.0,0.1599,0.1656,0.1731,0.1744,0.1566,0.1856,0.2031,0.186,0.0,0.0,0.1115,0.1175,0.1302,0.1788,0.2043,0.2186,0.2186,0.213,0.2018,0.0,0.0,0.0,0.0,0.0,0.0,0.0,0.0,0.5112,0.5213,0.0,0.53,0.0,0.0,0.0,0.0,0.0,0.6745,0.0,0.0,0.5996,0.5867,0.6007,0.5993,0.6004,0.6065,0.7171,0.7283,0.6544,0.6812,0.0,0.0,0.0,0.0,0.0,0.0,1.1131,1.1213,1.1329,1.1826,1.2633,1.2713,1.3494,1.5165,1.5268,1.532,1.5278,1.3821,1.3637,1.5148,1.3208,0.0,0.0,0.0,0.0,0.0,0.0,0.0,0.0,0.0,0.0,0.0,0.0,0.0,0.0,0.0,0.0,0.0,0.0,0.0,0.0,0.3594,0.0,0.0,0.0,0.0,0.0,0.0,0.0,0.0,0.0,0.0,0.0728,0.0816,0.0906,0.0907,0.0,0.0,0.0,0.0,0.0875,0.0908,0.062,0.0676,0.1413,0.1681,0.1654,0.1358,0.0,0.0,0.0247,0.0494,0.1047,0.1607,0.1232,0.0788,0.0455,0.0394,0.0507,0.0845,0.1073,0.1241,0.1239,0.1076,0.0905,0.1792,0.0,0.0,0.0,0.0,0.5235,0.5383,0.5457,0.548,0.5568,0.565,0.5539,0.0,0.0,0.0,0.0,0.0,0.0,0.6651,0.6202,0.6187,0.6065,0.588,0.5884,0.588,0.5884,0.6301,0.641,0.6198,0.636,0.7133,0.828,0.0,0.0,0.0,0.0,1.1052,1.1448,1.1411,1.1654,1.2116,1.2477,1.3168,1.4287,1.4326,1.4145,1.3656,1.2523,1.1914,1.1995,1.2289,0.0,0.0,0.0,0.0,0.0,0.0,0.0,0.0,0.0,0.0,0.0,0.0,0.0,0.0,0.0,0.0,0.0,0.0,0.0,0.3576,0.3343,0.3101,0.0,0.0,0.0,0.0,0.0,0.0,0.0,0.0,0.0,0.0753,0.0801,0.086,0.0,0.0,0.0724,0.0867,0.0879,0.0895,0.0865,0.061,0.0,0.124,0.1415,0.1342,0.1036,0.1106,0.0926,0.0123,0.0123,0.0309,0.0494,0.0741,0.0737,0.0242,0.012,0.0,0.024,0.0301,0.0361,0.0361,0.0301,0.0,0.0,0.2006,0.2511,0.3063,0.3734,0.5104,0.5772,0.5837,0.5705,0.5744,0.5948,0.5714,0.5791,0.6094,0.6181,0.0,0.0,0.0,0.671,0.6284,0.6306,0.6205,0.5983,0.5986,0.5983,0.6064,0.6446,0.6493,0.6122,0.6677,0.7094,0.7626,0.0,0.0,1.0002,1.067,1.1334,1.1771,1.1796,1.1837,1.2029,1.2755,1.3162,1.3286,1.3994,1.3898,1.2765,1.2094,1.1574,1.1304,1.1884,1.1745,0.0,0.0,0.0,0.0,0.0,0.0,0.0,0.0,0.0,0.0,0.0,0.6886,0.7166,0.0,0.0,0.0,0.5555,0.4484,0.3416,0.3079,0.0,0.0,0.0,0.0,0.0,0.0,0.0,0.1348,0.1243,0.1051,0.0758,0.0631,0.0628,0.0873,0.087,0.0875,0.0897,0.0,0.0555,0.0569,0.0375,0.0373,0.0759,0.1011,0.1009,0.0575,0.0512,0.0448,0.0,0.0,0.0,0.0,0.032,0.0448,0.0064,0.0,0.0,0.0,0.0,0.0,0.0,0.0,0.0,-0.2278,-0.0392,0.0942,0.1492,0.1723,0.4089,0.5563,0.6286,0.5981,0.5916,0.6136,0.5913,0.6047,0.6325,0.6602,0.0,0.6501,0.6644,0.6568,0.6257,0.6261,0.6261,0.6261,0.6257,0.6261,0.6335,0.7249,0.7176,0.6405,0.723,0.7368,0.6779,0.792,0.8911,0.9641,1.0827,1.1597,1.1884,1.2158,1.2305,1.2305,1.3171,1.3164,1.2365,1.4055,1.4136,1.2372,1.2277,1.2275,1.2308,1.1875,1.1354,1.0808,0.0,0.0,0.0,0.0,0.0,0.0,0.0,0.0,0.0,0.0,0.0,0.0,0.0,0.0,0.0,0.521,0.0,0.3693,0.2947,0.0,0.0,0.0,0.2032,0.1867,0.1574,0.1425,0.1362,0.0,0.0,0.0681,0.0248,0.0186,0.0746,0.0825,0.0893,0.0871,0.0444,0.0064,0.0063,0.0,0.0,0.0,0.0511,0.0653,0.0,0.0,0.0,0.0,0.0,0.0,0.0,0.0,0.0,0.0,0.0,0.0,0.0,0.0,0.0,0.0,0.0,0.0,-0.5562,-0.4771,-0.1175,0.0393,0.0471,0.1089,0.3256,0.623,0.6263,0.6242,0.6246,0.6156,0.6208,0.6324,0.64,0.6421,0.6384,0.6419,0.6377,0.6257,0.6261,0.6261,0.6261,0.6261,0.6261,0.6338,0.657,0.6567,0.6335,0.6524,0.6583,0.6506,0.7442,0.8213,0.8662,0.9856,1.0292,0.9958,1.152,1.2305,1.2298,1.2519,1.2512,1.2305,1.2705,1.275,1.2351,1.2297,1.2312,1.2262,1.2006,1.1867,1.1884,1.1293,0.0,0.0,0.0,0.0,0.0,0.0,0.0,0.0,0.0,0.6728,0.6708,0.0,0.6143,0.0,0.5472,0.48,0.3876,0.3513,0.0,0.0,0.1329,0.1208,0.1148,0.1118,0.1066,0.1041,0.0565,0.0192,0.0192,0.0064,0.0064,0.0197,0.0383,0.0628,0.0829,0.0771,0.052,0.0,0.0,0.0,0.0,0.0133,0.0,0.0,0.0,0.0,0.0,0.0,0.0,0.0,0.0,0.0,0.0,0.0,0.0,0.0,0.0,0.0,0.0,0.0,0.0,-0.6737,-0.6486,-0.407,-0.2493,-0.1494,-0.0479,0.1883,0.487,0.4857,0.5404,0.6274,0.6264,0.6261,0.6261,0.6261,0.6261,0.6261,0.6261,0.6261,0.6261,0.6261,0.6261,0.6261,0.6261,0.6261,0.6261,0.6261,0.6261,0.6261,0.6261,0.6261,0.6338,0.6872,0.7202,0.748,0.8956,0.984,0.9965,1.0651,1.095,1.095,1.095,1.0965,1.1083,1.1892,1.231,1.2319,1.1742,1.1184,1.0649,1.0961,1.1106,1.091,1.056,1.0289,0.0,0.0,0.0,0.0,0.0,0.0,0.0,0.0,0.0,0.0,0.0,0.5839,0.549,0.525,0.4706,0.3832,0.3506,0.2841,0.164,0.1135,0.0823,0.0513,0.0522,0.0524,0.0515,0.0196,0.0,0.0,0.0,0.0,0.0,0.0131,0.0259,0.0459,0.0527,0.0398,0.0,0.0,0.0,0.0,0.0,0.0,0.0,0.0,0.0,0.0,0.0,0.0,0.0,0.0,0.0,0.0,0.0,0.0,0.0,0.0,0.0,0.0,0.0,0.0,-0.6776,-0.6868,-0.6868,-0.5706,-0.3903,-0.1814,0.0477,0.2691,0.2682,0.4097,0.6315,0.6322,0.6315,0.6302,0.6312,0.6318,0.6318,0.6295,0.6362,0.6366,0.6345,0.6261,0.6261,0.6261,0.6261,0.6261,0.6261,0.6261,0.6261,0.6261,0.6261,0.6261,0.6261,0.6338,0.6567,0.8084,0.9442,1.0559,0.9669,0.9221,0.9372,0.9346,0.9388,0.9639,1.1184,1.2002,1.1949,1.0659,0.95,0.8468,0.9597,0.9927,0.9181,0.9336,0.9372,0.0,0.909,0.0,0.0,0.0,0.0,0.0,0.0,0.0,0.0,0.6237,0.5703,0.5179,0.4935,0.4526,0.3872,0.3113,0.2329,0.1619,0.1104,0.0591,0.0067,0.0,0.0,0.0,0.0,0.0,0.0,0.0,0.0,0.0,0.0,0.0,0.0,0.0,0.0,0.0,0.0,0.0,0.0,0.0,0.0,0.0,0.0,0.0,0.0,0.0,0.0,0.0,0.0,0.0,0.0,0.0,0.0,0.0,0.0,0.0,0.0,0.0,0.0,-0.7051,-0.7051,-0.7051,-0.6782,-0.6416,-0.5964,-0.3326,0.0579,0.0579,0.2712,0.6209,0.6447,0.6512,0.6512,0.6583,0.6617,0.661,0.6488,0.643,0.6427,0.6315,0.6261,0.6261,0.6261,0.6261,0.6261,0.6261,0.6261,0.6261,0.6261,0.6261,0.6261,0.6261,0.6721,0.7403,0.0,0.0,0.0,0.8765,0.8689,0.9518,0.9564,0.9599,0.9623,1.0124,0.0,1.0317,0.8568,0.7599,0.7748,0.898,0.0,0.0,0.0,0.0,0.0,0.0,0.0,0.0,0.0,0.0,0.0,0.7437,0.7086,0.6976,0.6104,0.5448,0.5335,0.5258,0.5196,0.5032,0.2309,0.0529,0.0334,0.0,0.0134,0.0,0.0,0.0,0.0,0.0,0.0,0.0,0.0,0.0,0.0,0.0,0.0,0.0,0.0,0.0,0.0,0.0,0.0,0.0,0.0,0.0,0.0,0.0,0.0,0.0,0.0,0.0,0.0,0.0,0.0,0.0,0.0,0.0,0.0,0.0,0.0,0.0,0.0,0.0,-0.7139,0.0,-0.7139,-0.7139,0.0,-0.7139,-0.5731,-0.3368,-0.1014,0.1162,0.3279,0.4414,0.5538,0.6639,0.6725,0.6725,0.6722,0.6644,0.6525,0.6437,0.6448,0.6411,0.6414,0.6481,0.6478,0.6481,0.6488,0.6411,0.6414,0.6337,0.6257,0.6254,0.6257,0.6575,0.7046,0.6575,0.681,0.7787,0.7399,0.7476,0.7931,0.7988,0.8044,0.8093,0.8138,0.0,0.0,0.0,0.0,0.0,0.0,0.0,0.0,0.0,0.0,0.8023,0.7901,0.7905,0.8103,0.7937,0.7923,0.8083,0.7898,0.7407,0.6598,0.583,0.5434,0.5377,0.5383,0.5422,0.5309,0.2947,0.1005,0.0,0.0,0.0,0.0,0.0,0.0,0.0,0.0,0.0,0.0,0.0,0.0,0.0,0.0,0.0,0.0,0.0,0.0,0.0,0.0,0.0,0.0,0.0,0.0,0.0,0.0,0.0,0.0,0.0,0.0,0.0,0.0,0.0,0.0,0.0,0.0,0.0,0.0,0.0,0.0,0.0,0.0,-0.769,-0.769,-0.7507,-0.7415,-0.7415,-0.7143,-0.7156,-0.6795,0.0,0.0,0.0,0.1599,0.367,0.5542,0.5911,0.6138,0.6135,0.6114,0.6014,0.584,0.5898,0.6222,0.6649,0.6636,0.6709,0.6712,0.6646,0.6222,0.5371,0.5207,0.5124,0.5121,0.5121,0.5118,0.5118,0.5121,0.5102,0.5143,0.5914,0.6308,0.6305,0.6335,0.6474,0.6645,0.6452,0.6449,0.6817,0.6873,0.6718,0.6335,0.6929,0.7274,0.7271,0.7262,0.7235,0.7223,0.719,0.7394,0.7903,0.7766,0.7816,0.8332,0.8166,0.7482,0.6257,0.5751,0.5503,0.5447,0.544,0.5443,0.5457,0.4131,0.2294,0.0,0.0,0.0,0.0,0.0,0.0,0.0,0.0,0.0,0.0,0.0,-0.0944,0.0,0.0,-0.0741,-0.0605,0.0,0.0,0.0,0.0,0.0,0.0,0.0,-0.0471,0.0,0.0,0.0,0.0,0.0,0.0,0.0,0.0,0.0,0.0,0.0,0.0,0.0,0.0,0.0,0.0,0.0,0.0,-1.0093,-1.0004,-0.9071,-0.8609,-0.8516,-0.7507,-0.7156,-0.6897,-0.4259,-0.3101,-0.2933,-0.0619,0.062,0.1071,0.3106,0.4072,0.4066,0.4086,0.4054,0.3964,0.372,0.4701,0.6662,0.6662,0.6746,0.6746,0.6666,0.461,0.1084,0.0667,0.0583,0.0582,0.0498,0.0581,0.0498,0.0581,0.0579,0.0575,0.4308,0.6321,0.6314,0.6626,0.6783,0.6832,0.6467,0.6375,0.6482,0.641,0.6391,0.6301,0.6569,0.6718,0.6737,0.671,0.6637,0.6506,0.6423,0.651,0.6605,0.651,0.6587,0.6601,0.659,0.6667,0.6903,0.6182,0.5759,0.5739,0.5725,0.5745,0.5603,0.5221,0.3617,0.0,0.0,0.0,0.0,0.0,0.0,0.0,0.0,0.0,0.0,-0.2715,-0.4284,-0.4467,-0.3986,-0.3976,-0.2885,-0.3699,-0.3837,-0.275,-0.2345,-0.2344,-0.2345,-0.2345,-0.2347,-0.2345,-0.114,0.0,0.0,0.0,0.0,0.0,0.0,0.0,0.0,0.0,0.0,0.0,0.0,0.0,0.0,0.0,0.0,-1.1478,-1.1358,-1.026,-0.9812,-0.9791,-0.9235,-0.8623,-0.8028,-0.6943,-0.6074,-0.5392,-0.4293,-0.3126,-0.1878,-0.0802,-0.0356,-0.0267,-0.0264,-0.0351,-0.0263,-0.0,0.0691,0.1815,0.2677,0.3108,0.3109,0.3114,0.1988,-0.0173,-0.2682,-0.3984,-0.398,-0.4068,-0.4066,-0.4066,-0.4066,-0.4068,-0.3896,0.0417,0.2709,0.2706,0.2813,0.3002,0.3041,0.2927,0.3431,0.4533,0.4225,0.4755,0.6214,0.6403,0.6442,0.6471,0.6461,0.6419,0.6261,0.6261,0.6261,0.6261,0.6268,0.6268,0.6261,0.6264,0.6364,0.666,0.6271,0.604,0.5813,0.58,0.5734,0.5679,0.5633,0.4879,0.3149,0.1274,0.0,0.0,0.0,0.0,0.0,0.0,0.0,-0.3172,-0.4886,-0.5272,-0.4354,-0.4636,-0.4995,-0.43,-0.4776,-0.5122,-0.4303,-0.4167,-0.4167,-0.4164,-0.4167,-0.4167,-0.4167,-0.3489,-0.2546,-0.1806,-0.1475,-0.1476,-0.1476,-0.1477,-0.1477,-0.1477,0.0,-0.1476,-0.1476,-0.1476,-0.1208,0.0,0.0,0.0,-1.3374,-1.3255,-1.2172,-1.1453,-1.093,-1.0687,-1.0091,-0.9323,-0.9231,-0.8736,-0.7886,-0.7364,-0.6094,-0.4467,-0.4378,-0.4378,-0.4378,-0.4378,-0.4378,-0.4287,-0.3742,-0.3474,-0.3383,-0.2128,-0.1594,-0.1682,-0.2128,-0.2306,-0.2661,-0.6245,-0.8067,-0.7882,-0.7878,-0.7882,-0.7878,-0.7878,-0.7889,-0.7701,-0.446,-0.2434,-0.1938,-0.1922,-0.1812,-0.1783,-0.1779,-0.0881,0.0863,0.1019,0.227,0.4698,0.516,0.5631,0.62,0.6271,0.6268,0.6268,0.6268,0.6268,0.6264,0.6271,0.6271,0.6261,0.6271,0.6271,0.6254,0.6315,0.6193,0.5932,0.5922,0.5928,0.5868,0.5848,0.5838,0.5469,0.2266,0.0,0.0,0.0,-0.051,-0.1093,-0.1385,-0.2695,-0.4829,-0.6019,-0.5584,-0.4312,-0.4643,-0.542,-0.5477,-0.5454,-0.543,-0.5426,-0.541,-0.5319,-0.5386,-0.5316,-0.5319,-0.5389,-0.5319,-0.4567,-0.3618,-0.3282,-0.3286,-0.3286,-0.3286,-0.3286,-0.3286,-0.3286,-0.3286,-0.3286,-0.3286,-0.2746,0.0,0.0,0.0,-1.6782,-1.6699,-1.5606,-1.3906,-1.2143,-1.1096,-1.0692,-1.0524,-1.0438,-1.0381,-1.0062,-0.8055,-0.7078,-0.6815,-0.6818,-0.6821,-0.6821,-0.6735,-0.6821,-0.6821,-0.6735,-0.6643,-0.6634,-0.6456,-0.6456,-0.6631,-0.8332,-0.8748,-0.8356,-1.0338,-1.0952,-1.0361,-1.0269,-1.0269,-1.0269,-1.0265,-1.0289,-1.0251,-0.988,-0.864,-0.6656,-0.6528,-0.6482,-0.6469,-0.6383,-0.6144,-0.5009,-0.3217,-0.1192,0.0467,0.1789,0.3589,0.5811,0.6213,0.6291,0.621,0.621,0.6285,0.6278,0.6264,0.6264,0.6261,0.6271,0.6274,0.6197,0.6193,0.6261,0.622,0.6224,0.606,0.6244,0.6225,0.6078,0.5382,0.2299,0.0,0.0,0.0,-0.1457,-0.5349,-0.5082,-0.5201,-0.4252,-0.5352,-0.6143,-0.58,-0.5739,-0.5994,-0.6057,-0.5839,-0.5761,-0.5675,-0.5531,-0.5446,-0.5435,-0.5432,-0.5435,-0.5369,-0.5376,-0.5239,-0.4967,-0.5036,-0.5119,-0.4957,-0.5109,-0.5173,-0.5043,-0.5122,-0.5116,-0.5036,-0.497,-0.4503,-0.3015,-0.2479,-0.2013,-1.9094,-1.8986,-1.7971,-1.6587,-1.527,-1.4712,-1.4212,-1.36,-1.3516,-1.3187,-1.2523,-1.1481,-1.0378,-0.9209,-0.9148,-0.9165,-0.9165,-0.9165,-0.9161,-0.9161,-0.9165,-0.9161,-0.9161,-0.9165,-0.9165,-0.9248,-1.0809,-1.1402,-1.137,-1.2389,-1.2874,-1.2584,-1.2578,-1.2578,-1.2572,-1.2578,-1.2589,-1.2516,-1.2504,-1.2102,-1.109,-0.9432,-0.8696,-0.8857,-0.7831,-0.6913,-0.6525,-0.5273,-0.4408,-0.3677,-0.1987,-0.0473,0.07,0.2649,0.3824,0.3824,0.4222,0.5015,0.6207,0.6295,0.6295,0.6281,0.6295,0.5824,0.4535,0.4382,0.4862,0.5983,0.5176,0.4859,0.5986,0.6264,0.5366,0.3016,0.092,-0.0914,-0.3512,-0.3665,-0.4199,-0.4574,-0.5497,-0.6036,-0.5391,-0.6145,-0.72,-0.7522,-0.7229,-0.6881,-0.7354,-0.7008,-0.6859,-0.7163,-0.7203,-0.6584,-0.5782,-0.5428,-0.5428,-0.5428,-0.5432,-0.5502,-0.6086,-0.6148,-0.6214,-0.6334,-0.6605,-0.6605,-0.6384,-0.6736,-0.6942,-0.6745,-0.5822,-0.5153,-0.4425,-0.4298,-0.3897,-2.1267,-2.1131,-2.0129,-1.9263,-1.8558,-1.8214,-1.7476,-1.6555,-1.6458,-1.5889,-1.4896,-1.5114,-1.4352,-1.2866,-1.1997,-1.1514,-1.1519,-1.1514,-1.1514,-1.1514,-1.1514,-1.1514,-1.1514,-1.1519,-1.1632,-1.2009,-1.2783,-1.3477,-1.4034,-1.5153,-1.5561,-1.5338,-1.5487,-1.5479,-1.5256,-1.5487,-1.5666,-1.565,-1.5674,-1.5675,-1.531,-1.3048,-1.1533,-1.1249,-0.9892,-0.8346,-0.6908,-0.6954,-0.6933,-0.6481,-0.4864,-0.4002,-0.3868,-0.1562,0.0078,0.0622,0.1322,0.2338,0.3906,0.4389,0.4548,0.4616,0.455,0.3919,0.2731,0.2734,0.4079,0.568,0.2818,0.1407,0.4169,0.457,0.275,-0.1021,-0.1728,-0.2986,-0.4956,-0.5836,-0.5736,-0.4846,-0.616,-0.6902,-0.7173,-0.7668,-0.8314,-0.8813,-0.8408,-0.801,-0.8643,-0.826,-0.8018,-0.8487,-0.8449,-0.7788,-0.6444,-0.6276,-0.6145,-0.6145,-0.6276,-0.647,-0.6985,-0.7046,-0.6907,-0.6967,-0.7623,-0.7962,-0.7637,-0.7907,-0.8027,-0.7762,-0.7037,-0.6191,-0.6141,-0.6098,-0.6102,-2.337,-2.3205,-2.2198,-2.1692,-2.1576,-2.0605,-1.9618,-1.8777,-1.8707,-1.8125,-1.7446,-1.8179,-1.854,-1.8118,-1.542,-1.3868,-1.3791,-1.3951,-1.3951,-1.3951,-1.3874,-1.3791,-1.3798,-1.3798,-1.426,-1.5127,-1.5576,-1.6597,-1.8364,-1.9425,-1.9512,-1.8689,-1.9425,-1.9425,-1.8837,-1.9425,-1.9932,-1.9758,-1.9835,-1.9897,-1.9668,-1.7939,-1.5953,-1.4289,-1.3827,-1.1807,-0.8028,-0.8434,-0.8529,-0.7155,-0.6596,-0.6208,-0.616,-0.5887,-0.4704,-0.3044,-0.2181,-0.1789,-0.1477,-0.0388,0.031,0.0233,0.0233,0.0233,-0.0,0.1249,0.3057,0.5764,-0.0861,-0.3376,-0.0392,0.0549,-0.102,-0.4648,-0.5686,-0.5115,-0.3675,-0.5572,-0.6828,-0.7585,-0.797,-0.8345,-0.9003,-0.9145,-0.9256,-0.9476,-0.9326,-0.9376,-0.9612,-0.9343,-0.9357,-0.9307,-0.912,-0.8353,-0.8017,-0.7692,-0.7762,-0.7882,-0.7872,-0.7952,-0.7892,-0.7892,-0.7673,-0.7598,-0.8259,-0.8603,-0.8635,-0.8511,-0.8296,-0.8156,-0.8091,-0.7707,-0.7321,-0.7702,-0.7577,-2.496,-2.4413,-2.3968,-2.3431,-2.2894,-2.2461,-2.2147,-2.1847,-2.1782,-2.1642,-2.1349,-2.1631,-2.1782,-2.1686,-2.0609,-1.931,-1.811,-1.8031,-1.8031,-1.8031,-1.8031,-1.8031,-1.8031,-1.7952,-1.8125,-1.8547,-1.9279,-2.0389,-2.1686,-2.2147,-2.2147,-2.1933,-2.2147,-2.2147,-2.1922,-2.2147,-2.2349,-2.2368,-2.2392,-2.2312,-2.2335,-2.1638,-2.0848,-2.0043,-1.8869,-1.6188,-1.1758,-1.07,-1.0533,-1.1512,-0.9988,-0.875,-0.8098,-0.6984,-0.5981,-0.5266,-0.4937,-0.4774,-0.4696,-0.4297,-0.4059,-0.4059,-0.4062,-0.3982,-0.3908,-0.3283,-0.2032,-0.0859,-0.1953,-0.3682,-0.3999,-0.2818,-0.2582,-0.3999,-0.5506,-0.6366,-0.657,-0.7119,-0.7979,-0.8718,-0.8941,-0.9306,-1.0045,-1.0265,-1.049,-1.1093,-1.1149,-1.1434,-1.1944,-1.1979,-1.1977,-1.2522,-1.251,-1.2246,-1.1646,-0.9798,-0.8879,-0.9376,-0.9623,-0.9939,-1.0008,-1.014,-1.0052,-0.9605,-0.9825,-0.9933,-1.0161,-0.9977,-0.957,-0.9122,-0.9058,-0.8982,-0.8091,-0.872,-0.8533,-2.6819,-2.6335,-2.6159,-2.5841,-2.5301,-2.531,-2.5085,-2.485,-2.4779,-2.4637,-2.4424,-2.4399,-2.4422,-2.4422,-2.4457,-2.3727,-2.2274,-2.1678,-2.1322,-2.1322,-2.1322,-2.1312,-2.1322,-2.1322,-2.1497,-2.1963,-2.2872,-2.3654,-2.3952,-2.4325,-2.4253,-2.3963,-2.4253,-2.4241,-2.4108,-2.4325,-2.448,-2.4469,-2.4469,-2.4555,-2.4784,-2.4613,-2.4446,-2.4158,-2.2714,-2.0079,-1.63,-1.4022,-1.306,-1.3712,-1.2591,-1.109,-0.9582,-0.8176,-0.7395,-0.7371,-0.7308,-0.7281,-0.7277,-0.7277,-0.7273,-0.7277,-0.7273,-0.7277,-0.7281,-0.7042,-0.6009,-0.4675,-0.46,-0.555,-0.6187,-0.5544,-0.4675,-0.4913,-0.6106,-0.7366,-0.8421,-0.8574,-0.9022,-0.9674,-1.0126,-1.0571,-1.1162,-1.1527,-1.205,-1.2659,-1.2917,-1.3484,-1.4004,-1.4188,-1.4253,-1.4755,-1.453,-1.4312,-1.3917,-1.2542,-1.1192,-1.1377,-1.1257,-1.1621,-1.1874,-1.2066,-1.2058,-1.1675,-1.1574,-1.1695,-1.167,-1.1428,-1.1038,-1.0521,-1.0696,-1.0808,-1.0299,-0.992,-0.992,-2.9008,-2.8938,-2.903,-2.8886,-2.8726,-2.8661,-2.8306,-2.7485,-2.7472,-2.6972,-2.6249,-2.6337,-2.643,-2.6357,-2.6488,-2.6471,-2.5938,-2.447,-2.375,-2.3616,-2.3627,-2.3627,-2.3738,-2.3677,-2.4105,-2.4976,-2.5984,-2.5906,-2.5334,-2.6057,-2.6057,-2.5429,-2.6057,-2.6045,-2.5134,-2.6057,-2.6508,-2.6452,-2.6452,-2.6845,-2.7459,-2.6857,-2.6458,-2.6221,-2.5003,-2.3183,-2.0651,-1.8373,-1.6343,-1.4759,-1.4295,-1.2868,-1.0794,-0.9871,-0.964,-0.9433,-0.9274,-0.9246,-0.915,-0.9074,-0.8998,-0.8998,-0.915,-0.9003,-0.8846,-0.8452,-0.7672,-0.6751,-0.7242,-0.8205,-0.8124,-0.7791,-0.7548,-0.8124,-0.8124,-0.8498,-0.916,-0.9377,-0.9744,-1.0789,-1.1613,-1.2224,-1.2512,-1.3011,-1.3593,-1.3803,-1.4442,-1.5005,-1.5226,-1.5288,-1.5296,-1.5354,-1.5721,-1.5972,-1.5731,-1.5331,-1.4275,-1.3492,-1.3139,-1.3149,-1.3201,-1.333,-1.3374,-1.3047,-1.3097,-1.3155,-1.2458,-1.2274,-1.2573,-1.2243,-1.2557,-1.2496,-1.2158,-1.1835,-1.2051,-3.1455,-3.0497,-3.1056,-3.09,-3.0398,-3.0366,-2.9892,-2.9299,-2.9668,-2.9195,-2.8429,-2.9133,-2.9052,-2.8447,-2.8688,-2.8639,-2.8155,-2.7512,-2.6966,-2.6451,-2.6382,-2.6642,-2.702,-2.6655,-2.6854,-2.7696,-2.8058,-2.8096,-2.7841,-2.8025,-2.8025,-2.788,-2.8025,-2.809,-2.7736,-2.8103,-2.8183,-2.8212,-2.821,-2.837,-2.8622,-2.8725,-2.859,-2.8011,-2.6566,-2.5259,-2.4566,-2.1414,-1.9301,-1.8505,-1.7154,-1.5173,-1.3004,-1.178,-1.0787,-0.9891,-0.9647,-0.9443,-0.9316,-0.9372,-0.9442,-0.9372,-0.9372,-0.9296,-0.9296,-0.9216,-0.8827,-0.8367,-0.877,-0.9013,-0.8937,-0.8927,-0.8998,-0.9008,-0.9008,-0.9458,-1.0415,-1.095,-1.1768,-1.2638,-1.3084,-1.3528,-1.4099,-1.4673,-1.4736,-1.4871,-1.5649,-1.621,-1.628,-1.6844,-1.7404,-1.7833,-1.7849,-1.7681,-1.769,-1.7468,-1.6647,-1.5642,-1.5075,-1.466,-1.4601,-1.461,-1.465,-1.4601,-1.4656,-1.4369,-1.3614,-1.3408,-1.3751,-1.3691,-1.3502,-1.3554,-1.3673,-1.3742,-1.387,-3.2967,-3.207,-3.2588,-3.2482,-3.1996,-3.1995,-3.1744,-3.1423,-3.1784,-3.1479,-3.0952,-3.1207,-3.1021,-3.0351,-3.0352,-3.0129,-2.9779,-3.0036,-2.9915,-2.9302,-2.84,-2.8556,-2.8967,-2.8757,-2.8967,-2.9633,-2.974,-2.9769,-2.975,-2.9718,-2.9718,-2.9718,-2.9779,-2.9704,-2.9779,-2.9732,-2.9742,-2.9732,-2.9714,-2.986,-3.0161,-3.0228,-3.0254,-2.9975,-2.8529,-2.7314,-2.6439,-2.4044,-2.28,-2.2218,-1.9762,-1.7121,-1.5488,-1.4415,-1.33,-1.2382,-1.2018,-1.186,-1.1545,-1.1476,-1.1255,-1.1341,-1.0816,-1.0599,-1.0771,-1.0714,-1.0346,-0.9895,-1.0185,-1.0398,-1.0398,-1.0754,-1.1045,-1.1495,-1.084,-1.1063,-1.2104,-1.2638,-1.3237,-1.3882,-1.4235,-1.4593,-1.5021,-1.5587,-1.5852,-1.6184,-1.7023,-1.7842,-1.8055,-1.8613,-1.9222,-1.9628,-1.9488,-1.9566,-1.9879,-1.9516,-1.8926,-1.7995,-1.7032,-1.654,-1.6213,-1.6213,-1.6213,-1.6203,-1.6187,-1.613,-1.5553,-1.5322,-1.5428,-1.5022,-1.4838,-1.5303,-1.5716,-1.5486,-1.5496,-3.3697,-3.3723,-3.3746,-3.3807,-3.3784,-3.3763,-3.3655,-3.3652,-3.3652,-3.355,-3.3276,-3.2835,-3.2469,-3.2183,-3.1683,-3.1358,-3.1302,-3.1855,-3.2121,-3.1622,-3.0454,-2.9619,-2.9586,-3.0102,-3.0671,-3.1102,-3.1175,-3.1152,-3.1204,-3.1219,-3.1132,-3.1219,-3.1234,-3.1189,-3.1219,-3.1189,-3.1177,-3.121,-3.1192,-3.1571,-3.2191,-3.1571,-3.1531,-3.216,-3.0776,-2.9118,-2.7495,-2.687,-2.6582,-2.5872,-2.1727,-1.915,-1.8512,-1.7613,-1.671,-1.594,-1.5914,-1.53,-1.4984,-1.3999,-1.3976,-1.4339,-1.336,-1.2739,-1.3186,-1.2705,-1.2117,-1.1347,-1.1937,-1.2371,-1.251,-1.2933,-1.3879,-1.4704,-1.3397,-1.3252,-1.472,-1.4235,-1.4307,-1.5021,-1.5305,-1.5446,-1.572,-1.6489,-1.7151,-1.7939,-1.8716,-1.9399,-1.9857,-2.0063,-2.0462,-2.0655,-2.0655,-2.0905,-2.1136,-2.078,-2.0182,-1.9702,-1.877,-1.8136,-1.739,-1.7247,-1.7224,-1.728,-1.7655,-1.7644,-1.7291,-1.6813,-1.6813,-1.6903,-1.7092,-1.7567,-1.7401,-1.698,-1.6645,-3.5073,-3.5093,-3.549,-3.5675,-3.5665,-3.5643,-3.5363,-3.4948,-3.5018,-3.4544,-3.3921,-3.4398,-3.4137,-3.3348,-3.3556,-3.3371,-3.3165,-3.3212,-3.326,-3.3208,-3.277,-3.2002,-3.1682,-3.2242,-3.2702,-3.2872,-3.2873,-3.2905,-3.2903,-3.2867,-3.2867,-3.2882,-3.2903,-3.2919,-3.2935,-3.2919,-3.2917,-3.2897,-3.2924,-3.3034,-3.323,-3.3117,-3.3003,-3.3087,-3.2269,-3.12,-3.0265,-3.0197,-2.8858,-2.6539,-2.3909,-2.1832,-2.103,-2.0053,-1.9047,-1.8015,-1.6841,-1.6071,-1.5632,-1.4832,-1.4632,-1.5155,-1.5029,-1.4807,-1.4126,-1.4331,-1.3966,-1.3561,-1.4014,-1.4419,-1.4419,-1.4696,-1.528,-1.5852,-1.5255,-1.4775,-1.5084,-1.5021,-1.5163,-1.6,-1.6228,-1.6844,-1.7794,-1.8335,-1.8859,-1.9575,-2.0041,-2.0398,-2.0846,-2.0899,-2.1101,-2.1428,-2.1616,-2.199,-2.2067,-2.1787,-2.1473,-2.1107,-2.0404,-1.9617,-1.8625,-1.7682,-1.763,-1.7566,-1.8703,-1.9006,-1.8104,-1.739,-1.7841,-1.8584,-1.8274,-1.8221,-1.8167,-1.7829,-1.7556,-3.6265,-3.6287,-3.6601,-3.6754,-3.672,-3.6735,-3.651,-3.6212,-3.6222,-3.5865,-3.5419,-3.5865,-3.5839,-3.5206,-3.5508,-3.5508,-3.516,-3.5115,-3.516,-3.5143,-3.5081,-3.4394,-3.3671,-3.385,-3.4156,-3.4415,-3.4459,-3.4427,-3.4414,-3.4464,-3.4447,-3.4463,-3.4638,-3.4655,-3.4431,-3.4703,-3.4772,-3.4792,-3.4789,-3.4855,-3.5081,-3.4901,-3.4795,-3.4558,-3.3825,-3.2825,-3.1702,-3.1471,-2.9918,-2.702,-2.5298,-2.4418,-2.3762,-2.2477,-2.1308,-2.0276,-1.9209,-1.8442,-1.7546,-1.6482,-1.6,-1.6184,-1.6342,-1.5711,-1.5205,-1.5176,-1.4988,-1.5084,-1.5834,-1.6044,-1.6,-1.641,-1.7101,-1.7658,-1.7552,-1.7142,-1.6498,-1.6088,-1.6489,-1.7248,-1.7804,-1.821,-1.9683,-1.9824,-2.0279,-2.0846,-2.1026,-2.1365,-2.1678,-2.1604,-2.1779,-2.2286,-2.2725,-2.3135,-2.3306,-2.3129,-2.273,-2.2346,-2.1616,-2.0901,-2.0131,-1.8894,-1.8799,-1.9012,-1.9808,-2.0116,-1.9263,-1.8879,-1.9505,-1.9762,-1.9153,-1.8903,-1.8967,-1.8943,-1.8626,-3.7222,-3.718,-3.7267,-3.7288,-3.7253,-3.7291,-3.7248,-3.7248,-3.7097,-3.7058,-3.7002,-3.7135,-3.6964,-3.719,-3.6829,-3.7097,-3.7041,-3.6829,-3.6964,-3.6907,-3.6773,-3.6136,-3.5061,-3.5002,-3.521,-3.5543,-3.5705,-3.5671,-3.5599,-3.5616,-3.5749,-3.5803,-3.619,-3.6165,-3.583,-3.6147,-3.6423,-3.6321,-3.6242,-3.6394,-3.6574,-3.6329,-3.6045,-3.5856,-3.5118,-3.386,-3.2697,-3.2035,-3.0852,-2.7704,-2.6969,-2.6471,-2.623,-2.4554,-2.3598,-2.2831,-2.1941,-2.0999,-2.0228,-1.8802,-1.8125,-1.8113,-1.7201,-1.6354,-1.6327,-1.6173,-1.6289,-1.689,-1.7599,-1.7755,-1.7561,-1.8536,-1.9079,-1.9354,-1.9922,-1.9683,-1.8576,-1.7541,-1.7648,-1.909,-1.9365,-1.9814,-2.0398,-2.0782,-2.1037,-2.1803,-2.2051,-2.2298,-2.2665,-2.2907,-2.3075,-2.3433,-2.3859,-2.4323,-2.4423,-2.4461,-2.4,-2.3582,-2.2674,-2.1966,-2.1767,-2.0938,-2.0624,-2.0743,-2.0977,-2.1053,-2.0709,-2.0743,-2.1037,-2.0939,-2.0369,-2.0194,-2.0181,-2.0143,-1.9915,-3.7197,-3.7226,-3.7606,-3.7763,-3.7752,-3.7745,-3.7755,-3.772,-3.7377,-3.7303,-3.7228,-3.7228,-3.7266,-3.7266,-3.7303,-3.719,-3.7303,-3.7303,-3.719,-3.719,-3.719,-3.7097,-3.6626,-3.6558,-3.6431,-3.6416,-3.6658,-3.6615,-3.6388,-3.6563,-3.6825,-3.6825,-3.6865,-3.6943,-3.6865,-3.6882,-3.7027,-3.7008,-3.7027,-3.711,-3.7147,-3.6805,-3.6474,-3.6367,-3.5717,-3.5245,-3.4873,-3.4732,-3.4349,-3.3023,-3.039,-2.8132,-2.695,-2.6127,-2.5456,-2.4518,-2.3075,-2.1991,-2.1371,-2.0357,-1.9533,-1.9781,-1.9145,-1.8548,-1.7665,-1.8068,-1.8706,-1.942,-1.9857,-1.9771,-1.964,-1.9987,-2.0268,-2.0398,-2.0526,-2.0579,-2.0128,-1.9803,-1.9792,-2.0128,-2.0333,-2.0655,-2.1491,-2.1616,-2.2002,-2.2628,-2.2992,-2.3233,-2.359,-2.4002,-2.4163,-2.4368,-2.4824,-2.5161,-2.5163,-2.5228,-2.5015,-2.464,-2.3794,-2.3216,-2.3002,-2.2591,-2.2122,-2.188,-2.1842,-2.1801,-2.1561,-2.1615,-2.1744,-2.1615,-2.152,-2.1293,-2.1099,-2.1135,-2.0988,-3.7914,-3.7937,-3.8187,-3.8279,-3.8266,-3.8273,-3.8267,-3.8234,-3.8016,-3.7895,-3.7913,-3.7913,-3.7913,-3.7913,-3.7913,-3.7913,-3.7913,-3.7895,-3.7791,-3.7667,-3.7756,-3.7773,-3.7632,-3.7721,-3.7539,-3.6946,-3.7001,-3.7,-3.6929,-3.7058,-3.7152,-3.7266,-3.7433,-3.736,-3.7303,-3.7433,-3.7516,-3.7549,-3.755,-3.7643,-3.7762,-3.7398,-3.6764,-3.6405,-3.5932,-3.5616,-3.5542,-3.553,-3.5563,-3.486,-3.2776,-3.043,-2.8939,-2.8274,-2.7669,-2.6729,-2.5319,-2.3978,-2.3239,-2.2008,-2.0929,-2.0655,-2.0324,-1.935,-1.8795,-1.9114,-2.0509,-2.1289,-2.1412,-2.1175,-2.1227,-2.1164,-2.1164,-2.1302,-2.1553,-2.1741,-2.1678,-2.1101,-2.0782,-2.1037,-2.1239,-2.1678,-2.2125,-2.2372,-2.2847,-2.3458,-2.3636,-2.393,-2.4483,-2.4838,-2.4894,-2.5161,-2.5605,-2.5863,-2.5915,-2.5926,-2.5908,-2.5507,-2.498,-2.4567,-2.4384,-2.3923,-2.3406,-2.3098,-2.2675,-2.2399,-2.2221,-2.2331,-2.2409,-2.2239,-2.2161,-2.2007,-2.1805,-2.1602,-2.1472,-3.8707,-3.8707,-3.8755,-3.8755,-3.8707,-3.875,-3.8701,-3.8658,-3.8707,-3.8578,-3.8676,-3.8707,-3.8546,-3.8658,-3.8627,-3.8676,-3.8658,-3.8627,-3.8318,-3.8117,-3.8382,-3.83,-3.8201,-3.8303,-3.8204,-3.7506,-3.754,-3.747,-3.738,-3.7452,-3.7684,-3.7578,-3.791,-3.7962,-3.7703,-3.7808,-3.805,-3.8104,-3.8104,-3.8227,-3.8475,-3.8092,-3.7396,-3.6671,-3.5948,-3.5666,-3.5615,-3.5633,-3.5613,-3.5549,-3.4513,-3.3272,-3.2065,-3.0675,-2.9862,-2.9073,-2.7574,-2.6306,-2.509,-2.3853,-2.2531,-2.1273,-2.0846,-2.0325,-1.9637,-2.0109,-2.1343,-2.2186,-2.2464,-2.2075,-2.2063,-2.2063,-2.2075,-2.2199,-2.2702,-2.3078,-2.3005,-2.1916,-2.1616,-2.1877,-2.2125,-2.2433,-2.2932,-2.3292,-2.3826,-2.4221,-2.4394,-2.4667,-2.5231,-2.5605,-2.5714,-2.5986,-2.6481,-2.6886,-2.6983,-2.6718,-2.6683,-2.6606,-2.6152,-2.5733,-2.547,-2.4823,-2.423,-2.3721,-2.3333,-2.3201,-2.3201,-2.3347,-2.3303,-2.3039,-2.2815,-2.2711,-2.2409,-2.2025,-2.1979,-3.8707,-3.8732,-3.8936,-3.8912,-3.8755,-3.8933,-3.8923,-3.8719,-3.875,-3.8689,-3.8738,-3.8689,-3.875,-3.8719,-3.8707,-3.8707,-3.8792,-3.875,-3.8689,-3.8559,-3.8719,-3.8578,-3.8664,-3.8652,-3.859,-3.8515,-3.8405,-3.819,-3.8041,-3.8394,-3.8487,-3.8517,-3.8704,-3.8674,-3.8504,-3.8559,-3.8663,-3.8736,-3.8663,-3.877,-3.8755,-3.835,-3.772,-3.7044,-3.6324,-3.5906,-3.5732,-3.5645,-3.56,-3.5574,-3.5391,-3.5094,-3.4226,-3.2419,-3.0969,-2.9903,-2.882,-2.768,-2.6654,-2.5487,-2.4502,-2.3586,-2.2494,-2.2139,-2.1884,-2.1882,-2.2432,-2.2788,-2.3069,-2.2884,-2.2884,-2.2992,-2.2944,-2.3005,-2.3173,-2.3484,-2.3754,-2.3339,-2.2725,-2.304,-2.31,-2.316,-2.3695,-2.4163,-2.4567,-2.4894,-2.5175,-2.5563,-2.6108,-2.6443,-2.6549,-2.6916,-2.7342,-2.778,-2.811,-2.7705,-2.7512,-2.7612,-2.7268,-2.6671,-2.624,-2.5521,-2.4966,-2.4845,-2.463,-2.444,-2.4496,-2.4374,-2.421,-2.3918,-2.3679,-2.3435,-2.3303,-2.3171,-2.3025,-3.8781,-3.8909,-3.9046,-3.9127,-3.918,-3.9295,-3.9301,-3.9163,-3.9181,-3.9163,-3.9163,-3.9163,-3.9163,-3.9181,-3.9181,-3.9181,-3.91,-3.8792,-3.8873,-3.9036,-3.8892,-3.8921,-3.9064,-3.899,-3.8923,-3.8952,-3.9045,-3.8943,-3.8608,-3.9061,-3.9249,-3.9223,-3.9308,-3.9282,-3.9189,-3.9163,-3.9231,-3.9302,-3.9231,-3.9099,-3.9096,-3.8542,-3.8099,-3.7577,-3.7327,-3.6968,-3.6582,-3.7055,-3.6609,-3.5921,-3.5854,-3.5797,-3.5205,-3.4088,-3.2482,-3.1336,-3.0103,-2.8845,-2.7905,-2.6734,-2.5756,-2.4902,-2.3858,-2.3231,-2.3335,-2.3386,-2.3669,-2.3636,-2.3708,-2.3708,-2.3721,-2.3989,-2.4266,-2.4266,-2.4266,-2.4452,-2.4667,-2.4452,-2.4323,-2.415,-2.3989,-2.415,-2.4597,-2.5007,-2.5287,-2.5563,-2.5892,-2.639,-2.6945,-2.7041,-2.71,-2.75,-2.7898,-2.84,-2.8732,-2.856,-2.8513,-2.8621,-2.8351,-2.7724,-2.751,-2.7026,-2.678,-2.6599,-2.6327,-2.574,-2.5144,-2.4855,-2.4816,-2.4831,-2.4536,-2.4333,-2.4415,-2.4333,-2.4085,-3.8995,-3.9197,-3.9269,-3.9414,-3.9569,-3.968,-3.9675,-3.9622,-3.9595,-3.9576,-3.9599,-3.9576,-3.9576,-3.9599,-3.9576,-3.9576,-3.9552,-3.9064,-3.9189,-3.9358,-3.9154,-3.9181,-3.9402,-3.9383,-3.9205,-3.9257,-3.9524,-3.9481,-3.916,-3.9505,-3.9622,-3.9576,-3.9622,-3.9645,-3.9576,-3.9524,-3.9622,-3.9668,-3.9599,-3.9414,-3.9125,-3.8894,-3.859,-3.815,-3.8477,-3.8235,-3.7667,-3.7826,-3.7603,-3.6811,-3.6483,-3.6355,-3.5807,-3.5144,-3.423,-3.3051,-3.1717,-3.0374,-2.9012,-2.8054,-2.7032,-2.573,-2.5108,-2.4351,-2.4282,-2.4829,-2.5437,-2.4778,-2.4509,-2.4509,-2.4567,-2.5021,-2.5231,-2.5273,-2.5287,-2.5412,-2.5453,-2.5453,-2.5494,-2.5273,-2.4951,-2.5119,-2.5508,-2.5728,-2.5946,-2.6443,-2.6707,-2.6811,-2.7291,-2.7365,-2.7534,-2.7954,-2.8386,-2.8934,-2.9225,-2.9271,-2.9419,-2.9766,-2.9321,-2.8674,-2.8741,-2.8824,-2.8451,-2.7864,-2.7394,-2.6775,-2.6032,-2.5406,-2.5389,-2.5335,-2.5259,-2.5144,-2.491,-2.4871,-2.4736,-3.9516,-3.9564,-3.9848,-3.9845,-3.9688,-3.9928,-3.9872,-3.9626,-3.9668,-3.9599,-3.969,-3.9645,-3.9668,-3.9668,-3.9645,-3.9622,-3.9599,-3.9524,-3.9524,-3.9649,-3.9505,-3.95,-3.9622,-3.9557,-3.9534,-3.958,-3.988,-3.9645,-3.9462,-3.9797,-3.9901,-3.9775,-3.9903,-3.9922,-3.9738,-3.9757,-3.9754,-3.9943,-3.9775,-3.9481,-3.9205,-3.9072,-3.8847,-3.8683,-3.8651,-3.8606,-3.8285,-3.8231,-3.7881,-3.8187,-3.7439,-3.6973,-3.6517,-3.5759,-3.5057,-3.4382,-3.3508,-3.2395,-3.0612,-2.9455,-2.8351,-2.6905,-2.5972,-2.537,-2.5494,-2.6117,-2.655,-2.537,-2.5287,-2.53,-2.53,-2.5412,-2.5453,-2.5563,-2.5728,-2.6,-2.6176,-2.6215,-2.6254,-2.6481,-2.6162,-2.6162,-2.639,-2.6443,-2.6616,-2.71,-2.7473,-2.7524,-2.7595,-2.7678,-2.8185,-2.8669,-2.9009,-2.9524,-2.9892,-2.9935,-3.0123,-3.0642,-3.0202,-2.9629,-2.9727,-2.9758,-2.9256,-2.8713,-2.8293,-2.7768,-2.7075,-2.6515,-2.6125,-2.6098,-2.6318,-2.5843,-2.5198,-2.5269,-2.5702,-4.0024,-3.9907,-4.0043,-4.0104,-4.0142,-4.0277,-4.0257,-4.0138,-4.012,-4.0101,-4.012,-4.0101,-4.0101,-4.0063,-3.9964,-3.9983,-4.0004,-3.9778,-3.9821,-3.9925,-3.9821,-3.98,-4.0024,-3.9944,-3.9861,-3.9944,-4.012,-4.0101,-3.9905,-4.0024,-4.0212,-4.0138,-4.023,-4.0285,-4.0063,-4.0082,-4.0175,-4.0212,-4.0062,-3.9838,-3.9599,-3.9333,-3.9036,-3.8905,-3.8792,-3.8707,-3.8609,-3.8496,-3.838,-3.8554,-3.7951,-3.7323,-3.6783,-3.6207,-3.5734,-3.5191,-3.4911,-3.3746,-3.1942,-3.0654,-2.9357,-2.8531,-2.7616,-2.7188,-2.6937,-2.703,-2.7152,-2.6165,-2.6,-2.6,-2.6176,-2.6428,-2.6602,-2.6602,-2.6428,-2.6602,-2.6864,-2.6864,-2.6967,-2.7188,-2.7357,-2.7188,-2.7034,-2.7122,-2.7137,-2.7306,-2.7595,-2.768,-2.783,-2.7981,-2.8701,-2.9588,-2.9843,-3.0123,-3.0477,-3.0699,-3.0658,-3.0958,-3.0958,-3.0555,-3.06,-3.0446,-2.9973,-2.9685,-2.9421,-2.8814,-2.8129,-2.7786,-2.7554,-2.7514,-2.7528,-2.709,-2.6775,-2.7243,-2.7417,-4.0401,-4.0207,-4.0204,-4.0315,-4.0489,-4.0489,-4.0489,-4.0489,-4.0473,-4.0489,-4.0489,-4.0473,-4.0473,-4.0457,-4.0304,-4.0285,-4.0438,-4.0024,-4.0138,-4.0212,-4.0157,-4.0138,-4.0285,-4.0267,-4.0176,-4.0195,-4.0336,-4.0319,-4.0302,-4.0372,-4.0473,-4.0489,-4.0422,-4.0473,-4.0489,-4.0438,-4.0438,-4.0441,-4.0304,-4.0158,-3.9982,-3.9529,-3.9238,-3.9036,-3.8855,-3.8707,-3.8707,-3.8658,-3.8666,-3.8587,-3.835,-3.7805,-3.7164,-3.6766,-3.6341,-3.583,-3.5526,-3.4914,-3.3319,-3.1999,-3.0656,-2.9864,-2.9185,-2.8258,-2.786,-2.7655,-2.7375,-2.6826,-2.6774,-2.6774,-2.6878,-2.724,-2.7291,-2.7357,-2.7408,-2.7509,-2.756,-2.7393,-2.7291,-2.7408,-2.756,-2.7695,-2.7645,-2.7745,-2.776,-2.761,-2.7695,-2.7834,-2.813,-2.8513,-2.9329,-3.0285,-3.0427,-3.0617,-3.0838,-3.1095,-3.119,-3.119,-3.119,-3.1157,-3.1038,-3.0987,-3.0734,-3.0531,-3.0345,-3.0125,-2.955,-2.9262,-2.8958,-2.8561,-2.832,-2.8612,-2.8716,-2.9062,-2.8904,-4.0508,-4.0457,-4.0454,-4.0469,-4.0489,-4.0489,-4.0489,-4.0489,-4.0489,-4.0489,-4.0489,-4.0489,-4.0489,-4.0489,-4.0457,-4.0457,-4.0489,-4.0454,-4.0438,-4.0438,-4.0454,-4.0406,-4.0473,-4.0438,-4.0422,-4.0422,-4.0489,-4.0473,-4.0473,-4.0422,-4.0489,-4.0489,-4.0489,-4.0489,-4.0489,-4.0489,-4.0489,-4.0489,-4.0441,-4.0321,-4.0101,-3.9775,-3.9462,-3.9152,-3.8913,-3.8689,-3.8689,-3.8732,-3.8707,-3.8706,-3.859,-3.8287,-3.7667,-3.7294,-3.6856,-3.6387,-3.5924,-3.547,-3.4667,-3.3359,-3.1805,-3.0599,-2.9589,-2.8854,-2.848,-2.862,-2.8314,-2.7695,-2.7595,-2.7494,-2.7509,-2.756,-2.761,-2.776,-2.786,-2.781,-2.781,-2.776,-2.766,-2.761,-2.771,-2.7944,-2.8222,-2.8319,-2.8319,-2.8222,-2.8336,-2.8481,-2.8926,-2.9327,-3.01,-3.0781,-3.0958,-3.1055,-3.1095,-3.119,-3.119,-3.119,-3.119,-3.119,-3.1157,-3.114,-3.1106,-3.1038,-3.0818,-3.092,-3.0869,-3.0192,-2.96,-2.9197,-2.9113,-2.9465,-2.955,-2.9583,-2.9519,-4.0489,-4.0489,-4.0489,-4.0489,-4.0489,-4.0489,-4.0489,-4.0489,-4.0489,-4.0489,-4.0489,-4.0489,-4.0489,-4.0489,-4.0489,-4.0489,-4.0489,-4.0489,-4.0489,-4.0489,-4.0489,-4.0489,-4.0489,-4.0489,-4.0489,-4.0489,-4.0489,-4.0489,-4.0489,-4.0489,-4.0489,-4.0489,-4.0489,-4.0489,-4.0489,-4.0489,-4.0489,-4.0489,-4.0489,-4.0441,-4.0339,-4.0081,-3.9859,-3.9731,-3.9408,-3.9043,-3.8804,-3.8906,-3.8836,-3.8762,-3.8738,-3.8415,-3.8044,-3.7739,-3.737,-3.69,-3.6357,-3.6139,-3.5831,-3.4523,-3.299,-3.1298,-3.025,-2.9516,-2.918,-2.9425,-2.9319,-2.8873,-2.8319,-2.8174,-2.814,-2.7845,-2.7725,-2.8008,-2.814,-2.814,-2.814,-2.814,-2.8042,-2.8027,-2.8125,-2.8271,-2.8559,-2.8826,-2.8826,-2.881,-2.898,-2.9207,-2.9664,-2.9963,-3.0583,-3.0975,-3.1151,-3.119,-3.119,-3.119,-3.119,-3.119,-3.119,-3.119,-3.119,-3.119,-3.1157,-3.119,-3.119,-3.1123,-3.0954,-3.0666,-3.0328,-3.0057,-3.0142,-3.0446,-3.0395,-3.0192,-3.0091,-4.0489,-4.0489,-4.0489,-4.0489,-4.0489,-4.0489,-4.0489,-4.0489,-4.0489,-4.0489,-4.0489,-4.0489,-4.0489,-4.0489,-4.0489,-4.0489,-4.0489,-4.0489,-4.0489,-4.0489,-4.0489,-4.0489,-4.0489,-4.0489,-4.0489,-4.0489,-4.0489,-4.0489,-4.0489,-4.0489,-4.0489,-4.0489,-4.0489,-4.0489,-4.0489,-4.0489,-4.0489,-4.0489,-4.0489,-4.0489,-4.0457,-4.0251,-4.0081,-4.0002,-3.9709,-3.9425,-3.9177,-3.92,-3.9152,-3.9045,-3.8918,-3.8658,-3.8337,-3.8031,-3.7729,-3.738,-3.6943,-3.662,-3.6084,-3.4916,-3.3481,-3.1841,-3.0975,-3.0316,-2.9995,-3.0162,-3.0147,-2.9361,-2.8966,-2.8779,-2.8732,-2.8496,-2.84,-2.8732,-2.8779,-2.8779,-2.8779,-2.8732,-2.8591,-2.8448,-2.8638,-2.8857,-2.9361,-2.9673,-2.9673,-2.9613,-2.9613,-2.9876,-3.0369,-3.0623,-3.0754,-3.1055,-3.119,-3.119,-3.119,-3.119,-3.119,-3.119,-3.119,-3.119,-3.119,-3.119,-3.119,-3.119,-3.119,-3.119,-3.1072,-3.0886,-3.097,-3.1072,-3.1055,-3.092,-3.092,-3.0734,-3.0852,-4.0489,-4.0489,-4.0489,-4.0489,-4.0489,-4.0489,-4.0489,-4.0489,-4.0489,-4.0489,-4.0489,-4.0489,-4.0489,-4.0489,-4.0489,-4.0489,-4.0489,-4.0489,-4.0489,-4.0489,-4.0489,-4.0489,-4.0489,-4.0489,-4.0489,-4.0489,-4.0489,-4.0489,-4.0489,-4.0489,-4.0489,-4.0489,-4.0489,-4.0489,-4.0489,-4.0489,-4.0489,-4.0489,-4.0489,-4.0489,-4.0457,-4.0286,-4.0177,-4.0081,-3.9922,-3.9678,-3.9641,-3.958,-3.9566,-3.9571,-3.9194,-3.8966,-3.8859,-3.8296,-3.7998,-3.7859,-3.7433,-3.6943,-3.6312,-3.4541,-3.3371,-3.2461,-3.1681,-3.0998,-3.0567,-3.0683,-3.0766,-2.9924,-2.9496,-2.9406,-2.9361,-2.9316,-2.9225,-2.9361,-2.9361,-2.9345,-2.9329,-2.9361,-2.9225,-2.9059,-2.9303,-2.9585,-3.0208,-3.0617,-3.0559,-3.046,-3.0335,-3.0518,-3.0918,-3.1055,-3.1055,-3.1095,-3.119,-3.119,-3.119,-3.119,-3.119,-3.119,-3.119,-3.119,-3.119,-3.119,-3.119,-3.1207,-3.119,-3.119,-3.119,-3.1157,-3.119,-3.119,-3.119,-3.1123,-3.1173,-3.119,-3.119,-4.0489,-4.0489,-4.0489,-4.0489,-4.0489,-4.0489,-4.0489,-4.0489,-4.0489,-4.0489,-4.0489,-4.0489,-4.0489,-4.0489,-4.0508,-4.0508,-4.0489,-4.0489,-4.0489,-4.0489,-4.0489,-4.0489,-4.0489,-4.0489,-4.0489,-4.0489,-4.0489,-4.0489,-4.0489,-4.0489,-4.0489,-4.0489,-4.0489,-4.0489,-4.0489,-4.0489,-4.0489,-4.0489,-4.0489,-4.0489,-4.0508,-4.0425,-4.0356,-4.0336,-4.0212,-4.0139,-4.0134,-4.0019,-3.9994,-3.9993,-3.9567,-3.9146,-3.9072,-3.8566,-3.8419,-3.83,-3.7929,-3.7285,-3.6474,-3.5201,-3.4189,-3.3291,-3.2341,-3.1601,-3.112,-3.1053,-3.0881,-3.0609,-3.0166,-3.0081,-2.9995,-2.9585,-2.9496,-2.9892,-2.9962,-2.987,-2.9854,-2.9962,-2.9908,-2.9819,-2.9895,-3.0258,-3.074,-3.0878,-3.0918,-3.0918,-3.074,-3.0781,-3.1095,-3.1151,-3.1151,-3.1151,-3.119,-3.119,-3.1207,-3.1326,-3.136,-3.1376,-3.1292,-3.119,-3.119,-3.1484,-3.1472,-3.1686,-3.1421,-3.119,-3.1528,-3.1669,-3.1314,-3.119,-3.1286,-3.1286,-3.119,-3.119,-3.119,-4.0566,-4.0566,-4.0566,-4.0585,-4.0585,-4.0527,-4.0489,-4.0489,-4.0489,-4.0508,-4.0546,-4.0566,-4.0566,-4.0566,-4.0566,-4.0527,-4.0508,-4.0489,-4.0489,-4.0489,-4.0489,-4.0489,-4.0489,-4.0489,-4.0489,-4.0489,-4.0489,-4.0489,-4.0489,-4.0489,-4.0489,-4.0489,-4.0489,-4.0489,-4.0489,-4.0489,-4.0489,-4.0489,-4.0489,-4.0489,-4.0489,-4.0473,-4.0489,-4.0473,-4.0457,-4.0482,-4.0438,-4.0386,-4.0291,-4.0207,-3.9811,-3.9308,-3.9178,-3.8952,-3.875,-3.8546,-3.815,-3.7578,-3.6978,-3.6414,-3.5431,-3.4483,-3.3174,-3.1975,-3.1343,-3.1202,-3.1185,-3.1015,-3.0797,-3.0658,-3.0477,-3.0038,-3.0123,-3.0559,-3.0543,-3.0435,-3.0452,-3.0518,-3.0535,-3.0458,-3.0474,-3.0848,-3.1055,-3.1095,-3.1095,-3.1151,-3.1151,-3.1224,-3.1258,-3.1275,-3.1309,-3.1309,-3.1309,-3.1326,-3.1427,-3.1579,-3.1596,-3.1579,-3.1647,-3.1732,-3.2123,-3.2576,-3.2344,-3.2273,-3.2659,-3.2824,-3.2402,-3.2217,-3.2064,-3.1807,-3.1641,-3.153,-3.1247,-3.1213,-3.1252,-4.0716,-4.0716,-4.0716,-4.0735,-4.0773,-4.0611,-4.0515,-4.0523,-4.0508,-4.06,-4.0716,-4.0688,-4.0693,-4.0709,-4.0703,-4.0639,-4.0566,-4.0527,-4.0527,-4.0527,-4.0546,-4.0527,-4.0527,-4.0508,-4.0508,-4.0489,-4.0489,-4.0489,-4.0489,-4.0489,-4.0489,-4.0489,-4.0489,-4.0489,-4.0489,-4.0489,-4.0489,-4.0489,-4.0489,-4.0489,-4.0489,-4.0489,-4.0489,-4.0489,-4.0508,-4.0492,-4.0479,-4.046,-4.046,-4.0306,-3.9925,-3.9712,-3.9427,-3.9036,-3.8833,-3.8578,-3.8201,-3.7998,-3.7702,-3.7199,-3.6569,-3.5425,-3.3593,-3.2066,-3.1326,-3.137,-3.119,-3.119,-3.1055,-3.1095,-3.1015,-3.0975,-3.0958,-3.1055,-3.1055,-3.1038,-3.1038,-3.1055,-3.1055,-3.1049,-3.1009,-3.1151,-3.1151,-3.119,-3.1275,-3.1275,-3.1343,-3.1529,-3.1546,-3.1512,-3.1529,-3.1546,-3.1546,-3.1512,-3.1681,-3.2104,-3.2222,-3.2341,-3.2662,-3.2831,-3.3267,-3.3356,-3.2986,-3.3158,-3.4284,-3.4337,-3.333,-3.3029,-3.3087,-3.2789,-3.2541,-3.1912,-3.1671,-3.1423,-3.1334,-4.0773,-4.0773,-4.0773,-4.0773,-4.08,-4.0734,-4.0699,-4.0712,-4.0716,-4.0735,-4.077,-4.0773,-4.0781,-4.0774,-4.0769,-4.0752,-4.0731,-4.0716,-4.0716,-4.0693,-4.066,-4.0654,-4.062,-4.0546,-4.0508,-4.0508,-4.0508,-4.0508,-4.0489,-4.0489,-4.0508,-4.0489,-4.0489,-4.0489,-4.0489,-4.0489,-4.0489,-4.0489,-4.0489,-4.0489,-4.0489,-4.0489,-4.0489,-4.0489,-4.0489,-4.0489,-4.0489,-4.0489,-4.0489,-4.0406,-4.0139,-3.9962,-3.9901,-3.9352,-3.8933,-3.8738,-3.8496,-3.8332,-3.798,-3.779,-3.7291,-3.6613,-3.5555,-3.4504,-3.3208,-3.1948,-3.146,-3.1263,-3.1207,-3.119,-3.119,-3.119,-3.119,-3.119,-3.119,-3.119,-3.119,-3.119,-3.119,-3.119,-3.119,-3.119,-3.119,-3.1343,-3.141,-3.141,-3.1546,-3.1816,-3.1968,-3.1968,-3.1985,-3.2019,-3.2154,-3.2256,-3.2577,-3.2983,-3.3034,-3.3152,-3.3491,-3.3677,-3.3677,-3.3666,-3.3488,-3.3973,-3.4993,-3.4661,-3.3652,-3.3665,-3.4045,-3.3914,-3.3647,-3.2789,-3.2145,-3.211,-3.1768,-4.0889,-4.0896,-4.0865,-4.0888,-4.0897,-4.0932,-4.0966,-4.0931,-4.0848,-4.0835,-4.0896,-4.0868,-4.0877,-4.089,-4.089,-4.0859,-4.0796,-4.0788,-4.0788,-4.0769,-4.0752,-4.0756,-4.068,-4.0635,-4.06,-4.06,-4.06,-4.06,-4.0562,-4.0562,-4.0566,-4.0489,-4.0489,-4.0489,-4.0489,-4.0489,-4.0489,-4.0489,-4.0489,-4.0489,-4.0489,-4.0489,-4.0489,-4.0489,-4.0489,-4.0489,-4.0489,-4.0489,-4.0489,-4.0511,-4.0308,-4.0196,-4.002,-3.9481,-3.899,-3.8762,-3.8658,-3.8546,-3.8318,-3.8267,-3.7724,-3.7302,-3.72,-3.6043,-3.4689,-3.3301,-3.2209,-3.1443,-3.1297,-3.119,-3.119,-3.119,-3.119,-3.119,-3.119,-3.119,-3.119,-3.119,-3.119,-3.119,-3.119,-3.119,-3.1275,-3.1461,-3.1681,-3.1884,-3.2222,-3.2611,-3.273,-3.273,-3.273,-3.2747,-3.2949,-3.3152,-3.3491,-3.3744,-3.3812,-3.3981,-3.4387,-3.4472,-3.4218,-3.4482,-3.4852,-3.5238,-3.5704,-3.5244,-3.4874,-3.4822,-3.5004,-3.4966,-3.492,-3.4341,-3.3847,-3.36,-3.3103,-4.1012,-4.1023,-4.1016,-4.1016,-4.1033,-4.1145,-4.1181,-4.1174,-4.096,-4.0908,-4.0997,-4.1001,-4.1015,-4.1016,-4.1016,-4.0976,-4.0935,-4.0901,-4.0901,-4.084,-4.0824,-4.0837,-4.0812,-4.0733,-4.0709,-4.0708,-4.0712,-4.0684,-4.0699,-4.0688,-4.0639,-4.0527,-4.0546,-4.0566,-4.0566,-4.0566,-4.0566,-4.06,-4.0546,-4.0527,-4.0508,-4.0489,-4.0489,-4.0489,-4.0489,-4.0489,-4.0489,-4.0489,-4.0489,-4.0502,-4.0456,-4.0348,-3.9996,-3.9641,-3.9189,-3.8855,-3.8803,-3.8701,-3.8609,-3.8546,-3.8578,-3.8123,-3.7644,-3.68,-3.5634,-3.3927,-3.2572,-3.1664,-3.1461,-3.1241,-3.119,-3.119,-3.119,-3.119,-3.119,-3.119,-3.119,-3.119,-3.119,-3.1258,-3.1478,-3.1495,-3.1664,-3.1901,-3.2357,-3.2527,-3.2916,-3.3389,-3.3558,-3.3558,-3.3525,-3.3541,-3.388,-3.41,-3.415,-3.4387,-3.4539,-3.481,-3.5115,-3.5233,-3.4979,-3.5591,-3.6406,-3.6359,-3.6255,-3.6629,-3.6573,-3.6343,-3.6203,-3.6363,-3.6251,-3.5966,-3.5594,-3.5272,-3.4447,-4.1136,-4.114,-4.115,-4.1152,-4.1152,-4.1187,-4.1191,-4.1201,-4.1142,-4.1113,-4.1133,-4.1152,-4.1152,-4.1133,-4.1133,-4.1094,-4.1094,-4.1055,-4.1094,-4.1035,-4.0976,-4.0937,-4.0918,-4.0846,-4.0812,-4.0791,-4.0785,-4.0797,-4.0779,-4.0771,-4.075,-4.0731,-4.0708,-4.0699,-4.0699,-4.0699,-4.0684,-4.0696,-4.066,-4.0592,-4.0508,-4.0508,-4.0489,-4.0489,-4.0489,-4.0489,-4.0489,-4.0489,-4.0489,-4.0511,-4.0495,-4.0342,-4.0101,-3.9922,-3.9552,-3.9144,-3.8999,-3.8923,-3.8773,-3.875,-3.8732,-3.8689,-3.8204,-3.7562,-3.6337,-3.4411,-3.3055,-3.229,-3.171,-3.1472,-3.1263,-3.1263,-3.119,-3.119,-3.1207,-3.1207,-3.1224,-3.1292,-3.1275,-3.1529,-3.1782,-3.1968,-3.2154,-3.251,-3.2949,-3.3406,-3.3863,-3.4269,-3.4455,-3.4506,-3.4404,-3.4489,-3.4895,-3.5081,-3.4996,-3.4928,-3.5047,-3.5209,-3.5474,-3.5582,-3.5667,-3.5877,-3.6166,-3.6524,-3.6695,-3.7111,-3.7417,-3.7435,-3.7379,-3.7458,-3.7468,-3.713,-3.7189,-3.6973,-3.595,-4.1191,-4.1191,-4.1191,-4.1191,-4.1191,-4.1191,-4.1191,-4.1191,-4.1191,-4.1191,-4.1191,-4.1191,-4.1191,-4.1191,-4.1191,-4.1191,-4.1191,-4.1191,-4.1172,-4.1152,-4.1133,-4.1094,-4.1035,-4.0957,-4.0927,-4.09,-4.0888,-4.0903,-4.0879,-4.087,-4.0866,-4.0831,-4.0815,-4.0815,-4.0815,-4.0815,-4.0816,-4.0789,-4.077,-4.0693,-4.0588,-4.0527,-4.0508,-4.0489,-4.0489,-4.0489,-4.0489,-4.0489,-4.0489,-4.0489,-4.0508,-4.0358,-4.0177,-4.0061,-3.9816,-3.9505,-3.9308,-3.9178,-3.898,-3.8873,-3.8815,-3.8762,-3.8689,-3.7963,-3.7419,-3.5687,-3.4695,-3.3894,-3.296,-3.2647,-3.2159,-3.1994,-3.1509,-3.1274,-3.1297,-3.1309,-3.1765,-3.2188,-3.229,-3.251,-3.2696,-3.2747,-3.2983,-3.3406,-3.3795,-3.4032,-3.4539,-3.4912,-3.5131,-3.5182,-3.5148,-3.5182,-3.5436,-3.5571,-3.5402,-3.5368,-3.5453,-3.5616,-3.581,-3.6122,-3.6312,-3.5878,-3.5793,-3.6593,-3.7219,-3.7648,-3.7895,-3.7929,-3.8083,-3.8118,-3.8186,-3.8218,-3.835,-3.8252,-3.7264,-4.1191,-4.1191,-4.1191,-4.1191,-4.1191,-4.1191,-4.1191,-4.1191,-4.1191,-4.1191,-4.1191,-4.1191,-4.1191,-4.1191,-4.1191,-4.1191,-4.1191,-4.1191,-4.1191,-4.1191,-4.1191,-4.1172,-4.1133,-4.1094,-4.1055,-4.1038,-4.1037,-4.1016,-4.1016,-4.1016,-4.0976,-4.087,-4.0859,-4.0857,-4.0859,-4.0867,-4.0906,-4.0887,-4.0862,-4.0808,-4.0687,-4.0585,-4.0508,-4.0489,-4.0489,-4.0489,-4.0489,-4.0489,-4.0489,-4.0489,-4.0489,-4.0408,-4.0286,-4.0195,-4.0003,-3.9757,-3.9668,-3.9481,-3.9257,-3.909,-3.8961,-3.8844,-3.8732,-3.8423,-3.7845,-3.7244,-3.6265,-3.5538,-3.4634,-3.3723,-3.3211,-3.2726,-3.2152,-3.1747,-3.1827,-3.1811,-3.2432,-3.3008,-3.3152,-3.3372,-3.3457,-3.3491,-3.3812,-3.4235,-3.4539,-3.4759,-3.4996,-3.5368,-3.5588,-3.5487,-3.5402,-3.5419,-3.5537,-3.5622,-3.5639,-3.5783,-3.5827,-3.6028,-3.6207,-3.6684,-3.69,-3.6504,-3.6506,-3.7131,-3.7703,-3.8086,-3.8168,-3.815,-3.8382,-3.8578,-3.8546,-3.8496,-3.8433,-3.8318,-3.8083,-4.1191,-4.1191,-4.1191,-4.1191,-4.1191,-4.1191,-4.1191,-4.1191,-4.1191,-4.1191,-4.1191,-4.1191,-4.1191,-4.1191,-4.1191,-4.1191,-4.1191,-4.1191,-4.1191,-4.1191,-4.1191,-4.1191,-4.1191,-4.1152,-4.1172,-4.1152,-4.1133,-4.1152,-4.1113,-4.1133,-4.1152,-4.1094,-4.1094,-4.1113,-4.1113,-4.1113,-4.1089,-4.1063,-4.0994,-4.0936,-4.0849,-4.0723,-4.0543,-4.0489,-4.0489,-4.0489,-4.0489,-4.0489,-4.0489,-4.0489,-4.0489,-4.0457,-4.0425,-4.0356,-4.0212,-4.0062,-3.9983,-3.9819,-3.958,-3.9352,-3.9173,-3.899,-3.8855,-3.8658,-3.8355,-3.8337,-3.7644,-3.7384,-3.641,-3.5096,-3.4447,-3.4016,-3.3491,-3.3352,-3.3321,-3.3191,-3.3444,-3.3607,-3.3718,-3.3914,-3.4092,-3.415,-3.4353,-3.4776,-3.5226,-3.5362,-3.5318,-3.5622,-3.5739,-3.5711,-3.5622,-3.5667,-3.5667,-3.5639,-3.5622,-3.6071,-3.6224,-3.6374,-3.6643,-3.7135,-3.7308,-3.7131,-3.7309,-3.7772,-3.8119,-3.8483,-3.8496,-3.8364,-3.8496,-3.8658,-3.8658,-3.8627,-3.8546,-3.835,-3.8117]}]]